<?xml version="1.0" encoding="UTF-8" standalone="no" ?>
<gpx xmlns="http://www.topografix.com/GPX/1/1" xmlns:xsi="http://www.w3.org/2001/XMLSchema-instance" xsi:schemaLocation="http://www.topografix.com/GPX/1/1 http://www.topografix.com/GPX/1/1/gpx.xsd" version="1.1" creator="VisuGPX - https://www.visugpx.com">
  <metadata>
    <name>9348845-peyrelade  hure meyrues</name>
  </metadata>
  <trk>
    <name><![CDATA[9348845-peyrelade  hure meyrues]]></name>
    <trkseg>
      <trkpt lat="44.19106" lon="3.15651">
        <ele>397</ele>
        <time>2019-05-22T20:04:33Z</time>
      </trkpt>
      <trkpt lat="44.19148" lon="3.15648">
        <ele>400</ele>
        <time>2019-05-22T20:04:40Z</time>
      </trkpt>
      <trkpt lat="44.19203" lon="3.15638">
        <ele>404</ele>
        <time>2019-05-22T20:04:50Z</time>
      </trkpt>
      <trkpt lat="44.19239" lon="3.15628">
        <ele>406</ele>
        <time>2019-05-22T20:04:57Z</time>
      </trkpt>
      <trkpt lat="44.19289" lon="3.15607">
        <ele>405</ele>
        <time>2019-05-22T20:05:06Z</time>
      </trkpt>
      <trkpt lat="44.19314" lon="3.15598">
        <ele>403</ele>
        <time>2019-05-22T20:05:11Z</time>
      </trkpt>
      <trkpt lat="44.19326" lon="3.15588">
        <ele>403</ele>
        <time>2019-05-22T20:05:13Z</time>
      </trkpt>
      <trkpt lat="44.19467" lon="3.15431">
        <ele>409</ele>
        <time>2019-05-22T20:05:45Z</time>
      </trkpt>
      <trkpt lat="44.19484" lon="3.15416">
        <ele>407</ele>
        <time>2019-05-22T20:05:49Z</time>
      </trkpt>
      <trkpt lat="44.19507" lon="3.15401">
        <ele>405</ele>
        <time>2019-05-22T20:05:53Z</time>
      </trkpt>
      <trkpt lat="44.19528" lon="3.1539">
        <ele>405</ele>
        <time>2019-05-22T20:05:57Z</time>
      </trkpt>
      <trkpt lat="44.19588" lon="3.15371">
        <ele>400</ele>
        <time>2019-05-22T20:06:08Z</time>
      </trkpt>
      <trkpt lat="44.19627" lon="3.15366">
        <ele>401</ele>
        <time>2019-05-22T20:06:15Z</time>
      </trkpt>
      <trkpt lat="44.19722" lon="3.15379">
        <ele>397</ele>
        <time>2019-05-22T20:06:32Z</time>
      </trkpt>
      <trkpt lat="44.19771" lon="3.15378">
        <ele>395</ele>
        <time>2019-05-22T20:06:41Z</time>
      </trkpt>
      <trkpt lat="44.19847" lon="3.15367">
        <ele>393</ele>
        <time>2019-05-22T20:06:55Z</time>
      </trkpt>
      <trkpt lat="44.19877" lon="3.15364">
        <ele>395</ele>
        <time>2019-05-22T20:07:00Z</time>
      </trkpt>
      <trkpt lat="44.19903" lon="3.15366">
        <ele>395</ele>
        <time>2019-05-22T20:07:05Z</time>
      </trkpt>
      <trkpt lat="44.19933" lon="3.15372">
        <ele>397</ele>
        <time>2019-05-22T20:07:10Z</time>
      </trkpt>
      <trkpt lat="44.19965" lon="3.15385">
        <ele>399</ele>
        <time>2019-05-22T20:07:16Z</time>
      </trkpt>
      <trkpt lat="44.20003" lon="3.15415">
        <ele>400</ele>
        <time>2019-05-22T20:07:24Z</time>
      </trkpt>
      <trkpt lat="44.20029" lon="3.15448">
        <ele>400</ele>
        <time>2019-05-22T20:07:30Z</time>
      </trkpt>
      <trkpt lat="44.20038" lon="3.15463">
        <ele>400</ele>
        <time>2019-05-22T20:07:32Z</time>
      </trkpt>
      <trkpt lat="44.20038" lon="3.15463">
        <ele>400</ele>
        <time>2019-05-22T20:07:33Z</time>
      </trkpt>
      <trkpt lat="44.20052" lon="3.15486">
        <ele>400</ele>
        <time>2019-05-22T20:07:36Z</time>
      </trkpt>
      <trkpt lat="44.20066" lon="3.15516">
        <ele>399</ele>
        <time>2019-05-22T20:07:41Z</time>
      </trkpt>
      <trkpt lat="44.20075" lon="3.15542">
        <ele>398</ele>
        <time>2019-05-22T20:07:45Z</time>
      </trkpt>
      <trkpt lat="44.20098" lon="3.15619">
        <ele>394</ele>
        <time>2019-05-22T20:07:55Z</time>
      </trkpt>
      <trkpt lat="44.20109" lon="3.15648">
        <ele>393</ele>
        <time>2019-05-22T20:07:59Z</time>
      </trkpt>
      <trkpt lat="44.20119" lon="3.15667">
        <ele>392</ele>
        <time>2019-05-22T20:08:02Z</time>
      </trkpt>
      <trkpt lat="44.2013" lon="3.15681">
        <ele>392</ele>
        <time>2019-05-22T20:08:05Z</time>
      </trkpt>
      <trkpt lat="44.2014" lon="3.15689">
        <ele>392</ele>
        <time>2019-05-22T20:08:07Z</time>
      </trkpt>
      <trkpt lat="44.20154" lon="3.15698">
        <ele>392</ele>
        <time>2019-05-22T20:08:10Z</time>
      </trkpt>
      <trkpt lat="44.20173" lon="3.15703">
        <ele>393</ele>
        <time>2019-05-22T20:08:13Z</time>
      </trkpt>
      <trkpt lat="44.20271" lon="3.15705">
        <ele>392</ele>
        <time>2019-05-22T20:08:31Z</time>
      </trkpt>
      <trkpt lat="44.2029" lon="3.15707">
        <ele>392</ele>
        <time>2019-05-22T20:08:34Z</time>
      </trkpt>
      <trkpt lat="44.20302" lon="3.15711">
        <ele>391</ele>
        <time>2019-05-22T20:08:36Z</time>
      </trkpt>
      <trkpt lat="44.20316" lon="3.1572">
        <ele>391</ele>
        <time>2019-05-22T20:08:39Z</time>
      </trkpt>
      <trkpt lat="44.20328" lon="3.15732">
        <ele>390</ele>
        <time>2019-05-22T20:08:42Z</time>
      </trkpt>
      <trkpt lat="44.20336" lon="3.15744">
        <ele>389</ele>
        <time>2019-05-22T20:08:44Z</time>
      </trkpt>
      <trkpt lat="44.20344" lon="3.15769">
        <ele>388</ele>
        <time>2019-05-22T20:08:47Z</time>
      </trkpt>
      <trkpt lat="44.20363" lon="3.15874">
        <ele>389</ele>
        <time>2019-05-22T20:09:01Z</time>
      </trkpt>
      <trkpt lat="44.20363" lon="3.15885">
        <ele>390</ele>
        <time>2019-05-22T20:09:03Z</time>
      </trkpt>
      <trkpt lat="44.20361" lon="3.15894">
        <ele>390</ele>
        <time>2019-05-22T20:09:04Z</time>
      </trkpt>
      <trkpt lat="44.20355" lon="3.15904">
        <ele>390</ele>
        <time>2019-05-22T20:09:05Z</time>
      </trkpt>
      <trkpt lat="44.20349" lon="3.15912">
        <ele>390</ele>
        <time>2019-05-22T20:09:07Z</time>
      </trkpt>
      <trkpt lat="44.20145" lon="3.16001">
        <ele>389</ele>
        <time>2019-05-22T20:09:45Z</time>
      </trkpt>
      <trkpt lat="44.20127" lon="3.16014">
        <ele>389</ele>
        <time>2019-05-22T20:09:48Z</time>
      </trkpt>
      <trkpt lat="44.20111" lon="3.16042">
        <ele>391</ele>
        <time>2019-05-22T20:09:53Z</time>
      </trkpt>
      <trkpt lat="44.201" lon="3.16086">
        <ele>393</ele>
        <time>2019-05-22T20:09:59Z</time>
      </trkpt>
      <trkpt lat="44.20096" lon="3.16117">
        <ele>396</ele>
        <time>2019-05-22T20:10:03Z</time>
      </trkpt>
      <trkpt lat="44.20096" lon="3.16144">
        <ele>399</ele>
        <time>2019-05-22T20:10:06Z</time>
      </trkpt>
      <trkpt lat="44.20102" lon="3.16228">
        <ele>404</ele>
        <time>2019-05-22T20:10:17Z</time>
      </trkpt>
      <trkpt lat="44.20105" lon="3.16359">
        <ele>397</ele>
        <time>2019-05-22T20:10:34Z</time>
      </trkpt>
      <trkpt lat="44.20109" lon="3.1645">
        <ele>397</ele>
        <time>2019-05-22T20:10:46Z</time>
      </trkpt>
      <trkpt lat="44.20124" lon="3.16576">
        <ele>401</ele>
        <time>2019-05-22T20:11:02Z</time>
      </trkpt>
      <trkpt lat="44.20124" lon="3.16627">
        <ele>400</ele>
        <time>2019-05-22T20:11:08Z</time>
      </trkpt>
      <trkpt lat="44.20121" lon="3.16727">
        <ele>396</ele>
        <time>2019-05-22T20:11:21Z</time>
      </trkpt>
      <trkpt lat="44.20124" lon="3.16791">
        <ele>395</ele>
        <time>2019-05-22T20:11:29Z</time>
      </trkpt>
      <trkpt lat="44.2014" lon="3.16934">
        <ele>398</ele>
        <time>2019-05-22T20:11:48Z</time>
      </trkpt>
      <trkpt lat="44.20156" lon="3.17032">
        <ele>395</ele>
        <time>2019-05-22T20:12:01Z</time>
      </trkpt>
      <trkpt lat="44.20161" lon="3.17098">
        <ele>392</ele>
        <time>2019-05-22T20:12:09Z</time>
      </trkpt>
      <trkpt lat="44.20179" lon="3.17203">
        <ele>392</ele>
        <time>2019-05-22T20:12:23Z</time>
      </trkpt>
      <trkpt lat="44.20181" lon="3.17246">
        <ele>389</ele>
        <time>2019-05-22T20:12:28Z</time>
      </trkpt>
      <trkpt lat="44.2018" lon="3.17308">
        <ele>388</ele>
        <time>2019-05-22T20:12:36Z</time>
      </trkpt>
      <trkpt lat="44.20178" lon="3.17327">
        <ele>388</ele>
        <time>2019-05-22T20:12:39Z</time>
      </trkpt>
      <trkpt lat="44.20173" lon="3.1735">
        <ele>390</ele>
        <time>2019-05-22T20:12:42Z</time>
      </trkpt>
      <trkpt lat="44.20167" lon="3.17365">
        <ele>390</ele>
        <time>2019-05-22T20:12:44Z</time>
      </trkpt>
      <trkpt lat="44.2015" lon="3.17392">
        <ele>391</ele>
        <time>2019-05-22T20:12:49Z</time>
      </trkpt>
      <trkpt lat="44.20135" lon="3.17426">
        <ele>392</ele>
        <time>2019-05-22T20:12:54Z</time>
      </trkpt>
      <trkpt lat="44.20123" lon="3.17462">
        <ele>392</ele>
        <time>2019-05-22T20:12:59Z</time>
      </trkpt>
      <trkpt lat="44.20108" lon="3.17527">
        <ele>392</ele>
        <time>2019-05-22T20:13:07Z</time>
      </trkpt>
      <trkpt lat="44.20105" lon="3.17559">
        <ele>393</ele>
        <time>2019-05-22T20:13:12Z</time>
      </trkpt>
      <trkpt lat="44.20104" lon="3.17611">
        <ele>395</ele>
        <time>2019-05-22T20:13:18Z</time>
      </trkpt>
      <trkpt lat="44.20098" lon="3.1766">
        <ele>395</ele>
        <time>2019-05-22T20:13:24Z</time>
      </trkpt>
      <trkpt lat="44.20081" lon="3.17766">
        <ele>395</ele>
        <time>2019-05-22T20:13:38Z</time>
      </trkpt>
      <trkpt lat="44.20068" lon="3.17807">
        <ele>397</ele>
        <time>2019-05-22T20:13:44Z</time>
      </trkpt>
      <trkpt lat="44.20029" lon="3.17897">
        <ele>397</ele>
        <time>2019-05-22T20:13:57Z</time>
      </trkpt>
      <trkpt lat="44.19995" lon="3.17993">
        <ele>397</ele>
        <time>2019-05-22T20:14:11Z</time>
      </trkpt>
      <trkpt lat="44.19982" lon="3.18037">
        <ele>397</ele>
        <time>2019-05-22T20:14:17Z</time>
      </trkpt>
      <trkpt lat="44.19975" lon="3.18077">
        <ele>398</ele>
        <time>2019-05-22T20:14:22Z</time>
      </trkpt>
      <trkpt lat="44.19973" lon="3.18109">
        <ele>398</ele>
        <time>2019-05-22T20:14:27Z</time>
      </trkpt>
      <trkpt lat="44.19973" lon="3.18146">
        <ele>399</ele>
        <time>2019-05-22T20:14:31Z</time>
      </trkpt>
      <trkpt lat="44.19978" lon="3.1821">
        <ele>402</ele>
        <time>2019-05-22T20:14:39Z</time>
      </trkpt>
      <trkpt lat="44.19977" lon="3.18241">
        <ele>403</ele>
        <time>2019-05-22T20:14:43Z</time>
      </trkpt>
      <trkpt lat="44.19972" lon="3.18274">
        <ele>403</ele>
        <time>2019-05-22T20:14:48Z</time>
      </trkpt>
      <trkpt lat="44.19963" lon="3.18309">
        <ele>403</ele>
        <time>2019-05-22T20:14:52Z</time>
      </trkpt>
      <trkpt lat="44.19947" lon="3.18348">
        <ele>402</ele>
        <time>2019-05-22T20:14:58Z</time>
      </trkpt>
      <trkpt lat="44.1993" lon="3.18387">
        <ele>403</ele>
        <time>2019-05-22T20:15:04Z</time>
      </trkpt>
      <trkpt lat="44.19908" lon="3.18424">
        <ele>403</ele>
        <time>2019-05-22T20:15:10Z</time>
      </trkpt>
      <trkpt lat="44.19873" lon="3.18464">
        <ele>403</ele>
        <time>2019-05-22T20:15:18Z</time>
      </trkpt>
      <trkpt lat="44.19697" lon="3.18584">
        <ele>397</ele>
        <time>2019-05-22T20:15:53Z</time>
      </trkpt>
      <trkpt lat="44.19679" lon="3.18603">
        <ele>397</ele>
        <time>2019-05-22T20:15:57Z</time>
      </trkpt>
      <trkpt lat="44.19669" lon="3.18618">
        <ele>398</ele>
        <time>2019-05-22T20:16:00Z</time>
      </trkpt>
      <trkpt lat="44.1965" lon="3.18657">
        <ele>399</ele>
        <time>2019-05-22T20:16:06Z</time>
      </trkpt>
      <trkpt lat="44.19642" lon="3.18686">
        <ele>399</ele>
        <time>2019-05-22T20:16:10Z</time>
      </trkpt>
      <trkpt lat="44.19638" lon="3.18706">
        <ele>398</ele>
        <time>2019-05-22T20:16:12Z</time>
      </trkpt>
      <trkpt lat="44.19637" lon="3.18735">
        <ele>399</ele>
        <time>2019-05-22T20:16:16Z</time>
      </trkpt>
      <trkpt lat="44.19639" lon="3.18769">
        <ele>398</ele>
        <time>2019-05-22T20:16:20Z</time>
      </trkpt>
      <trkpt lat="44.19644" lon="3.18792">
        <ele>397</ele>
        <time>2019-05-22T20:16:23Z</time>
      </trkpt>
      <trkpt lat="44.19656" lon="3.18822">
        <ele>396</ele>
        <time>2019-05-22T20:16:28Z</time>
      </trkpt>
      <trkpt lat="44.1967" lon="3.18843">
        <ele>395</ele>
        <time>2019-05-22T20:16:32Z</time>
      </trkpt>
      <trkpt lat="44.19686" lon="3.18857">
        <ele>395</ele>
        <time>2019-05-22T20:16:35Z</time>
      </trkpt>
      <trkpt lat="44.1974" lon="3.18882">
        <ele>396</ele>
        <time>2019-05-22T20:16:45Z</time>
      </trkpt>
      <trkpt lat="44.19763" lon="3.18897">
        <ele>395</ele>
        <time>2019-05-22T20:16:50Z</time>
      </trkpt>
      <trkpt lat="44.19774" lon="3.18907">
        <ele>395</ele>
        <time>2019-05-22T20:16:52Z</time>
      </trkpt>
      <trkpt lat="44.19792" lon="3.18933">
        <ele>394</ele>
        <time>2019-05-22T20:16:56Z</time>
      </trkpt>
      <trkpt lat="44.19866" lon="3.19079">
        <ele>397</ele>
        <time>2019-05-22T20:17:19Z</time>
      </trkpt>
      <trkpt lat="44.19877" lon="3.19115">
        <ele>397</ele>
        <time>2019-05-22T20:17:24Z</time>
      </trkpt>
      <trkpt lat="44.19879" lon="3.19155">
        <ele>396</ele>
        <time>2019-05-22T20:17:29Z</time>
      </trkpt>
      <trkpt lat="44.19875" lon="3.19228">
        <ele>397</ele>
        <time>2019-05-22T20:17:39Z</time>
      </trkpt>
      <trkpt lat="44.1987" lon="3.19261">
        <ele>397</ele>
        <time>2019-05-22T20:17:43Z</time>
      </trkpt>
      <trkpt lat="44.19859" lon="3.19315">
        <ele>399</ele>
        <time>2019-05-22T20:17:50Z</time>
      </trkpt>
      <trkpt lat="44.19769" lon="3.19545">
        <ele>400</ele>
        <time>2019-05-22T20:18:24Z</time>
      </trkpt>
      <trkpt lat="44.19759" lon="3.19577">
        <ele>399</ele>
        <time>2019-05-22T20:18:28Z</time>
      </trkpt>
      <trkpt lat="44.1972" lon="3.19732">
        <ele>397</ele>
        <time>2019-05-22T20:18:49Z</time>
      </trkpt>
      <trkpt lat="44.19707" lon="3.19773">
        <ele>398</ele>
        <time>2019-05-22T20:18:55Z</time>
      </trkpt>
      <trkpt lat="44.1969" lon="3.19808">
        <ele>399</ele>
        <time>2019-05-22T20:19:00Z</time>
      </trkpt>
      <trkpt lat="44.19559" lon="3.20029">
        <ele>396</ele>
        <time>2019-05-22T20:19:37Z</time>
      </trkpt>
      <trkpt lat="44.19547" lon="3.20065">
        <ele>398</ele>
        <time>2019-05-22T20:19:42Z</time>
      </trkpt>
      <trkpt lat="44.19531" lon="3.20146">
        <ele>400</ele>
        <time>2019-05-22T20:19:52Z</time>
      </trkpt>
      <trkpt lat="44.19508" lon="3.20229">
        <ele>399</ele>
        <time>2019-05-22T20:20:04Z</time>
      </trkpt>
      <trkpt lat="44.19485" lon="3.20368">
        <ele>399</ele>
        <time>2019-05-22T20:20:22Z</time>
      </trkpt>
      <trkpt lat="44.19469" lon="3.20426">
        <ele>398</ele>
        <time>2019-05-22T20:20:30Z</time>
      </trkpt>
      <trkpt lat="44.19451" lon="3.20468">
        <ele>396</ele>
        <time>2019-05-22T20:20:36Z</time>
      </trkpt>
      <trkpt lat="44.19446" lon="3.2049">
        <ele>395</ele>
        <time>2019-05-22T20:20:39Z</time>
      </trkpt>
      <trkpt lat="44.19457" lon="3.20594">
        <ele>397</ele>
        <time>2019-05-22T20:20:53Z</time>
      </trkpt>
      <trkpt lat="44.19456" lon="3.20636">
        <ele>398</ele>
        <time>2019-05-22T20:20:58Z</time>
      </trkpt>
      <trkpt lat="44.19451" lon="3.20673">
        <ele>398</ele>
        <time>2019-05-22T20:21:03Z</time>
      </trkpt>
      <trkpt lat="44.19449" lon="3.20704">
        <ele>399</ele>
        <time>2019-05-22T20:21:07Z</time>
      </trkpt>
      <trkpt lat="44.19455" lon="3.20754">
        <ele>401</ele>
        <time>2019-05-22T20:21:13Z</time>
      </trkpt>
      <trkpt lat="44.19449" lon="3.20772">
        <ele>400</ele>
        <time>2019-05-22T20:21:16Z</time>
      </trkpt>
      <trkpt lat="44.19438" lon="3.20788">
        <ele>397</ele>
        <time>2019-05-22T20:21:19Z</time>
      </trkpt>
      <trkpt lat="44.19424" lon="3.20801">
        <ele>394</ele>
        <time>2019-05-22T20:21:22Z</time>
      </trkpt>
      <trkpt lat="44.19337" lon="3.20845">
        <ele>407</ele>
        <time>2019-05-22T20:21:38Z</time>
      </trkpt>
      <trkpt lat="44.19327" lon="3.20848">
        <ele>410</ele>
        <time>2019-05-22T20:21:40Z</time>
      </trkpt>
      <trkpt lat="44.1932" lon="3.20843">
        <ele>411</ele>
        <time>2019-05-22T20:21:41Z</time>
      </trkpt>
      <trkpt lat="44.19295" lon="3.20793">
        <ele>409</ele>
        <time>2019-05-22T20:21:49Z</time>
      </trkpt>
      <trkpt lat="44.19282" lon="3.20772">
        <ele>408</ele>
        <time>2019-05-22T20:21:53Z</time>
      </trkpt>
      <trkpt lat="44.19236" lon="3.20721">
        <ele>407</ele>
        <time>2019-05-22T20:22:03Z</time>
      </trkpt>
      <trkpt lat="44.19223" lon="3.20699">
        <ele>405</ele>
        <time>2019-05-22T20:22:07Z</time>
      </trkpt>
      <trkpt lat="44.19185" lon="3.20622">
        <ele>401</ele>
        <time>2019-05-22T20:22:19Z</time>
      </trkpt>
      <trkpt lat="44.19178" lon="3.20612">
        <ele>401</ele>
        <time>2019-05-22T20:22:20Z</time>
      </trkpt>
      <trkpt lat="44.19167" lon="3.20605">
        <ele>401</ele>
        <time>2019-05-22T20:22:22Z</time>
      </trkpt>
      <trkpt lat="44.19109" lon="3.20622">
        <ele>400</ele>
        <time>2019-05-22T20:22:33Z</time>
      </trkpt>
      <trkpt lat="44.19089" lon="3.20632">
        <ele>400</ele>
        <time>2019-05-22T20:22:37Z</time>
      </trkpt>
      <trkpt lat="44.1908" lon="3.20649">
        <ele>400</ele>
        <time>2019-05-22T20:22:39Z</time>
      </trkpt>
      <trkpt lat="44.19075" lon="3.20706">
        <ele>400</ele>
        <time>2019-05-22T20:22:47Z</time>
      </trkpt>
      <trkpt lat="44.19069" lon="3.20722">
        <ele>400</ele>
        <time>2019-05-22T20:22:49Z</time>
      </trkpt>
      <trkpt lat="44.19066" lon="3.20751">
        <ele>399</ele>
        <time>2019-05-22T20:22:53Z</time>
      </trkpt>
      <trkpt lat="44.19068" lon="3.2076">
        <ele>400</ele>
        <time>2019-05-22T20:22:54Z</time>
      </trkpt>
      <trkpt lat="44.19066" lon="3.20764">
        <ele>400</ele>
        <time>2019-05-22T20:22:55Z</time>
      </trkpt>
      <trkpt lat="44.19063" lon="3.20781">
        <ele>401</ele>
        <time>2019-05-22T20:22:57Z</time>
      </trkpt>
      <trkpt lat="44.19061" lon="3.20808">
        <ele>402</ele>
        <time>2019-05-22T20:23:00Z</time>
      </trkpt>
      <trkpt lat="44.19055" lon="3.20858">
        <ele>403</ele>
        <time>2019-05-22T20:23:07Z</time>
      </trkpt>
      <trkpt lat="44.19052" lon="3.20903">
        <ele>404</ele>
        <time>2019-05-22T20:23:13Z</time>
      </trkpt>
      <trkpt lat="44.19022" lon="3.21243">
        <ele>414</ele>
        <time>2019-05-22T20:23:56Z</time>
      </trkpt>
      <trkpt lat="44.19014" lon="3.21318">
        <ele>414</ele>
        <time>2019-05-22T20:24:06Z</time>
      </trkpt>
      <trkpt lat="44.19011" lon="3.21402">
        <ele>414</ele>
        <time>2019-05-22T20:24:17Z</time>
      </trkpt>
      <trkpt lat="44.19019" lon="3.21468">
        <ele>414</ele>
        <time>2019-05-22T20:24:25Z</time>
      </trkpt>
      <trkpt lat="44.19029" lon="3.21506">
        <ele>416</ele>
        <time>2019-05-22T20:24:30Z</time>
      </trkpt>
      <trkpt lat="44.19041" lon="3.21543">
        <ele>419</ele>
        <time>2019-05-22T20:24:36Z</time>
      </trkpt>
      <trkpt lat="44.19061" lon="3.21594">
        <ele>422</ele>
        <time>2019-05-22T20:24:43Z</time>
      </trkpt>
      <trkpt lat="44.19077" lon="3.21629">
        <ele>421</ele>
        <time>2019-05-22T20:24:48Z</time>
      </trkpt>
      <trkpt lat="44.19094" lon="3.21673">
        <ele>420</ele>
        <time>2019-05-22T20:24:55Z</time>
      </trkpt>
      <trkpt lat="44.19151" lon="3.21801">
        <ele>431</ele>
        <time>2019-05-22T20:25:14Z</time>
      </trkpt>
      <trkpt lat="44.19156" lon="3.21836">
        <ele>430</ele>
        <time>2019-05-22T20:25:18Z</time>
      </trkpt>
      <trkpt lat="44.19151" lon="3.21959">
        <ele>431</ele>
        <time>2019-05-22T20:25:34Z</time>
      </trkpt>
      <trkpt lat="44.19152" lon="3.22216">
        <ele>425</ele>
        <time>2019-05-22T20:26:07Z</time>
      </trkpt>
      <trkpt lat="44.19155" lon="3.22235">
        <ele>423</ele>
        <time>2019-05-22T20:26:09Z</time>
      </trkpt>
      <trkpt lat="44.19163" lon="3.22246">
        <ele>423</ele>
        <time>2019-05-22T20:26:11Z</time>
      </trkpt>
      <trkpt lat="44.19198" lon="3.22261">
        <ele>436</ele>
        <time>2019-05-22T20:26:18Z</time>
      </trkpt>
      <trkpt lat="44.19206" lon="3.22268">
        <ele>439</ele>
        <time>2019-05-22T20:26:20Z</time>
      </trkpt>
      <trkpt lat="44.19209" lon="3.22281">
        <ele>441</ele>
        <time>2019-05-22T20:26:21Z</time>
      </trkpt>
      <trkpt lat="44.19209" lon="3.22297">
        <ele>441</ele>
        <time>2019-05-22T20:26:23Z</time>
      </trkpt>
      <trkpt lat="44.19197" lon="3.22334">
        <ele>436</ele>
        <time>2019-05-22T20:26:29Z</time>
      </trkpt>
      <trkpt lat="44.19194" lon="3.22377">
        <ele>438</ele>
        <time>2019-05-22T20:26:34Z</time>
      </trkpt>
      <trkpt lat="44.19194" lon="3.22436">
        <ele>442</ele>
        <time>2019-05-22T20:26:42Z</time>
      </trkpt>
      <trkpt lat="44.19197" lon="3.22474">
        <ele>444</ele>
        <time>2019-05-22T20:26:47Z</time>
      </trkpt>
      <trkpt lat="44.19203" lon="3.225">
        <ele>448</ele>
        <time>2019-05-22T20:26:50Z</time>
      </trkpt>
      <trkpt lat="44.19222" lon="3.22546">
        <ele>457</ele>
        <time>2019-05-22T20:26:57Z</time>
      </trkpt>
      <trkpt lat="44.19224" lon="3.2256">
        <ele>457</ele>
        <time>2019-05-22T20:26:59Z</time>
      </trkpt>
      <trkpt lat="44.19224" lon="3.22571">
        <ele>457</ele>
        <time>2019-05-22T20:27:00Z</time>
      </trkpt>
      <trkpt lat="44.1922" lon="3.22582">
        <ele>455</ele>
        <time>2019-05-22T20:27:02Z</time>
      </trkpt>
      <trkpt lat="44.1919" lon="3.2262">
        <ele>451</ele>
        <time>2019-05-22T20:27:09Z</time>
      </trkpt>
      <trkpt lat="44.19172" lon="3.22646">
        <ele>450</ele>
        <time>2019-05-22T20:27:13Z</time>
      </trkpt>
      <trkpt lat="44.19155" lon="3.22685">
        <ele>452</ele>
        <time>2019-05-22T20:27:19Z</time>
      </trkpt>
      <trkpt lat="44.19126" lon="3.22774">
        <ele>454</ele>
        <time>2019-05-22T20:27:32Z</time>
      </trkpt>
      <trkpt lat="44.19116" lon="3.22822">
        <ele>454</ele>
        <time>2019-05-22T20:27:38Z</time>
      </trkpt>
      <trkpt lat="44.19115" lon="3.22842">
        <ele>455</ele>
        <time>2019-05-22T20:27:41Z</time>
      </trkpt>
      <trkpt lat="44.19122" lon="3.22883">
        <ele>464</ele>
        <time>2019-05-22T20:27:46Z</time>
      </trkpt>
      <trkpt lat="44.19123" lon="3.22901">
        <ele>466</ele>
        <time>2019-05-22T20:27:48Z</time>
      </trkpt>
      <trkpt lat="44.19122" lon="3.22922">
        <ele>467</ele>
        <time>2019-05-22T20:27:51Z</time>
      </trkpt>
      <trkpt lat="44.19111" lon="3.23045">
        <ele>472</ele>
        <time>2019-05-22T20:28:07Z</time>
      </trkpt>
      <trkpt lat="44.19107" lon="3.23139">
        <ele>474</ele>
        <time>2019-05-22T20:28:19Z</time>
      </trkpt>
      <trkpt lat="44.19107" lon="3.23162">
        <ele>475</ele>
        <time>2019-05-22T20:28:22Z</time>
      </trkpt>
      <trkpt lat="44.1912" lon="3.23215">
        <ele>482</ele>
        <time>2019-05-22T20:28:29Z</time>
      </trkpt>
      <trkpt lat="44.19122" lon="3.2324">
        <ele>483</ele>
        <time>2019-05-22T20:28:32Z</time>
      </trkpt>
      <trkpt lat="44.19119" lon="3.23355">
        <ele>485</ele>
        <time>2019-05-22T20:28:47Z</time>
      </trkpt>
      <trkpt lat="44.19122" lon="3.23395">
        <ele>488</ele>
        <time>2019-05-22T20:28:52Z</time>
      </trkpt>
      <trkpt lat="44.1914" lon="3.23551">
        <ele>492</ele>
        <time>2019-05-22T20:29:12Z</time>
      </trkpt>
      <trkpt lat="44.19144" lon="3.23571">
        <ele>493</ele>
        <time>2019-05-22T20:29:15Z</time>
      </trkpt>
      <trkpt lat="44.19152" lon="3.23592">
        <ele>496</ele>
        <time>2019-05-22T20:29:18Z</time>
      </trkpt>
      <trkpt lat="44.19157" lon="3.23614">
        <ele>498</ele>
        <time>2019-05-22T20:29:21Z</time>
      </trkpt>
      <trkpt lat="44.1916" lon="3.23633">
        <ele>498</ele>
        <time>2019-05-22T20:29:23Z</time>
      </trkpt>
      <trkpt lat="44.1916" lon="3.23654">
        <ele>497</ele>
        <time>2019-05-22T20:29:26Z</time>
      </trkpt>
      <trkpt lat="44.19162" lon="3.23673">
        <ele>497</ele>
        <time>2019-05-22T20:29:28Z</time>
      </trkpt>
      <trkpt lat="44.19166" lon="3.23691">
        <ele>499</ele>
        <time>2019-05-22T20:29:31Z</time>
      </trkpt>
      <trkpt lat="44.1917" lon="3.23703">
        <ele>502</ele>
        <time>2019-05-22T20:29:32Z</time>
      </trkpt>
      <trkpt lat="44.19181" lon="3.23753">
        <ele>507</ele>
        <time>2019-05-22T20:29:39Z</time>
      </trkpt>
      <trkpt lat="44.19195" lon="3.23799">
        <ele>507</ele>
        <time>2019-05-22T20:29:45Z</time>
      </trkpt>
      <trkpt lat="44.192" lon="3.23846">
        <ele>501</ele>
        <time>2019-05-22T20:29:52Z</time>
      </trkpt>
      <trkpt lat="44.19204" lon="3.23862">
        <ele>501</ele>
        <time>2019-05-22T20:29:54Z</time>
      </trkpt>
      <trkpt lat="44.19211" lon="3.23884">
        <ele>501</ele>
        <time>2019-05-22T20:29:57Z</time>
      </trkpt>
      <trkpt lat="44.1923" lon="3.23927">
        <ele>503</ele>
        <time>2019-05-22T20:30:03Z</time>
      </trkpt>
      <trkpt lat="44.19245" lon="3.23954">
        <ele>505</ele>
        <time>2019-05-22T20:30:08Z</time>
      </trkpt>
      <trkpt lat="44.19259" lon="3.23975">
        <ele>507</ele>
        <time>2019-05-22T20:30:11Z</time>
      </trkpt>
      <trkpt lat="44.19291" lon="3.24007">
        <ele>516</ele>
        <time>2019-05-22T20:30:18Z</time>
      </trkpt>
      <trkpt lat="44.19306" lon="3.24026">
        <ele>519</ele>
        <time>2019-05-22T20:30:22Z</time>
      </trkpt>
      <trkpt lat="44.19319" lon="3.24048">
        <ele>520</ele>
        <time>2019-05-22T20:30:25Z</time>
      </trkpt>
      <trkpt lat="44.19344" lon="3.24101">
        <ele>517</ele>
        <time>2019-05-22T20:30:34Z</time>
      </trkpt>
      <trkpt lat="44.19358" lon="3.24118">
        <ele>518</ele>
        <time>2019-05-22T20:30:37Z</time>
      </trkpt>
      <trkpt lat="44.19377" lon="3.24134">
        <ele>521</ele>
        <time>2019-05-22T20:30:41Z</time>
      </trkpt>
      <trkpt lat="44.19411" lon="3.24159">
        <ele>528</ele>
        <time>2019-05-22T20:30:48Z</time>
      </trkpt>
      <trkpt lat="44.19451" lon="3.24197">
        <ele>536</ele>
        <time>2019-05-22T20:30:56Z</time>
      </trkpt>
      <trkpt lat="44.19474" lon="3.24224">
        <ele>541</ele>
        <time>2019-05-22T20:31:02Z</time>
      </trkpt>
      <trkpt lat="44.1949" lon="3.24254">
        <ele>542</ele>
        <time>2019-05-22T20:31:06Z</time>
      </trkpt>
      <trkpt lat="44.195" lon="3.24281">
        <ele>542</ele>
        <time>2019-05-22T20:31:10Z</time>
      </trkpt>
      <trkpt lat="44.19511" lon="3.24321">
        <ele>539</ele>
        <time>2019-05-22T20:31:16Z</time>
      </trkpt>
      <trkpt lat="44.19526" lon="3.24425">
        <ele>536</ele>
        <time>2019-05-22T20:31:29Z</time>
      </trkpt>
      <trkpt lat="44.19533" lon="3.24443">
        <ele>535</ele>
        <time>2019-05-22T20:31:32Z</time>
      </trkpt>
      <trkpt lat="44.19544" lon="3.24457">
        <ele>537</ele>
        <time>2019-05-22T20:31:35Z</time>
      </trkpt>
      <trkpt lat="44.19592" lon="3.2449">
        <ele>547</ele>
        <time>2019-05-22T20:31:44Z</time>
      </trkpt>
      <trkpt lat="44.19603" lon="3.24504">
        <ele>549</ele>
        <time>2019-05-22T20:31:47Z</time>
      </trkpt>
      <trkpt lat="44.19611" lon="3.24522">
        <ele>551</ele>
        <time>2019-05-22T20:31:49Z</time>
      </trkpt>
      <trkpt lat="44.19614" lon="3.24542">
        <ele>551</ele>
        <time>2019-05-22T20:31:52Z</time>
      </trkpt>
      <trkpt lat="44.19615" lon="3.24624">
        <ele>542</ele>
        <time>2019-05-22T20:32:02Z</time>
      </trkpt>
      <trkpt lat="44.19614" lon="3.24754">
        <ele>503</ele>
        <time>2019-05-22T20:32:19Z</time>
      </trkpt>
      <trkpt lat="44.19615" lon="3.24775">
        <ele>497</ele>
        <time>2019-05-22T20:32:22Z</time>
      </trkpt>
      <trkpt lat="44.1962" lon="3.24791">
        <ele>497</ele>
        <time>2019-05-22T20:32:24Z</time>
      </trkpt>
      <trkpt lat="44.19629" lon="3.24801">
        <ele>500</ele>
        <time>2019-05-22T20:32:26Z</time>
      </trkpt>
      <trkpt lat="44.19641" lon="3.24802">
        <ele>509</ele>
        <time>2019-05-22T20:32:28Z</time>
      </trkpt>
      <trkpt lat="44.19693" lon="3.24788">
        <ele>540</ele>
        <time>2019-05-22T20:32:38Z</time>
      </trkpt>
      <trkpt lat="44.19708" lon="3.24788">
        <ele>544</ele>
        <time>2019-05-22T20:32:40Z</time>
      </trkpt>
      <trkpt lat="44.1972" lon="3.24793">
        <ele>546</ele>
        <time>2019-05-22T20:32:42Z</time>
      </trkpt>
      <trkpt lat="44.19732" lon="3.24805">
        <ele>546</ele>
        <time>2019-05-22T20:32:45Z</time>
      </trkpt>
      <trkpt lat="44.19738" lon="3.2482">
        <ele>545</ele>
        <time>2019-05-22T20:32:47Z</time>
      </trkpt>
      <trkpt lat="44.19752" lon="3.24874">
        <ele>541</ele>
        <time>2019-05-22T20:32:55Z</time>
      </trkpt>
      <trkpt lat="44.1976" lon="3.24892">
        <ele>542</ele>
        <time>2019-05-22T20:32:57Z</time>
      </trkpt>
      <trkpt lat="44.19774" lon="3.24913">
        <ele>545</ele>
        <time>2019-05-22T20:33:01Z</time>
      </trkpt>
      <trkpt lat="44.19798" lon="3.24941">
        <ele>549</ele>
        <time>2019-05-22T20:33:07Z</time>
      </trkpt>
      <trkpt lat="44.19808" lon="3.24961">
        <ele>549</ele>
        <time>2019-05-22T20:33:10Z</time>
      </trkpt>
      <trkpt lat="44.19816" lon="3.24987">
        <ele>548</ele>
        <time>2019-05-22T20:33:13Z</time>
      </trkpt>
      <trkpt lat="44.19827" lon="3.25031">
        <ele>548</ele>
        <time>2019-05-22T20:33:19Z</time>
      </trkpt>
      <trkpt lat="44.19829" lon="3.2505">
        <ele>548</ele>
        <time>2019-05-22T20:33:22Z</time>
      </trkpt>
      <trkpt lat="44.19822" lon="3.25127">
        <ele>534</ele>
        <time>2019-05-22T20:33:32Z</time>
      </trkpt>
      <trkpt lat="44.19824" lon="3.25145">
        <ele>532</ele>
        <time>2019-05-22T20:33:34Z</time>
      </trkpt>
      <trkpt lat="44.19829" lon="3.25159">
        <ele>533</ele>
        <time>2019-05-22T20:33:36Z</time>
      </trkpt>
      <trkpt lat="44.19861" lon="3.25201">
        <ele>538</ele>
        <time>2019-05-22T20:33:44Z</time>
      </trkpt>
      <trkpt lat="44.19885" lon="3.25241">
        <ele>541</ele>
        <time>2019-05-22T20:33:50Z</time>
      </trkpt>
      <trkpt lat="44.19892" lon="3.25259">
        <ele>542</ele>
        <time>2019-05-22T20:33:53Z</time>
      </trkpt>
      <trkpt lat="44.19897" lon="3.25296">
        <ele>540</ele>
        <time>2019-05-22T20:33:58Z</time>
      </trkpt>
      <trkpt lat="44.19894" lon="3.25336">
        <ele>532</ele>
        <time>2019-05-22T20:34:03Z</time>
      </trkpt>
      <trkpt lat="44.19896" lon="3.25358">
        <ele>531</ele>
        <time>2019-05-22T20:34:06Z</time>
      </trkpt>
      <trkpt lat="44.19901" lon="3.25391">
        <ele>530</ele>
        <time>2019-05-22T20:34:10Z</time>
      </trkpt>
      <trkpt lat="44.19902" lon="3.25411">
        <ele>529</ele>
        <time>2019-05-22T20:34:13Z</time>
      </trkpt>
      <trkpt lat="44.199" lon="3.25463">
        <ele>520</ele>
        <time>2019-05-22T20:34:19Z</time>
      </trkpt>
      <trkpt lat="44.19906" lon="3.25506">
        <ele>518</ele>
        <time>2019-05-22T20:34:25Z</time>
      </trkpt>
      <trkpt lat="44.19912" lon="3.25522">
        <ele>519</ele>
        <time>2019-05-22T20:34:27Z</time>
      </trkpt>
      <trkpt lat="44.19922" lon="3.25528">
        <ele>522</ele>
        <time>2019-05-22T20:34:29Z</time>
      </trkpt>
      <trkpt lat="44.19943" lon="3.25524">
        <ele>530</ele>
        <time>2019-05-22T20:34:33Z</time>
      </trkpt>
      <trkpt lat="44.19961" lon="3.25524">
        <ele>536</ele>
        <time>2019-05-22T20:34:36Z</time>
      </trkpt>
      <trkpt lat="44.19975" lon="3.25528">
        <ele>540</ele>
        <time>2019-05-22T20:34:39Z</time>
      </trkpt>
      <trkpt lat="44.19984" lon="3.25536">
        <ele>542</ele>
        <time>2019-05-22T20:34:40Z</time>
      </trkpt>
      <trkpt lat="44.19989" lon="3.25545">
        <ele>543</ele>
        <time>2019-05-22T20:34:42Z</time>
      </trkpt>
      <trkpt lat="44.1999" lon="3.25553">
        <ele>542</ele>
        <time>2019-05-22T20:34:43Z</time>
      </trkpt>
      <trkpt lat="44.19984" lon="3.25586">
        <ele>537</ele>
        <time>2019-05-22T20:34:47Z</time>
      </trkpt>
      <trkpt lat="44.19976" lon="3.25623">
        <ele>534</ele>
        <time>2019-05-22T20:34:52Z</time>
      </trkpt>
      <trkpt lat="44.19957" lon="3.25726">
        <ele>524</ele>
        <time>2019-05-22T20:35:06Z</time>
      </trkpt>
      <trkpt lat="44.19949" lon="3.25761">
        <ele>519</ele>
        <time>2019-05-22T20:35:10Z</time>
      </trkpt>
      <trkpt lat="44.19949" lon="3.25779">
        <ele>518</ele>
        <time>2019-05-22T20:35:13Z</time>
      </trkpt>
      <trkpt lat="44.19958" lon="3.25825">
        <ele>522</ele>
        <time>2019-05-22T20:35:19Z</time>
      </trkpt>
      <trkpt lat="44.19959" lon="3.25848">
        <ele>519</ele>
        <time>2019-05-22T20:35:22Z</time>
      </trkpt>
      <trkpt lat="44.19966" lon="3.25882">
        <ele>515</ele>
        <time>2019-05-22T20:35:26Z</time>
      </trkpt>
      <trkpt lat="44.19976" lon="3.25901">
        <ele>516</ele>
        <time>2019-05-22T20:35:29Z</time>
      </trkpt>
      <trkpt lat="44.20012" lon="3.25937">
        <ele>525</ele>
        <time>2019-05-22T20:35:37Z</time>
      </trkpt>
      <trkpt lat="44.20025" lon="3.25957">
        <ele>527</ele>
        <time>2019-05-22T20:35:41Z</time>
      </trkpt>
      <trkpt lat="44.20034" lon="3.25978">
        <ele>526</ele>
        <time>2019-05-22T20:35:44Z</time>
      </trkpt>
      <trkpt lat="44.20039" lon="3.26001">
        <ele>523</ele>
        <time>2019-05-22T20:35:47Z</time>
      </trkpt>
      <trkpt lat="44.20047" lon="3.26081">
        <ele>511</ele>
        <time>2019-05-22T20:35:57Z</time>
      </trkpt>
      <trkpt lat="44.20053" lon="3.26096">
        <ele>512</ele>
        <time>2019-05-22T20:35:59Z</time>
      </trkpt>
      <trkpt lat="44.20082" lon="3.26132">
        <ele>522</ele>
        <time>2019-05-22T20:36:06Z</time>
      </trkpt>
      <trkpt lat="44.20089" lon="3.26145">
        <ele>524</ele>
        <time>2019-05-22T20:36:08Z</time>
      </trkpt>
      <trkpt lat="44.20092" lon="3.26154">
        <ele>525</ele>
        <time>2019-05-22T20:36:10Z</time>
      </trkpt>
      <trkpt lat="44.20092" lon="3.26165">
        <ele>523</ele>
        <time>2019-05-22T20:36:11Z</time>
      </trkpt>
      <trkpt lat="44.20091" lon="3.26182">
        <ele>522</ele>
        <time>2019-05-22T20:36:13Z</time>
      </trkpt>
      <trkpt lat="44.20078" lon="3.26244">
        <ele>515</ele>
        <time>2019-05-22T20:36:21Z</time>
      </trkpt>
      <trkpt lat="44.20077" lon="3.26262">
        <ele>513</ele>
        <time>2019-05-22T20:36:24Z</time>
      </trkpt>
      <trkpt lat="44.20077" lon="3.26282">
        <ele>511</ele>
        <time>2019-05-22T20:36:26Z</time>
      </trkpt>
      <trkpt lat="44.20081" lon="3.26301">
        <ele>511</ele>
        <time>2019-05-22T20:36:29Z</time>
      </trkpt>
      <trkpt lat="44.20126" lon="3.26395">
        <ele>519</ele>
        <time>2019-05-22T20:36:43Z</time>
      </trkpt>
      <trkpt lat="44.20137" lon="3.26422">
        <ele>520</ele>
        <time>2019-05-22T20:36:47Z</time>
      </trkpt>
      <trkpt lat="44.20142" lon="3.26441">
        <ele>519</ele>
        <time>2019-05-22T20:36:50Z</time>
      </trkpt>
      <trkpt lat="44.20142" lon="3.26461">
        <ele>514</ele>
        <time>2019-05-22T20:36:52Z</time>
      </trkpt>
      <trkpt lat="44.20135" lon="3.26511">
        <ele>498</ele>
        <time>2019-05-22T20:36:59Z</time>
      </trkpt>
      <trkpt lat="44.20134" lon="3.26532">
        <ele>492</ele>
        <time>2019-05-22T20:37:01Z</time>
      </trkpt>
      <trkpt lat="44.2014" lon="3.26544">
        <ele>492</ele>
        <time>2019-05-22T20:37:03Z</time>
      </trkpt>
      <trkpt lat="44.20149" lon="3.26552">
        <ele>493</ele>
        <time>2019-05-22T20:37:05Z</time>
      </trkpt>
      <trkpt lat="44.20165" lon="3.26552">
        <ele>498</ele>
        <time>2019-05-22T20:37:08Z</time>
      </trkpt>
      <trkpt lat="44.20208" lon="3.26542">
        <ele>513</ele>
        <time>2019-05-22T20:37:16Z</time>
      </trkpt>
      <trkpt lat="44.20227" lon="3.26544">
        <ele>516</ele>
        <time>2019-05-22T20:37:19Z</time>
      </trkpt>
      <trkpt lat="44.20243" lon="3.2655">
        <ele>517</ele>
        <time>2019-05-22T20:37:22Z</time>
      </trkpt>
      <trkpt lat="44.20257" lon="3.26561">
        <ele>516</ele>
        <time>2019-05-22T20:37:25Z</time>
      </trkpt>
      <trkpt lat="44.20293" lon="3.26604">
        <ele>514</ele>
        <time>2019-05-22T20:37:33Z</time>
      </trkpt>
      <trkpt lat="44.20298" lon="3.26616">
        <ele>515</ele>
        <time>2019-05-22T20:37:35Z</time>
      </trkpt>
      <trkpt lat="44.20301" lon="3.26624">
        <ele>515</ele>
        <time>2019-05-22T20:37:36Z</time>
      </trkpt>
      <trkpt lat="44.20299" lon="3.26637">
        <ele>512</ele>
        <time>2019-05-22T20:37:38Z</time>
      </trkpt>
      <trkpt lat="44.20292" lon="3.26646">
        <ele>509</ele>
        <time>2019-05-22T20:37:40Z</time>
      </trkpt>
      <trkpt lat="44.20269" lon="3.26656">
        <ele>501</ele>
        <time>2019-05-22T20:37:44Z</time>
      </trkpt>
      <trkpt lat="44.20253" lon="3.26671">
        <ele>495</ele>
        <time>2019-05-22T20:37:47Z</time>
      </trkpt>
      <trkpt lat="44.20243" lon="3.26676">
        <ele>493</ele>
        <time>2019-05-22T20:37:49Z</time>
      </trkpt>
      <trkpt lat="44.20239" lon="3.26685">
        <ele>492</ele>
        <time>2019-05-22T20:37:51Z</time>
      </trkpt>
      <trkpt lat="44.20237" lon="3.267">
        <ele>493</ele>
        <time>2019-05-22T20:37:53Z</time>
      </trkpt>
      <trkpt lat="44.20234" lon="3.26769">
        <ele>500</ele>
        <time>2019-05-22T20:38:01Z</time>
      </trkpt>
      <trkpt lat="44.20222" lon="3.26842">
        <ele>501</ele>
        <time>2019-05-22T20:38:11Z</time>
      </trkpt>
      <trkpt lat="44.20214" lon="3.26874">
        <ele>499</ele>
        <time>2019-05-22T20:38:15Z</time>
      </trkpt>
      <trkpt lat="44.20204" lon="3.26903">
        <ele>495</ele>
        <time>2019-05-22T20:38:19Z</time>
      </trkpt>
      <trkpt lat="44.20182" lon="3.27017">
        <ele>490</ele>
        <time>2019-05-22T20:38:35Z</time>
      </trkpt>
      <trkpt lat="44.20176" lon="3.27098">
        <ele>490</ele>
        <time>2019-05-22T20:38:45Z</time>
      </trkpt>
      <trkpt lat="44.20166" lon="3.27146">
        <ele>485</ele>
        <time>2019-05-22T20:38:51Z</time>
      </trkpt>
      <trkpt lat="44.20164" lon="3.27198">
        <ele>489</ele>
        <time>2019-05-22T20:38:58Z</time>
      </trkpt>
      <trkpt lat="44.20156" lon="3.27226">
        <ele>491</ele>
        <time>2019-05-22T20:39:02Z</time>
      </trkpt>
      <trkpt lat="44.20142" lon="3.27253">
        <ele>490</ele>
        <time>2019-05-22T20:39:06Z</time>
      </trkpt>
      <trkpt lat="44.20123" lon="3.27288">
        <ele>488</ele>
        <time>2019-05-22T20:39:12Z</time>
      </trkpt>
      <trkpt lat="44.20115" lon="3.27304">
        <ele>487</ele>
        <time>2019-05-22T20:39:14Z</time>
      </trkpt>
      <trkpt lat="44.20094" lon="3.27362">
        <ele>487</ele>
        <time>2019-05-22T20:39:22Z</time>
      </trkpt>
      <trkpt lat="44.20085" lon="3.27379">
        <ele>486</ele>
        <time>2019-05-22T20:39:25Z</time>
      </trkpt>
      <trkpt lat="44.20064" lon="3.274">
        <ele>486</ele>
        <time>2019-05-22T20:39:30Z</time>
      </trkpt>
      <trkpt lat="44.20056" lon="3.27414">
        <ele>486</ele>
        <time>2019-05-22T20:39:32Z</time>
      </trkpt>
      <trkpt lat="44.20052" lon="3.2743">
        <ele>486</ele>
        <time>2019-05-22T20:39:34Z</time>
      </trkpt>
      <trkpt lat="44.20054" lon="3.27547">
        <ele>492</ele>
        <time>2019-05-22T20:39:49Z</time>
      </trkpt>
      <trkpt lat="44.20066" lon="3.2759">
        <ele>494</ele>
        <time>2019-05-22T20:39:55Z</time>
      </trkpt>
      <trkpt lat="44.20068" lon="3.27611">
        <ele>494</ele>
        <time>2019-05-22T20:39:58Z</time>
      </trkpt>
      <trkpt lat="44.20064" lon="3.27628">
        <ele>492</ele>
        <time>2019-05-22T20:40:00Z</time>
      </trkpt>
      <trkpt lat="44.20061" lon="3.27658">
        <ele>490</ele>
        <time>2019-05-22T20:40:04Z</time>
      </trkpt>
      <trkpt lat="44.20063" lon="3.27682">
        <ele>489</ele>
        <time>2019-05-22T20:40:07Z</time>
      </trkpt>
      <trkpt lat="44.2007" lon="3.27704">
        <ele>487</ele>
        <time>2019-05-22T20:40:10Z</time>
      </trkpt>
      <trkpt lat="44.20079" lon="3.27719">
        <ele>485</ele>
        <time>2019-05-22T20:40:12Z</time>
      </trkpt>
      <trkpt lat="44.20096" lon="3.27737">
        <ele>490</ele>
        <time>2019-05-22T20:40:16Z</time>
      </trkpt>
      <trkpt lat="44.20115" lon="3.27752">
        <ele>499</ele>
        <time>2019-05-22T20:40:20Z</time>
      </trkpt>
      <trkpt lat="44.20145" lon="3.27786">
        <ele>508</ele>
        <time>2019-05-22T20:40:27Z</time>
      </trkpt>
      <trkpt lat="44.20163" lon="3.2782">
        <ele>503</ele>
        <time>2019-05-22T20:40:32Z</time>
      </trkpt>
      <trkpt lat="44.20171" lon="3.27839">
        <ele>500</ele>
        <time>2019-05-22T20:40:35Z</time>
      </trkpt>
      <trkpt lat="44.20179" lon="3.27875">
        <ele>498</ele>
        <time>2019-05-22T20:40:40Z</time>
      </trkpt>
      <trkpt lat="44.20184" lon="3.27886">
        <ele>499</ele>
        <time>2019-05-22T20:40:42Z</time>
      </trkpt>
      <trkpt lat="44.20195" lon="3.279">
        <ele>503</ele>
        <time>2019-05-22T20:40:44Z</time>
      </trkpt>
      <trkpt lat="44.20209" lon="3.27907">
        <ele>510</ele>
        <time>2019-05-22T20:40:47Z</time>
      </trkpt>
      <trkpt lat="44.20211" lon="3.27913">
        <ele>510</ele>
        <time>2019-05-22T20:40:48Z</time>
      </trkpt>
      <trkpt lat="44.2021" lon="3.2792">
        <ele>509</ele>
        <time>2019-05-22T20:40:49Z</time>
      </trkpt>
      <trkpt lat="44.20201" lon="3.27931">
        <ele>507</ele>
        <time>2019-05-22T20:40:51Z</time>
      </trkpt>
      <trkpt lat="44.20189" lon="3.27939">
        <ele>501</ele>
        <time>2019-05-22T20:40:53Z</time>
      </trkpt>
      <trkpt lat="44.2017" lon="3.27992">
        <ele>501</ele>
        <time>2019-05-22T20:41:01Z</time>
      </trkpt>
      <trkpt lat="44.20157" lon="3.28022">
        <ele>505</ele>
        <time>2019-05-22T20:41:05Z</time>
      </trkpt>
      <trkpt lat="44.20145" lon="3.28062">
        <ele>509</ele>
        <time>2019-05-22T20:41:11Z</time>
      </trkpt>
      <trkpt lat="44.20138" lon="3.28094">
        <ele>511</ele>
        <time>2019-05-22T20:41:15Z</time>
      </trkpt>
      <trkpt lat="44.20138" lon="3.28117">
        <ele>513</ele>
        <time>2019-05-22T20:41:18Z</time>
      </trkpt>
      <trkpt lat="44.20144" lon="3.28173">
        <ele>523</ele>
        <time>2019-05-22T20:41:25Z</time>
      </trkpt>
      <trkpt lat="44.20136" lon="3.28191">
        <ele>519</ele>
        <time>2019-05-22T20:41:28Z</time>
      </trkpt>
      <trkpt lat="44.20127" lon="3.28218">
        <ele>515</ele>
        <time>2019-05-22T20:41:32Z</time>
      </trkpt>
      <trkpt lat="44.20127" lon="3.28241">
        <ele>518</ele>
        <time>2019-05-22T20:41:35Z</time>
      </trkpt>
      <trkpt lat="44.20135" lon="3.28267">
        <ele>528</ele>
        <time>2019-05-22T20:41:38Z</time>
      </trkpt>
      <trkpt lat="44.20136" lon="3.2829">
        <ele>533</ele>
        <time>2019-05-22T20:41:41Z</time>
      </trkpt>
      <trkpt lat="44.20112" lon="3.28326">
        <ele>524</ele>
        <time>2019-05-22T20:41:47Z</time>
      </trkpt>
      <trkpt lat="44.20103" lon="3.28354">
        <ele>527</ele>
        <time>2019-05-22T20:41:51Z</time>
      </trkpt>
      <trkpt lat="44.20076" lon="3.28403">
        <ele>528</ele>
        <time>2019-05-22T20:41:59Z</time>
      </trkpt>
      <trkpt lat="44.20054" lon="3.28481">
        <ele>529</ele>
        <time>2019-05-22T20:42:10Z</time>
      </trkpt>
      <trkpt lat="44.20051" lon="3.28508">
        <ele>529</ele>
        <time>2019-05-22T20:42:13Z</time>
      </trkpt>
      <trkpt lat="44.20079" lon="3.28617">
        <ele>540</ele>
        <time>2019-05-22T20:42:28Z</time>
      </trkpt>
      <trkpt lat="44.20089" lon="3.28686">
        <ele>545</ele>
        <time>2019-05-22T20:42:37Z</time>
      </trkpt>
      <trkpt lat="44.20085" lon="3.2879">
        <ele>536</ele>
        <time>2019-05-22T20:42:50Z</time>
      </trkpt>
      <trkpt lat="44.201" lon="3.2882">
        <ele>536</ele>
        <time>2019-05-22T20:42:55Z</time>
      </trkpt>
      <trkpt lat="44.20121" lon="3.28841">
        <ele>538</ele>
        <time>2019-05-22T20:43:00Z</time>
      </trkpt>
      <trkpt lat="44.20155" lon="3.28855">
        <ele>542</ele>
        <time>2019-05-22T20:43:06Z</time>
      </trkpt>
      <trkpt lat="44.20183" lon="3.28856">
        <ele>547</ele>
        <time>2019-05-22T20:43:11Z</time>
      </trkpt>
      <trkpt lat="44.2023" lon="3.28829">
        <ele>566</ele>
        <time>2019-05-22T20:43:20Z</time>
      </trkpt>
      <trkpt lat="44.20303" lon="3.2884">
        <ele>569</ele>
        <time>2019-05-22T20:43:33Z</time>
      </trkpt>
      <trkpt lat="44.20362" lon="3.2886">
        <ele>567</ele>
        <time>2019-05-22T20:43:44Z</time>
      </trkpt>
      <trkpt lat="44.2039" lon="3.28861">
        <ele>572</ele>
        <time>2019-05-22T20:43:49Z</time>
      </trkpt>
      <trkpt lat="44.20427" lon="3.28877">
        <ele>571</ele>
        <time>2019-05-22T20:43:56Z</time>
      </trkpt>
      <trkpt lat="44.20444" lon="3.28882">
        <ele>570</ele>
        <time>2019-05-22T20:43:59Z</time>
      </trkpt>
      <trkpt lat="44.20466" lon="3.28878">
        <ele>573</ele>
        <time>2019-05-22T20:44:03Z</time>
      </trkpt>
      <trkpt lat="44.20494" lon="3.28884">
        <ele>571</ele>
        <time>2019-05-22T20:44:08Z</time>
      </trkpt>
      <trkpt lat="44.20526" lon="3.28874">
        <ele>576</ele>
        <time>2019-05-22T20:44:14Z</time>
      </trkpt>
      <trkpt lat="44.20558" lon="3.28856">
        <ele>585</ele>
        <time>2019-05-22T20:44:20Z</time>
      </trkpt>
      <trkpt lat="44.20581" lon="3.28835">
        <ele>596</ele>
        <time>2019-05-22T20:44:25Z</time>
      </trkpt>
      <trkpt lat="44.20591" lon="3.28835">
        <ele>596</ele>
        <time>2019-05-22T20:44:27Z</time>
      </trkpt>
      <trkpt lat="44.20624" lon="3.28856">
        <ele>587</ele>
        <time>2019-05-22T20:44:33Z</time>
      </trkpt>
      <trkpt lat="44.20633" lon="3.28858">
        <ele>586</ele>
        <time>2019-05-22T20:44:35Z</time>
      </trkpt>
      <trkpt lat="44.2065" lon="3.28857">
        <ele>587</ele>
        <time>2019-05-22T20:44:38Z</time>
      </trkpt>
      <trkpt lat="44.20697" lon="3.28846">
        <ele>597</ele>
        <time>2019-05-22T20:44:46Z</time>
      </trkpt>
      <trkpt lat="44.20707" lon="3.28846">
        <ele>599</ele>
        <time>2019-05-22T20:44:48Z</time>
      </trkpt>
      <trkpt lat="44.20722" lon="3.28852">
        <ele>598</ele>
        <time>2019-05-22T20:44:51Z</time>
      </trkpt>
      <trkpt lat="44.20732" lon="3.28853">
        <ele>599</ele>
        <time>2019-05-22T20:44:52Z</time>
      </trkpt>
      <trkpt lat="44.20762" lon="3.28847">
        <ele>609</ele>
        <time>2019-05-22T20:44:58Z</time>
      </trkpt>
      <trkpt lat="44.20773" lon="3.28851">
        <ele>610</ele>
        <time>2019-05-22T20:45:00Z</time>
      </trkpt>
      <trkpt lat="44.20788" lon="3.28867">
        <ele>605</ele>
        <time>2019-05-22T20:45:03Z</time>
      </trkpt>
      <trkpt lat="44.2085" lon="3.28895">
        <ele>603</ele>
        <time>2019-05-22T20:45:15Z</time>
      </trkpt>
      <trkpt lat="44.20863" lon="3.28896">
        <ele>606</ele>
        <time>2019-05-22T20:45:17Z</time>
      </trkpt>
      <trkpt lat="44.20894" lon="3.28885">
        <ele>622</ele>
        <time>2019-05-22T20:45:23Z</time>
      </trkpt>
      <trkpt lat="44.20901" lon="3.28887">
        <ele>622</ele>
        <time>2019-05-22T20:45:24Z</time>
      </trkpt>
      <trkpt lat="44.20913" lon="3.28898">
        <ele>618</ele>
        <time>2019-05-22T20:45:27Z</time>
      </trkpt>
      <trkpt lat="44.20931" lon="3.28921">
        <ele>613</ele>
        <time>2019-05-22T20:45:31Z</time>
      </trkpt>
      <trkpt lat="44.20958" lon="3.28933">
        <ele>622</ele>
        <time>2019-05-22T20:45:36Z</time>
      </trkpt>
      <trkpt lat="44.20965" lon="3.2894">
        <ele>623</ele>
        <time>2019-05-22T20:45:38Z</time>
      </trkpt>
      <trkpt lat="44.21009" lon="3.29024">
        <ele>612</ele>
        <time>2019-05-22T20:45:51Z</time>
      </trkpt>
      <trkpt lat="44.21017" lon="3.29032">
        <ele>611</ele>
        <time>2019-05-22T20:45:53Z</time>
      </trkpt>
      <trkpt lat="44.21029" lon="3.29037">
        <ele>612</ele>
        <time>2019-05-22T20:45:55Z</time>
      </trkpt>
      <trkpt lat="44.2104" lon="3.29038">
        <ele>614</ele>
        <time>2019-05-22T20:45:57Z</time>
      </trkpt>
      <trkpt lat="44.21057" lon="3.29028">
        <ele>621</ele>
        <time>2019-05-22T20:46:00Z</time>
      </trkpt>
      <trkpt lat="44.21091" lon="3.29016">
        <ele>632</ele>
        <time>2019-05-22T20:46:06Z</time>
      </trkpt>
      <trkpt lat="44.21128" lon="3.29014">
        <ele>637</ele>
        <time>2019-05-22T20:46:13Z</time>
      </trkpt>
      <trkpt lat="44.21137" lon="3.29018">
        <ele>636</ele>
        <time>2019-05-22T20:46:15Z</time>
      </trkpt>
      <trkpt lat="44.21169" lon="3.29056">
        <ele>628</ele>
        <time>2019-05-22T20:46:22Z</time>
      </trkpt>
      <trkpt lat="44.21188" lon="3.29075">
        <ele>626</ele>
        <time>2019-05-22T20:46:26Z</time>
      </trkpt>
      <trkpt lat="44.21197" lon="3.29077">
        <ele>627</ele>
        <time>2019-05-22T20:46:28Z</time>
      </trkpt>
      <trkpt lat="44.21203" lon="3.29075">
        <ele>628</ele>
        <time>2019-05-22T20:46:29Z</time>
      </trkpt>
      <trkpt lat="44.21209" lon="3.29069">
        <ele>631</ele>
        <time>2019-05-22T20:46:30Z</time>
      </trkpt>
      <trkpt lat="44.21247" lon="3.29023">
        <ele>644</ele>
        <time>2019-05-22T20:46:39Z</time>
      </trkpt>
      <trkpt lat="44.21283" lon="3.29009">
        <ele>646</ele>
        <time>2019-05-22T20:46:46Z</time>
      </trkpt>
      <trkpt lat="44.21328" lon="3.29013">
        <ele>647</ele>
        <time>2019-05-22T20:46:54Z</time>
      </trkpt>
      <trkpt lat="44.21357" lon="3.29012">
        <ele>652</ele>
        <time>2019-05-22T20:46:59Z</time>
      </trkpt>
      <trkpt lat="44.21365" lon="3.29016">
        <ele>654</ele>
        <time>2019-05-22T20:47:01Z</time>
      </trkpt>
      <trkpt lat="44.21372" lon="3.29026">
        <ele>654</ele>
        <time>2019-05-22T20:47:02Z</time>
      </trkpt>
      <trkpt lat="44.21379" lon="3.29045">
        <ele>653</ele>
        <time>2019-05-22T20:47:05Z</time>
      </trkpt>
      <trkpt lat="44.21394" lon="3.29067">
        <ele>652</ele>
        <time>2019-05-22T20:47:09Z</time>
      </trkpt>
      <trkpt lat="44.21406" lon="3.29074">
        <ele>652</ele>
        <time>2019-05-22T20:47:11Z</time>
      </trkpt>
      <trkpt lat="44.2141" lon="3.29074">
        <ele>652</ele>
        <time>2019-05-22T20:47:12Z</time>
      </trkpt>
      <trkpt lat="44.21414" lon="3.29071">
        <ele>653</ele>
        <time>2019-05-22T20:47:13Z</time>
      </trkpt>
      <trkpt lat="44.21415" lon="3.29064">
        <ele>655</ele>
        <time>2019-05-22T20:47:14Z</time>
      </trkpt>
      <trkpt lat="44.21412" lon="3.29057">
        <ele>656</ele>
        <time>2019-05-22T20:47:15Z</time>
      </trkpt>
      <trkpt lat="44.214" lon="3.29054">
        <ele>655</ele>
        <time>2019-05-22T20:47:17Z</time>
      </trkpt>
      <trkpt lat="44.21389" lon="3.29045">
        <ele>655</ele>
        <time>2019-05-22T20:47:19Z</time>
      </trkpt>
      <trkpt lat="44.21378" lon="3.29018">
        <ele>656</ele>
        <time>2019-05-22T20:47:23Z</time>
      </trkpt>
      <trkpt lat="44.21373" lon="3.2901">
        <ele>656</ele>
        <time>2019-05-22T20:47:24Z</time>
      </trkpt>
      <trkpt lat="44.21362" lon="3.29001">
        <ele>654</ele>
        <time>2019-05-22T20:47:27Z</time>
      </trkpt>
      <trkpt lat="44.21326" lon="3.28978">
        <ele>657</ele>
        <time>2019-05-22T20:47:34Z</time>
      </trkpt>
      <trkpt lat="44.21295" lon="3.28969">
        <ele>660</ele>
        <time>2019-05-22T20:47:39Z</time>
      </trkpt>
      <trkpt lat="44.2128" lon="3.28967">
        <ele>661</ele>
        <time>2019-05-22T20:47:42Z</time>
      </trkpt>
      <trkpt lat="44.21228" lon="3.28982">
        <ele>654</ele>
        <time>2019-05-22T20:47:52Z</time>
      </trkpt>
      <trkpt lat="44.21211" lon="3.28984">
        <ele>652</ele>
        <time>2019-05-22T20:47:55Z</time>
      </trkpt>
      <trkpt lat="44.21195" lon="3.28979">
        <ele>654</ele>
        <time>2019-05-22T20:47:57Z</time>
      </trkpt>
      <trkpt lat="44.21178" lon="3.28968">
        <ele>658</ele>
        <time>2019-05-22T20:48:01Z</time>
      </trkpt>
      <trkpt lat="44.21173" lon="3.28963">
        <ele>660</ele>
        <time>2019-05-22T20:48:02Z</time>
      </trkpt>
      <trkpt lat="44.21172" lon="3.28957">
        <ele>663</ele>
        <time>2019-05-22T20:48:03Z</time>
      </trkpt>
      <trkpt lat="44.21174" lon="3.2895">
        <ele>666</ele>
        <time>2019-05-22T20:48:04Z</time>
      </trkpt>
      <trkpt lat="44.21181" lon="3.28949">
        <ele>666</ele>
        <time>2019-05-22T20:48:05Z</time>
      </trkpt>
      <trkpt lat="44.21196" lon="3.28965">
        <ele>660</ele>
        <time>2019-05-22T20:48:08Z</time>
      </trkpt>
      <trkpt lat="44.21207" lon="3.2897">
        <ele>658</ele>
        <time>2019-05-22T20:48:10Z</time>
      </trkpt>
      <trkpt lat="44.21221" lon="3.28969">
        <ele>659</ele>
        <time>2019-05-22T20:48:13Z</time>
      </trkpt>
      <trkpt lat="44.21233" lon="3.28964">
        <ele>661</ele>
        <time>2019-05-22T20:48:15Z</time>
      </trkpt>
      <trkpt lat="44.21279" lon="3.28935">
        <ele>674</ele>
        <time>2019-05-22T20:48:24Z</time>
      </trkpt>
      <trkpt lat="44.21287" lon="3.28932">
        <ele>675</ele>
        <time>2019-05-22T20:48:26Z</time>
      </trkpt>
      <trkpt lat="44.21356" lon="3.28931">
        <ele>681</ele>
        <time>2019-05-22T20:48:38Z</time>
      </trkpt>
      <trkpt lat="44.21369" lon="3.28934">
        <ele>682</ele>
        <time>2019-05-22T20:48:40Z</time>
      </trkpt>
      <trkpt lat="44.2138" lon="3.2894">
        <ele>682</ele>
        <time>2019-05-22T20:48:42Z</time>
      </trkpt>
      <trkpt lat="44.214" lon="3.28961">
        <ele>678</ele>
        <time>2019-05-22T20:48:47Z</time>
      </trkpt>
      <trkpt lat="44.2141" lon="3.28968">
        <ele>677</ele>
        <time>2019-05-22T20:48:49Z</time>
      </trkpt>
      <trkpt lat="44.21425" lon="3.28972">
        <ele>680</ele>
        <time>2019-05-22T20:48:51Z</time>
      </trkpt>
      <trkpt lat="44.21449" lon="3.28966">
        <ele>687</ele>
        <time>2019-05-22T20:48:56Z</time>
      </trkpt>
      <trkpt lat="44.21473" lon="3.28954">
        <ele>695</ele>
        <time>2019-05-22T20:49:00Z</time>
      </trkpt>
      <trkpt lat="44.21481" lon="3.28953">
        <ele>697</ele>
        <time>2019-05-22T20:49:02Z</time>
      </trkpt>
      <trkpt lat="44.21487" lon="3.28954">
        <ele>698</ele>
        <time>2019-05-22T20:49:03Z</time>
      </trkpt>
      <trkpt lat="44.21494" lon="3.28961">
        <ele>699</ele>
        <time>2019-05-22T20:49:04Z</time>
      </trkpt>
      <trkpt lat="44.21497" lon="3.28968">
        <ele>699</ele>
        <time>2019-05-22T20:49:05Z</time>
      </trkpt>
      <trkpt lat="44.21498" lon="3.28976">
        <ele>698</ele>
        <time>2019-05-22T20:49:06Z</time>
      </trkpt>
      <trkpt lat="44.21498" lon="3.29044">
        <ele>689</ele>
        <time>2019-05-22T20:49:15Z</time>
      </trkpt>
      <trkpt lat="44.21499" lon="3.29058">
        <ele>687</ele>
        <time>2019-05-22T20:49:17Z</time>
      </trkpt>
      <trkpt lat="44.21502" lon="3.29067">
        <ele>687</ele>
        <time>2019-05-22T20:49:18Z</time>
      </trkpt>
      <trkpt lat="44.21508" lon="3.29076">
        <ele>689</ele>
        <time>2019-05-22T20:49:20Z</time>
      </trkpt>
      <trkpt lat="44.21527" lon="3.29097">
        <ele>695</ele>
        <time>2019-05-22T20:49:24Z</time>
      </trkpt>
      <trkpt lat="44.21566" lon="3.29131">
        <ele>706</ele>
        <time>2019-05-22T20:49:32Z</time>
      </trkpt>
      <trkpt lat="44.21579" lon="3.29149">
        <ele>708</ele>
        <time>2019-05-22T20:49:35Z</time>
      </trkpt>
      <trkpt lat="44.21587" lon="3.29167">
        <ele>708</ele>
        <time>2019-05-22T20:49:38Z</time>
      </trkpt>
      <trkpt lat="44.21592" lon="3.29184">
        <ele>707</ele>
        <time>2019-05-22T20:49:40Z</time>
      </trkpt>
      <trkpt lat="44.21595" lon="3.29207">
        <ele>703</ele>
        <time>2019-05-22T20:49:43Z</time>
      </trkpt>
      <trkpt lat="44.21596" lon="3.29241">
        <ele>697</ele>
        <time>2019-05-22T20:49:48Z</time>
      </trkpt>
      <trkpt lat="44.21598" lon="3.2925">
        <ele>696</ele>
        <time>2019-05-22T20:49:49Z</time>
      </trkpt>
      <trkpt lat="44.21607" lon="3.29259">
        <ele>697</ele>
        <time>2019-05-22T20:49:51Z</time>
      </trkpt>
      <trkpt lat="44.21644" lon="3.29283">
        <ele>703</ele>
        <time>2019-05-22T20:49:58Z</time>
      </trkpt>
      <trkpt lat="44.21672" lon="3.29293">
        <ele>706</ele>
        <time>2019-05-22T20:50:03Z</time>
      </trkpt>
      <trkpt lat="44.21682" lon="3.29292">
        <ele>706</ele>
        <time>2019-05-22T20:50:05Z</time>
      </trkpt>
      <trkpt lat="44.21692" lon="3.29286">
        <ele>708</ele>
        <time>2019-05-22T20:50:07Z</time>
      </trkpt>
      <trkpt lat="44.21714" lon="3.29263">
        <ele>713</ele>
        <time>2019-05-22T20:50:12Z</time>
      </trkpt>
      <trkpt lat="44.21737" lon="3.29248">
        <ele>716</ele>
        <time>2019-05-22T20:50:17Z</time>
      </trkpt>
      <trkpt lat="44.21824" lon="3.29213">
        <ele>727</ele>
        <time>2019-05-22T20:50:33Z</time>
      </trkpt>
      <trkpt lat="44.21895" lon="3.29208">
        <ele>731</ele>
        <time>2019-05-22T20:50:45Z</time>
      </trkpt>
      <trkpt lat="44.21906" lon="3.29209">
        <ele>731</ele>
        <time>2019-05-22T20:50:47Z</time>
      </trkpt>
      <trkpt lat="44.21925" lon="3.29219">
        <ele>731</ele>
        <time>2019-05-22T20:50:51Z</time>
      </trkpt>
      <trkpt lat="44.21961" lon="3.29248">
        <ele>731</ele>
        <time>2019-05-22T20:50:58Z</time>
      </trkpt>
      <trkpt lat="44.21969" lon="3.29258">
        <ele>732</ele>
        <time>2019-05-22T20:51:00Z</time>
      </trkpt>
      <trkpt lat="44.21982" lon="3.29278">
        <ele>732</ele>
        <time>2019-05-22T20:51:04Z</time>
      </trkpt>
      <trkpt lat="44.21998" lon="3.29295">
        <ele>732</ele>
        <time>2019-05-22T20:51:07Z</time>
      </trkpt>
      <trkpt lat="44.21998" lon="3.29295">
        <ele>732</ele>
        <time>2019-05-22T20:51:07Z</time>
      </trkpt>
      <trkpt lat="44.22019" lon="3.29318">
        <ele>734</ele>
        <time>2019-05-22T20:51:12Z</time>
      </trkpt>
      <trkpt lat="44.22061" lon="3.29373">
        <ele>737</ele>
        <time>2019-05-22T20:51:22Z</time>
      </trkpt>
      <trkpt lat="44.22076" lon="3.29387">
        <ele>737</ele>
        <time>2019-05-22T20:51:25Z</time>
      </trkpt>
      <trkpt lat="44.22091" lon="3.29396">
        <ele>736</ele>
        <time>2019-05-22T20:51:28Z</time>
      </trkpt>
      <trkpt lat="44.22102" lon="3.29401">
        <ele>735</ele>
        <time>2019-05-22T20:51:30Z</time>
      </trkpt>
      <trkpt lat="44.22116" lon="3.29403">
        <ele>736</ele>
        <time>2019-05-22T20:51:33Z</time>
      </trkpt>
      <trkpt lat="44.2218" lon="3.29397">
        <ele>744</ele>
        <time>2019-05-22T20:51:44Z</time>
      </trkpt>
      <trkpt lat="44.22192" lon="3.29399">
        <ele>745</ele>
        <time>2019-05-22T20:51:46Z</time>
      </trkpt>
      <trkpt lat="44.22225" lon="3.29413">
        <ele>743</ele>
        <time>2019-05-22T20:51:53Z</time>
      </trkpt>
      <trkpt lat="44.22259" lon="3.29422">
        <ele>745</ele>
        <time>2019-05-22T20:51:59Z</time>
      </trkpt>
      <trkpt lat="44.22274" lon="3.2942">
        <ele>746</ele>
        <time>2019-05-22T20:52:01Z</time>
      </trkpt>
      <trkpt lat="44.22288" lon="3.2941">
        <ele>750</ele>
        <time>2019-05-22T20:52:04Z</time>
      </trkpt>
      <trkpt lat="44.22328" lon="3.29366">
        <ele>763</ele>
        <time>2019-05-22T20:52:13Z</time>
      </trkpt>
      <trkpt lat="44.22337" lon="3.29363">
        <ele>764</ele>
        <time>2019-05-22T20:52:15Z</time>
      </trkpt>
      <trkpt lat="44.22342" lon="3.29365">
        <ele>763</ele>
        <time>2019-05-22T20:52:16Z</time>
      </trkpt>
      <trkpt lat="44.22347" lon="3.29372">
        <ele>762</ele>
        <time>2019-05-22T20:52:17Z</time>
      </trkpt>
      <trkpt lat="44.22349" lon="3.29378">
        <ele>761</ele>
        <time>2019-05-22T20:52:18Z</time>
      </trkpt>
      <trkpt lat="44.22346" lon="3.29396">
        <ele>758</ele>
        <time>2019-05-22T20:52:20Z</time>
      </trkpt>
      <trkpt lat="44.22333" lon="3.29433">
        <ele>753</ele>
        <time>2019-05-22T20:52:26Z</time>
      </trkpt>
      <trkpt lat="44.22309" lon="3.29489">
        <ele>751</ele>
        <time>2019-05-22T20:52:34Z</time>
      </trkpt>
      <trkpt lat="44.22308" lon="3.29499">
        <ele>751</ele>
        <time>2019-05-22T20:52:35Z</time>
      </trkpt>
      <trkpt lat="44.2231" lon="3.29512">
        <ele>752</ele>
        <time>2019-05-22T20:52:37Z</time>
      </trkpt>
      <trkpt lat="44.22327" lon="3.29561">
        <ele>756</ele>
        <time>2019-05-22T20:52:44Z</time>
      </trkpt>
      <trkpt lat="44.22336" lon="3.29591">
        <ele>757</ele>
        <time>2019-05-22T20:52:48Z</time>
      </trkpt>
      <trkpt lat="44.22342" lon="3.29617">
        <ele>758</ele>
        <time>2019-05-22T20:52:51Z</time>
      </trkpt>
      <trkpt lat="44.22354" lon="3.29639">
        <ele>760</ele>
        <time>2019-05-22T20:52:55Z</time>
      </trkpt>
      <trkpt lat="44.22383" lon="3.29674">
        <ele>769</ele>
        <time>2019-05-22T20:53:02Z</time>
      </trkpt>
      <trkpt lat="44.2239" lon="3.29687">
        <ele>770</ele>
        <time>2019-05-22T20:53:04Z</time>
      </trkpt>
      <trkpt lat="44.22407" lon="3.29733">
        <ele>770</ele>
        <time>2019-05-22T20:53:10Z</time>
      </trkpt>
      <trkpt lat="44.22415" lon="3.29765">
        <ele>769</ele>
        <time>2019-05-22T20:53:15Z</time>
      </trkpt>
      <trkpt lat="44.22421" lon="3.29816">
        <ele>771</ele>
        <time>2019-05-22T20:53:21Z</time>
      </trkpt>
      <trkpt lat="44.2242" lon="3.29828">
        <ele>771</ele>
        <time>2019-05-22T20:53:23Z</time>
      </trkpt>
      <trkpt lat="44.22416" lon="3.29859">
        <ele>770</ele>
        <time>2019-05-22T20:53:27Z</time>
      </trkpt>
      <trkpt lat="44.22417" lon="3.2987">
        <ele>771</ele>
        <time>2019-05-22T20:53:28Z</time>
      </trkpt>
      <trkpt lat="44.22419" lon="3.29885">
        <ele>773</ele>
        <time>2019-05-22T20:53:30Z</time>
      </trkpt>
      <trkpt lat="44.22438" lon="3.29953">
        <ele>782</ele>
        <time>2019-05-22T20:53:40Z</time>
      </trkpt>
      <trkpt lat="44.22442" lon="3.29971">
        <ele>784</ele>
        <time>2019-05-22T20:53:42Z</time>
      </trkpt>
      <trkpt lat="44.22442" lon="3.29984">
        <ele>784</ele>
        <time>2019-05-22T20:53:44Z</time>
      </trkpt>
      <trkpt lat="44.2244" lon="3.30006">
        <ele>784</ele>
        <time>2019-05-22T20:53:46Z</time>
      </trkpt>
      <trkpt lat="44.2243" lon="3.30032">
        <ele>782</ele>
        <time>2019-05-22T20:53:50Z</time>
      </trkpt>
      <trkpt lat="44.22428" lon="3.30052">
        <ele>782</ele>
        <time>2019-05-22T20:53:53Z</time>
      </trkpt>
      <trkpt lat="44.22438" lon="3.30134">
        <ele>789</ele>
        <time>2019-05-22T20:54:03Z</time>
      </trkpt>
      <trkpt lat="44.22439" lon="3.30155">
        <ele>791</ele>
        <time>2019-05-22T20:54:06Z</time>
      </trkpt>
      <trkpt lat="44.22438" lon="3.30186">
        <ele>792</ele>
        <time>2019-05-22T20:54:10Z</time>
      </trkpt>
      <trkpt lat="44.22428" lon="3.3026">
        <ele>791</ele>
        <time>2019-05-22T20:54:20Z</time>
      </trkpt>
      <trkpt lat="44.22429" lon="3.303">
        <ele>794</ele>
        <time>2019-05-22T20:54:25Z</time>
      </trkpt>
      <trkpt lat="44.22433" lon="3.3032">
        <ele>797</ele>
        <time>2019-05-22T20:54:27Z</time>
      </trkpt>
      <trkpt lat="44.22452" lon="3.30385">
        <ele>806</ele>
        <time>2019-05-22T20:54:36Z</time>
      </trkpt>
      <trkpt lat="44.2246" lon="3.30431">
        <ele>809</ele>
        <time>2019-05-22T20:54:42Z</time>
      </trkpt>
      <trkpt lat="44.22476" lon="3.30529">
        <ele>813</ele>
        <time>2019-05-22T20:54:55Z</time>
      </trkpt>
      <trkpt lat="44.22484" lon="3.30612">
        <ele>815</ele>
        <time>2019-05-22T20:55:06Z</time>
      </trkpt>
      <trkpt lat="44.22484" lon="3.30632">
        <ele>816</ele>
        <time>2019-05-22T20:55:08Z</time>
      </trkpt>
      <trkpt lat="44.22482" lon="3.30659">
        <ele>816</ele>
        <time>2019-05-22T20:55:12Z</time>
      </trkpt>
      <trkpt lat="44.22471" lon="3.3072">
        <ele>821</ele>
        <time>2019-05-22T20:55:20Z</time>
      </trkpt>
      <trkpt lat="44.22464" lon="3.30743">
        <ele>821</ele>
        <time>2019-05-22T20:55:23Z</time>
      </trkpt>
      <trkpt lat="44.22446" lon="3.30786">
        <ele>820</ele>
        <time>2019-05-22T20:55:29Z</time>
      </trkpt>
      <trkpt lat="44.22437" lon="3.30802">
        <ele>819</ele>
        <time>2019-05-22T20:55:32Z</time>
      </trkpt>
      <trkpt lat="44.22418" lon="3.30825">
        <ele>815</ele>
        <time>2019-05-22T20:55:37Z</time>
      </trkpt>
      <trkpt lat="44.22413" lon="3.30835">
        <ele>815</ele>
        <time>2019-05-22T20:55:38Z</time>
      </trkpt>
      <trkpt lat="44.22408" lon="3.30849">
        <ele>817</ele>
        <time>2019-05-22T20:55:40Z</time>
      </trkpt>
      <trkpt lat="44.22398" lon="3.30887">
        <ele>820</ele>
        <time>2019-05-22T20:55:45Z</time>
      </trkpt>
      <trkpt lat="44.2239" lon="3.3093">
        <ele>821</ele>
        <time>2019-05-22T20:55:51Z</time>
      </trkpt>
      <trkpt lat="44.22388" lon="3.30957">
        <ele>821</ele>
        <time>2019-05-22T20:55:54Z</time>
      </trkpt>
      <trkpt lat="44.22389" lon="3.30982">
        <ele>820</ele>
        <time>2019-05-22T20:55:58Z</time>
      </trkpt>
      <trkpt lat="44.22392" lon="3.30999">
        <ele>821</ele>
        <time>2019-05-22T20:56:00Z</time>
      </trkpt>
      <trkpt lat="44.224" lon="3.31018">
        <ele>820</ele>
        <time>2019-05-22T20:56:03Z</time>
      </trkpt>
      <trkpt lat="44.22438" lon="3.31071">
        <ele>822</ele>
        <time>2019-05-22T20:56:12Z</time>
      </trkpt>
      <trkpt lat="44.22459" lon="3.31107">
        <ele>824</ele>
        <time>2019-05-22T20:56:18Z</time>
      </trkpt>
      <trkpt lat="44.22477" lon="3.31171">
        <ele>823</ele>
        <time>2019-05-22T20:56:27Z</time>
      </trkpt>
      <trkpt lat="44.22484" lon="3.31184">
        <ele>823</ele>
        <time>2019-05-22T20:56:29Z</time>
      </trkpt>
      <trkpt lat="44.22493" lon="3.31195">
        <ele>824</ele>
        <time>2019-05-22T20:56:31Z</time>
      </trkpt>
      <trkpt lat="44.22506" lon="3.31206">
        <ele>824</ele>
        <time>2019-05-22T20:56:34Z</time>
      </trkpt>
      <trkpt lat="44.22567" lon="3.31252">
        <ele>828</ele>
        <time>2019-05-22T20:56:46Z</time>
      </trkpt>
      <trkpt lat="44.22615" lon="3.31298">
        <ele>830</ele>
        <time>2019-05-22T20:56:56Z</time>
      </trkpt>
      <trkpt lat="44.22653" lon="3.31329">
        <ele>828</ele>
        <time>2019-05-22T20:57:04Z</time>
      </trkpt>
      <trkpt lat="44.22674" lon="3.31335">
        <ele>828</ele>
        <time>2019-05-22T20:57:08Z</time>
      </trkpt>
      <trkpt lat="44.2271" lon="3.31328">
        <ele>831</ele>
        <time>2019-05-22T20:57:15Z</time>
      </trkpt>
      <trkpt lat="44.22727" lon="3.31328">
        <ele>832</ele>
        <time>2019-05-22T20:57:18Z</time>
      </trkpt>
      <trkpt lat="44.22748" lon="3.31331">
        <ele>832</ele>
        <time>2019-05-22T20:57:21Z</time>
      </trkpt>
      <trkpt lat="44.22814" lon="3.31351">
        <ele>836</ele>
        <time>2019-05-22T20:57:33Z</time>
      </trkpt>
      <trkpt lat="44.22918" lon="3.31412">
        <ele>835</ele>
        <time>2019-05-22T20:57:53Z</time>
      </trkpt>
      <trkpt lat="44.22951" lon="3.31434">
        <ele>836</ele>
        <time>2019-05-22T20:58:00Z</time>
      </trkpt>
      <trkpt lat="44.23031" lon="3.31482">
        <ele>837</ele>
        <time>2019-05-22T20:58:15Z</time>
      </trkpt>
      <trkpt lat="44.23058" lon="3.31495">
        <ele>836</ele>
        <time>2019-05-22T20:58:20Z</time>
      </trkpt>
      <trkpt lat="44.23083" lon="3.315">
        <ele>836</ele>
        <time>2019-05-22T20:58:25Z</time>
      </trkpt>
      <trkpt lat="44.23297" lon="3.3149">
        <ele>845</ele>
        <time>2019-05-22T20:59:03Z</time>
      </trkpt>
      <trkpt lat="44.23316" lon="3.31494">
        <ele>846</ele>
        <time>2019-05-22T20:59:07Z</time>
      </trkpt>
      <trkpt lat="44.23338" lon="3.31507">
        <ele>847</ele>
        <time>2019-05-22T20:59:11Z</time>
      </trkpt>
      <trkpt lat="44.23586" lon="3.31691">
        <ele>858</ele>
        <time>2019-05-22T21:00:01Z</time>
      </trkpt>
      <trkpt lat="44.23604" lon="3.31711">
        <ele>860</ele>
        <time>2019-05-22T21:00:05Z</time>
      </trkpt>
      <trkpt lat="44.23658" lon="3.31802">
        <ele>865</ele>
        <time>2019-05-22T21:00:20Z</time>
      </trkpt>
      <trkpt lat="44.23666" lon="3.31819">
        <ele>866</ele>
        <time>2019-05-22T21:00:22Z</time>
      </trkpt>
      <trkpt lat="44.23686" lon="3.31849">
        <ele>867</ele>
        <time>2019-05-22T21:00:28Z</time>
      </trkpt>
      <trkpt lat="44.23706" lon="3.31887">
        <ele>869</ele>
        <time>2019-05-22T21:00:34Z</time>
      </trkpt>
      <trkpt lat="44.23745" lon="3.31981">
        <ele>874</ele>
        <time>2019-05-22T21:00:48Z</time>
      </trkpt>
      <trkpt lat="44.23766" lon="3.32041">
        <ele>878</ele>
        <time>2019-05-22T21:00:56Z</time>
      </trkpt>
      <trkpt lat="44.23801" lon="3.32207">
        <ele>885</ele>
        <time>2019-05-22T21:01:18Z</time>
      </trkpt>
      <trkpt lat="44.23805" lon="3.32233">
        <ele>886</ele>
        <time>2019-05-22T21:01:22Z</time>
      </trkpt>
      <trkpt lat="44.23816" lon="3.32317">
        <ele>888</ele>
        <time>2019-05-22T21:01:32Z</time>
      </trkpt>
      <trkpt lat="44.23838" lon="3.32415">
        <ele>893</ele>
        <time>2019-05-22T21:01:46Z</time>
      </trkpt>
      <trkpt lat="44.23845" lon="3.32467">
        <ele>896</ele>
        <time>2019-05-22T21:01:52Z</time>
      </trkpt>
      <trkpt lat="44.23862" lon="3.3264">
        <ele>902</ele>
        <time>2019-05-22T21:02:15Z</time>
      </trkpt>
      <trkpt lat="44.23863" lon="3.32665">
        <ele>903</ele>
        <time>2019-05-22T21:02:18Z</time>
      </trkpt>
      <trkpt lat="44.2386" lon="3.32757">
        <ele>902</ele>
        <time>2019-05-22T21:02:29Z</time>
      </trkpt>
      <trkpt lat="44.23855" lon="3.32788">
        <ele>902</ele>
        <time>2019-05-22T21:02:33Z</time>
      </trkpt>
      <trkpt lat="44.23827" lon="3.32922">
        <ele>903</ele>
        <time>2019-05-22T21:02:51Z</time>
      </trkpt>
      <trkpt lat="44.23821" lon="3.32959">
        <ele>906</ele>
        <time>2019-05-22T21:02:56Z</time>
      </trkpt>
      <trkpt lat="44.23819" lon="3.32981">
        <ele>907</ele>
        <time>2019-05-22T21:02:59Z</time>
      </trkpt>
      <trkpt lat="44.2382" lon="3.33001">
        <ele>907</ele>
        <time>2019-05-22T21:03:02Z</time>
      </trkpt>
      <trkpt lat="44.23835" lon="3.33078">
        <ele>912</ele>
        <time>2019-05-22T21:03:12Z</time>
      </trkpt>
      <trkpt lat="44.23839" lon="3.33118">
        <ele>913</ele>
        <time>2019-05-22T21:03:17Z</time>
      </trkpt>
      <trkpt lat="44.2384" lon="3.33176">
        <ele>916</ele>
        <time>2019-05-22T21:03:24Z</time>
      </trkpt>
      <trkpt lat="44.23839" lon="3.3321">
        <ele>918</ele>
        <time>2019-05-22T21:03:29Z</time>
      </trkpt>
      <trkpt lat="44.23834" lon="3.33264">
        <ele>922</ele>
        <time>2019-05-22T21:03:35Z</time>
      </trkpt>
      <trkpt lat="44.23834" lon="3.33288">
        <ele>923</ele>
        <time>2019-05-22T21:03:39Z</time>
      </trkpt>
      <trkpt lat="44.23838" lon="3.33309">
        <ele>923</ele>
        <time>2019-05-22T21:03:41Z</time>
      </trkpt>
      <trkpt lat="44.23845" lon="3.33332">
        <ele>922</ele>
        <time>2019-05-22T21:03:45Z</time>
      </trkpt>
      <trkpt lat="44.23855" lon="3.33355">
        <ele>922</ele>
        <time>2019-05-22T21:03:48Z</time>
      </trkpt>
      <trkpt lat="44.23861" lon="3.33378">
        <ele>922</ele>
        <time>2019-05-22T21:03:51Z</time>
      </trkpt>
      <trkpt lat="44.23873" lon="3.33451">
        <ele>925</ele>
        <time>2019-05-22T21:04:01Z</time>
      </trkpt>
      <trkpt lat="44.23887" lon="3.33501">
        <ele>924</ele>
        <time>2019-05-22T21:04:07Z</time>
      </trkpt>
      <trkpt lat="44.23894" lon="3.336">
        <ele>931</ele>
        <time>2019-05-22T21:04:20Z</time>
      </trkpt>
      <trkpt lat="44.23897" lon="3.33624">
        <ele>932</ele>
        <time>2019-05-22T21:04:23Z</time>
      </trkpt>
      <trkpt lat="44.23915" lon="3.33693">
        <ele>933</ele>
        <time>2019-05-22T21:04:33Z</time>
      </trkpt>
      <trkpt lat="44.2392" lon="3.33737">
        <ele>935</ele>
        <time>2019-05-22T21:04:38Z</time>
      </trkpt>
      <trkpt lat="44.2392" lon="3.33737">
        <ele>935</ele>
        <time>2019-05-22T21:04:38Z</time>
      </trkpt>
      <trkpt lat="44.23926" lon="3.33835">
        <ele>939</ele>
        <time>2019-05-22T21:04:51Z</time>
      </trkpt>
      <trkpt lat="44.2394" lon="3.33908">
        <ele>940</ele>
        <time>2019-05-22T21:05:00Z</time>
      </trkpt>
      <trkpt lat="44.23941" lon="3.33964">
        <ele>942</ele>
        <time>2019-05-22T21:05:08Z</time>
      </trkpt>
      <trkpt lat="44.23944" lon="3.33999">
        <ele>942</ele>
        <time>2019-05-22T21:05:12Z</time>
      </trkpt>
      <trkpt lat="44.23961" lon="3.34094">
        <ele>943</ele>
        <time>2019-05-22T21:05:25Z</time>
      </trkpt>
      <trkpt lat="44.2396" lon="3.34123">
        <ele>944</ele>
        <time>2019-05-22T21:05:28Z</time>
      </trkpt>
      <trkpt lat="44.23948" lon="3.34187">
        <ele>948</ele>
        <time>2019-05-22T21:05:37Z</time>
      </trkpt>
      <trkpt lat="44.23945" lon="3.34216">
        <ele>950</ele>
        <time>2019-05-22T21:05:40Z</time>
      </trkpt>
      <trkpt lat="44.23944" lon="3.34255">
        <ele>952</ele>
        <time>2019-05-22T21:05:45Z</time>
      </trkpt>
      <trkpt lat="44.23946" lon="3.34306">
        <ele>953</ele>
        <time>2019-05-22T21:05:52Z</time>
      </trkpt>
      <trkpt lat="44.23949" lon="3.34348">
        <ele>955</ele>
        <time>2019-05-22T21:05:57Z</time>
      </trkpt>
      <trkpt lat="44.23955" lon="3.34387">
        <ele>956</ele>
        <time>2019-05-22T21:06:02Z</time>
      </trkpt>
      <trkpt lat="44.23963" lon="3.34414">
        <ele>957</ele>
        <time>2019-05-22T21:06:06Z</time>
      </trkpt>
      <trkpt lat="44.23994" lon="3.34479">
        <ele>957</ele>
        <time>2019-05-22T21:06:16Z</time>
      </trkpt>
      <trkpt lat="44.24" lon="3.34504">
        <ele>958</ele>
        <time>2019-05-22T21:06:19Z</time>
      </trkpt>
      <trkpt lat="44.24014" lon="3.34603">
        <ele>964</ele>
        <time>2019-05-22T21:06:32Z</time>
      </trkpt>
      <trkpt lat="44.24021" lon="3.34635">
        <ele>965</ele>
        <time>2019-05-22T21:06:37Z</time>
      </trkpt>
      <trkpt lat="44.24055" lon="3.3474">
        <ele>968</ele>
        <time>2019-05-22T21:06:51Z</time>
      </trkpt>
      <trkpt lat="44.24091" lon="3.34871">
        <ele>975</ele>
        <time>2019-05-22T21:07:09Z</time>
      </trkpt>
      <trkpt lat="44.24104" lon="3.34902">
        <ele>976</ele>
        <time>2019-05-22T21:07:14Z</time>
      </trkpt>
      <trkpt lat="44.24172" lon="3.35038">
        <ele>981</ele>
        <time>2019-05-22T21:07:35Z</time>
      </trkpt>
      <trkpt lat="44.24193" lon="3.35068">
        <ele>982</ele>
        <time>2019-05-22T21:07:40Z</time>
      </trkpt>
      <trkpt lat="44.24204" lon="3.35086">
        <ele>983</ele>
        <time>2019-05-22T21:07:43Z</time>
      </trkpt>
      <trkpt lat="44.24207" lon="3.351">
        <ele>983</ele>
        <time>2019-05-22T21:07:45Z</time>
      </trkpt>
      <trkpt lat="44.24207" lon="3.3511">
        <ele>983</ele>
        <time>2019-05-22T21:07:46Z</time>
      </trkpt>
      <trkpt lat="44.24198" lon="3.3521">
        <ele>984</ele>
        <time>2019-05-22T21:07:59Z</time>
      </trkpt>
      <trkpt lat="44.24198" lon="3.3525">
        <ele>982</ele>
        <time>2019-05-22T21:08:04Z</time>
      </trkpt>
      <trkpt lat="44.24201" lon="3.35276">
        <ele>982</ele>
        <time>2019-05-22T21:08:08Z</time>
      </trkpt>
      <trkpt lat="44.24211" lon="3.35309">
        <ele>981</ele>
        <time>2019-05-22T21:08:12Z</time>
      </trkpt>
      <trkpt lat="44.24223" lon="3.35345">
        <ele>980</ele>
        <time>2019-05-22T21:08:17Z</time>
      </trkpt>
      <trkpt lat="44.24239" lon="3.35382">
        <ele>980</ele>
        <time>2019-05-22T21:08:23Z</time>
      </trkpt>
      <trkpt lat="44.24252" lon="3.35405">
        <ele>980</ele>
        <time>2019-05-22T21:08:27Z</time>
      </trkpt>
      <trkpt lat="44.24265" lon="3.35421">
        <ele>980</ele>
        <time>2019-05-22T21:08:30Z</time>
      </trkpt>
      <trkpt lat="44.24285" lon="3.35436">
        <ele>979</ele>
        <time>2019-05-22T21:08:34Z</time>
      </trkpt>
      <trkpt lat="44.24398" lon="3.35497">
        <ele>982</ele>
        <time>2019-05-22T21:08:55Z</time>
      </trkpt>
      <trkpt lat="44.24414" lon="3.35505">
        <ele>983</ele>
        <time>2019-05-22T21:08:58Z</time>
      </trkpt>
      <trkpt lat="44.24431" lon="3.35508">
        <ele>983</ele>
        <time>2019-05-22T21:09:01Z</time>
      </trkpt>
      <trkpt lat="44.24461" lon="3.35508">
        <ele>983</ele>
        <time>2019-05-22T21:09:07Z</time>
      </trkpt>
      <trkpt lat="44.24498" lon="3.35505">
        <ele>982</ele>
        <time>2019-05-22T21:09:13Z</time>
      </trkpt>
      <trkpt lat="44.24504" lon="3.35507">
        <ele>982</ele>
        <time>2019-05-22T21:09:14Z</time>
      </trkpt>
      <trkpt lat="44.24483" lon="3.3562">
        <ele>985</ele>
        <time>2019-05-22T21:09:29Z</time>
      </trkpt>
      <trkpt lat="44.24474" lon="3.35656">
        <ele>986</ele>
        <time>2019-05-22T21:09:34Z</time>
      </trkpt>
      <trkpt lat="44.24464" lon="3.35681">
        <ele>987</ele>
        <time>2019-05-22T21:09:38Z</time>
      </trkpt>
      <trkpt lat="44.244" lon="3.35804">
        <ele>992</ele>
        <time>2019-05-22T21:09:57Z</time>
      </trkpt>
      <trkpt lat="44.24384" lon="3.35824">
        <ele>993</ele>
        <time>2019-05-22T21:10:01Z</time>
      </trkpt>
      <trkpt lat="44.2436" lon="3.35844">
        <ele>992</ele>
        <time>2019-05-22T21:10:06Z</time>
      </trkpt>
      <trkpt lat="44.2424" lon="3.35931">
        <ele>992</ele>
        <time>2019-05-22T21:10:30Z</time>
      </trkpt>
      <trkpt lat="44.2416" lon="3.36002">
        <ele>993</ele>
        <time>2019-05-22T21:10:47Z</time>
      </trkpt>
      <trkpt lat="44.23885" lon="3.36252">
        <ele>987</ele>
        <time>2019-05-22T21:11:45Z</time>
      </trkpt>
      <trkpt lat="44.23695" lon="3.36431">
        <ele>980</ele>
        <time>2019-05-22T21:12:26Z</time>
      </trkpt>
      <trkpt lat="44.23503" lon="3.36608">
        <ele>974</ele>
        <time>2019-05-22T21:13:07Z</time>
      </trkpt>
      <trkpt lat="44.23487" lon="3.36619">
        <ele>973</ele>
        <time>2019-05-22T21:13:10Z</time>
      </trkpt>
      <trkpt lat="44.23419" lon="3.36658">
        <ele>971</ele>
        <time>2019-05-22T21:13:23Z</time>
      </trkpt>
      <trkpt lat="44.23206" lon="3.36767">
        <ele>967</ele>
        <time>2019-05-22T21:14:04Z</time>
      </trkpt>
      <trkpt lat="44.23013" lon="3.3687">
        <ele>962</ele>
        <time>2019-05-22T21:14:40Z</time>
      </trkpt>
      <trkpt lat="44.22977" lon="3.36894">
        <ele>961</ele>
        <time>2019-05-22T21:14:47Z</time>
      </trkpt>
      <trkpt lat="44.22923" lon="3.3694">
        <ele>959</ele>
        <time>2019-05-22T21:14:59Z</time>
      </trkpt>
      <trkpt lat="44.22738" lon="3.37111">
        <ele>956</ele>
        <time>2019-05-22T21:15:38Z</time>
      </trkpt>
      <trkpt lat="44.22439" lon="3.37381">
        <ele>950</ele>
        <time>2019-05-22T21:16:42Z</time>
      </trkpt>
      <trkpt lat="44.22262" lon="3.37545">
        <ele>949</ele>
        <time>2019-05-22T21:17:19Z</time>
      </trkpt>
      <trkpt lat="44.22262" lon="3.37545">
        <ele>949</ele>
        <time>2019-05-22T21:17:19Z</time>
      </trkpt>
      <trkpt lat="44.22135" lon="3.37665">
        <ele>946</ele>
        <time>2019-05-22T21:17:47Z</time>
      </trkpt>
      <trkpt lat="44.21784" lon="3.38093">
        <ele>959</ele>
        <time>2019-05-22T21:19:10Z</time>
      </trkpt>
      <trkpt lat="44.21769" lon="3.38113">
        <ele>960</ele>
        <time>2019-05-22T21:19:13Z</time>
      </trkpt>
      <trkpt lat="44.21745" lon="3.38151">
        <ele>960</ele>
        <time>2019-05-22T21:19:20Z</time>
      </trkpt>
      <trkpt lat="44.21691" lon="3.38254">
        <ele>962</ele>
        <time>2019-05-22T21:19:36Z</time>
      </trkpt>
      <trkpt lat="44.21635" lon="3.38374">
        <ele>964</ele>
        <time>2019-05-22T21:19:54Z</time>
      </trkpt>
      <trkpt lat="44.21617" lon="3.38406">
        <ele>964</ele>
        <time>2019-05-22T21:19:59Z</time>
      </trkpt>
      <trkpt lat="44.21593" lon="3.38439">
        <ele>965</ele>
        <time>2019-05-22T21:20:05Z</time>
      </trkpt>
      <trkpt lat="44.21576" lon="3.38457">
        <ele>965</ele>
        <time>2019-05-22T21:20:09Z</time>
      </trkpt>
      <trkpt lat="44.2155" lon="3.38479">
        <ele>965</ele>
        <time>2019-05-22T21:20:15Z</time>
      </trkpt>
      <trkpt lat="44.21512" lon="3.38504">
        <ele>966</ele>
        <time>2019-05-22T21:20:22Z</time>
      </trkpt>
      <trkpt lat="44.21477" lon="3.38521">
        <ele>966</ele>
        <time>2019-05-22T21:20:29Z</time>
      </trkpt>
      <trkpt lat="44.21455" lon="3.38526">
        <ele>966</ele>
        <time>2019-05-22T21:20:33Z</time>
      </trkpt>
      <trkpt lat="44.21433" lon="3.38523">
        <ele>965</ele>
        <time>2019-05-22T21:20:37Z</time>
      </trkpt>
      <trkpt lat="44.21321" lon="3.38487">
        <ele>967</ele>
        <time>2019-05-22T21:20:57Z</time>
      </trkpt>
      <trkpt lat="44.21123" lon="3.38431">
        <ele>970</ele>
        <time>2019-05-22T21:21:33Z</time>
      </trkpt>
      <trkpt lat="44.21053" lon="3.38407">
        <ele>971</ele>
        <time>2019-05-22T21:21:46Z</time>
      </trkpt>
      <trkpt lat="44.2103" lon="3.38407">
        <ele>971</ele>
        <time>2019-05-22T21:21:50Z</time>
      </trkpt>
      <trkpt lat="44.21013" lon="3.38414">
        <ele>971</ele>
        <time>2019-05-22T21:21:53Z</time>
      </trkpt>
      <trkpt lat="44.20985" lon="3.38433">
        <ele>970</ele>
        <time>2019-05-22T21:21:59Z</time>
      </trkpt>
      <trkpt lat="44.20933" lon="3.38475">
        <ele>968</ele>
        <time>2019-05-22T21:22:09Z</time>
      </trkpt>
      <trkpt lat="44.20848" lon="3.38534">
        <ele>965</ele>
        <time>2019-05-22T21:22:26Z</time>
      </trkpt>
      <trkpt lat="44.20821" lon="3.38548">
        <ele>965</ele>
        <time>2019-05-22T21:22:31Z</time>
      </trkpt>
      <trkpt lat="44.2079" lon="3.38558">
        <ele>964</ele>
        <time>2019-05-22T21:22:37Z</time>
      </trkpt>
      <trkpt lat="44.20758" lon="3.38559">
        <ele>963</ele>
        <time>2019-05-22T21:22:43Z</time>
      </trkpt>
      <trkpt lat="44.20691" lon="3.38568">
        <ele>959</ele>
        <time>2019-05-22T21:22:55Z</time>
      </trkpt>
      <trkpt lat="44.20622" lon="3.38589">
        <ele>957</ele>
        <time>2019-05-22T21:23:07Z</time>
      </trkpt>
      <trkpt lat="44.20593" lon="3.38603">
        <ele>955</ele>
        <time>2019-05-22T21:23:13Z</time>
      </trkpt>
      <trkpt lat="44.20559" lon="3.38626">
        <ele>954</ele>
        <time>2019-05-22T21:23:19Z</time>
      </trkpt>
      <trkpt lat="44.2054" lon="3.38648">
        <ele>953</ele>
        <time>2019-05-22T21:23:24Z</time>
      </trkpt>
      <trkpt lat="44.20523" lon="3.38672">
        <ele>953</ele>
        <time>2019-05-22T21:23:28Z</time>
      </trkpt>
      <trkpt lat="44.2051" lon="3.387">
        <ele>950</ele>
        <time>2019-05-22T21:23:32Z</time>
      </trkpt>
      <trkpt lat="44.20501" lon="3.38734">
        <ele>948</ele>
        <time>2019-05-22T21:23:37Z</time>
      </trkpt>
      <trkpt lat="44.20497" lon="3.38764">
        <ele>946</ele>
        <time>2019-05-22T21:23:41Z</time>
      </trkpt>
      <trkpt lat="44.20498" lon="3.38793">
        <ele>946</ele>
        <time>2019-05-22T21:23:45Z</time>
      </trkpt>
      <trkpt lat="44.20502" lon="3.38831">
        <ele>947</ele>
        <time>2019-05-22T21:23:49Z</time>
      </trkpt>
      <trkpt lat="44.20525" lon="3.38945">
        <ele>950</ele>
        <time>2019-05-22T21:24:05Z</time>
      </trkpt>
      <trkpt lat="44.20532" lon="3.39015">
        <ele>952</ele>
        <time>2019-05-22T21:24:14Z</time>
      </trkpt>
      <trkpt lat="44.20529" lon="3.39036">
        <ele>952</ele>
        <time>2019-05-22T21:24:16Z</time>
      </trkpt>
      <trkpt lat="44.20523" lon="3.39056">
        <ele>952</ele>
        <time>2019-05-22T21:24:19Z</time>
      </trkpt>
      <trkpt lat="44.20515" lon="3.39069">
        <ele>951</ele>
        <time>2019-05-22T21:24:21Z</time>
      </trkpt>
      <trkpt lat="44.205" lon="3.39083">
        <ele>949</ele>
        <time>2019-05-22T21:24:24Z</time>
      </trkpt>
      <trkpt lat="44.20483" lon="3.39091">
        <ele>949</ele>
        <time>2019-05-22T21:24:28Z</time>
      </trkpt>
      <trkpt lat="44.20439" lon="3.39095">
        <ele>945</ele>
        <time>2019-05-22T21:24:36Z</time>
      </trkpt>
      <trkpt lat="44.20381" lon="3.39086">
        <ele>940</ele>
        <time>2019-05-22T21:24:46Z</time>
      </trkpt>
      <trkpt lat="44.20334" lon="3.39108">
        <ele>942</ele>
        <time>2019-05-22T21:24:55Z</time>
      </trkpt>
      <trkpt lat="44.20288" lon="3.39133">
        <ele>941</ele>
        <time>2019-05-22T21:25:04Z</time>
      </trkpt>
      <trkpt lat="44.20269" lon="3.39154">
        <ele>941</ele>
        <time>2019-05-22T21:25:08Z</time>
      </trkpt>
      <trkpt lat="44.20258" lon="3.39177">
        <ele>941</ele>
        <time>2019-05-22T21:25:11Z</time>
      </trkpt>
      <trkpt lat="44.2025" lon="3.39202">
        <ele>940</ele>
        <time>2019-05-22T21:25:15Z</time>
      </trkpt>
      <trkpt lat="44.20249" lon="3.39236">
        <ele>940</ele>
        <time>2019-05-22T21:25:19Z</time>
      </trkpt>
      <trkpt lat="44.2025" lon="3.39272">
        <ele>937</ele>
        <time>2019-05-22T21:25:24Z</time>
      </trkpt>
      <trkpt lat="44.20256" lon="3.39304">
        <ele>935</ele>
        <time>2019-05-22T21:25:28Z</time>
      </trkpt>
      <trkpt lat="44.20305" lon="3.39447">
        <ele>941</ele>
        <time>2019-05-22T21:25:48Z</time>
      </trkpt>
      <trkpt lat="44.20311" lon="3.39476">
        <ele>944</ele>
        <time>2019-05-22T21:25:52Z</time>
      </trkpt>
      <trkpt lat="44.20313" lon="3.39501">
        <ele>944</ele>
        <time>2019-05-22T21:25:55Z</time>
      </trkpt>
      <trkpt lat="44.20312" lon="3.39517">
        <ele>946</ele>
        <time>2019-05-22T21:25:57Z</time>
      </trkpt>
      <trkpt lat="44.20308" lon="3.39529">
        <ele>947</ele>
        <time>2019-05-22T21:25:59Z</time>
      </trkpt>
      <trkpt lat="44.203" lon="3.39533">
        <ele>946</ele>
        <time>2019-05-22T21:26:01Z</time>
      </trkpt>
      <trkpt lat="44.20248" lon="3.39535">
        <ele>936</ele>
        <time>2019-05-22T21:26:10Z</time>
      </trkpt>
      <trkpt lat="44.20214" lon="3.39539">
        <ele>934</ele>
        <time>2019-05-22T21:26:16Z</time>
      </trkpt>
      <trkpt lat="44.2018" lon="3.39548">
        <ele>935</ele>
        <time>2019-05-22T21:26:22Z</time>
      </trkpt>
      <trkpt lat="44.20103" lon="3.39557">
        <ele>930</ele>
        <time>2019-05-22T21:26:36Z</time>
      </trkpt>
      <trkpt lat="44.20073" lon="3.39565">
        <ele>928</ele>
        <time>2019-05-22T21:26:41Z</time>
      </trkpt>
      <trkpt lat="44.20055" lon="3.39576">
        <ele>926</ele>
        <time>2019-05-22T21:26:45Z</time>
      </trkpt>
      <trkpt lat="44.20038" lon="3.39593">
        <ele>925</ele>
        <time>2019-05-22T21:26:48Z</time>
      </trkpt>
      <trkpt lat="44.20021" lon="3.3962">
        <ele>924</ele>
        <time>2019-05-22T21:26:53Z</time>
      </trkpt>
      <trkpt lat="44.20009" lon="3.39654">
        <ele>924</ele>
        <time>2019-05-22T21:26:58Z</time>
      </trkpt>
      <trkpt lat="44.19996" lon="3.39698">
        <ele>925</ele>
        <time>2019-05-22T21:27:04Z</time>
      </trkpt>
      <trkpt lat="44.19962" lon="3.39825">
        <ele>923</ele>
        <time>2019-05-22T21:27:21Z</time>
      </trkpt>
      <trkpt lat="44.1993" lon="3.40006">
        <ele>920</ele>
        <time>2019-05-22T21:27:45Z</time>
      </trkpt>
      <trkpt lat="44.19928" lon="3.4005">
        <ele>924</ele>
        <time>2019-05-22T21:27:51Z</time>
      </trkpt>
      <trkpt lat="44.19924" lon="3.40069">
        <ele>924</ele>
        <time>2019-05-22T21:27:53Z</time>
      </trkpt>
      <trkpt lat="44.19915" lon="3.40083">
        <ele>922</ele>
        <time>2019-05-22T21:27:56Z</time>
      </trkpt>
      <trkpt lat="44.19856" lon="3.40121">
        <ele>909</ele>
        <time>2019-05-22T21:28:07Z</time>
      </trkpt>
      <trkpt lat="44.19844" lon="3.40132">
        <ele>906</ele>
        <time>2019-05-22T21:28:10Z</time>
      </trkpt>
      <trkpt lat="44.1984" lon="3.40146">
        <ele>906</ele>
        <time>2019-05-22T21:28:12Z</time>
      </trkpt>
      <trkpt lat="44.19841" lon="3.40169">
        <ele>909</ele>
        <time>2019-05-22T21:28:14Z</time>
      </trkpt>
      <trkpt lat="44.19853" lon="3.40232">
        <ele>911</ele>
        <time>2019-05-22T21:28:23Z</time>
      </trkpt>
      <trkpt lat="44.19856" lon="3.40278">
        <ele>914</ele>
        <time>2019-05-22T21:28:29Z</time>
      </trkpt>
      <trkpt lat="44.19854" lon="3.4031">
        <ele>916</ele>
        <time>2019-05-22T21:28:33Z</time>
      </trkpt>
      <trkpt lat="44.19852" lon="3.40322">
        <ele>916</ele>
        <time>2019-05-22T21:28:34Z</time>
      </trkpt>
      <trkpt lat="44.19844" lon="3.40335">
        <ele>914</ele>
        <time>2019-05-22T21:28:37Z</time>
      </trkpt>
      <trkpt lat="44.19834" lon="3.40343">
        <ele>913</ele>
        <time>2019-05-22T21:28:39Z</time>
      </trkpt>
      <trkpt lat="44.19758" lon="3.40388">
        <ele>905</ele>
        <time>2019-05-22T21:28:53Z</time>
      </trkpt>
      <trkpt lat="44.19717" lon="3.40414">
        <ele>902</ele>
        <time>2019-05-22T21:29:01Z</time>
      </trkpt>
      <trkpt lat="44.19688" lon="3.40443">
        <ele>901</ele>
        <time>2019-05-22T21:29:08Z</time>
      </trkpt>
      <trkpt lat="44.19673" lon="3.40461">
        <ele>900</ele>
        <time>2019-05-22T21:29:11Z</time>
      </trkpt>
      <trkpt lat="44.19662" lon="3.40485">
        <ele>901</ele>
        <time>2019-05-22T21:29:15Z</time>
      </trkpt>
      <trkpt lat="44.19655" lon="3.40508">
        <ele>901</ele>
        <time>2019-05-22T21:29:18Z</time>
      </trkpt>
      <trkpt lat="44.19651" lon="3.40536">
        <ele>900</ele>
        <time>2019-05-22T21:29:22Z</time>
      </trkpt>
      <trkpt lat="44.19652" lon="3.40568">
        <ele>903</ele>
        <time>2019-05-22T21:29:26Z</time>
      </trkpt>
      <trkpt lat="44.19655" lon="3.40602">
        <ele>904</ele>
        <time>2019-05-22T21:29:30Z</time>
      </trkpt>
      <trkpt lat="44.19668" lon="3.40688">
        <ele>905</ele>
        <time>2019-05-22T21:29:41Z</time>
      </trkpt>
      <trkpt lat="44.19669" lon="3.40717">
        <ele>905</ele>
        <time>2019-05-22T21:29:45Z</time>
      </trkpt>
      <trkpt lat="44.19665" lon="3.40748">
        <ele>902</ele>
        <time>2019-05-22T21:29:49Z</time>
      </trkpt>
      <trkpt lat="44.19647" lon="3.40826">
        <ele>898</ele>
        <time>2019-05-22T21:29:59Z</time>
      </trkpt>
      <trkpt lat="44.19631" lon="3.40882">
        <ele>896</ele>
        <time>2019-05-22T21:30:07Z</time>
      </trkpt>
      <trkpt lat="44.19578" lon="3.41015">
        <ele>895</ele>
        <time>2019-05-22T21:30:27Z</time>
      </trkpt>
      <trkpt lat="44.19562" lon="3.4104">
        <ele>896</ele>
        <time>2019-05-22T21:30:31Z</time>
      </trkpt>
      <trkpt lat="44.19522" lon="3.41087">
        <ele>895</ele>
        <time>2019-05-22T21:30:40Z</time>
      </trkpt>
      <trkpt lat="44.19507" lon="3.41102">
        <ele>895</ele>
        <time>2019-05-22T21:30:43Z</time>
      </trkpt>
      <trkpt lat="44.19483" lon="3.4111">
        <ele>892</ele>
        <time>2019-05-22T21:30:48Z</time>
      </trkpt>
      <trkpt lat="44.19451" lon="3.41116">
        <ele>887</ele>
        <time>2019-05-22T21:30:54Z</time>
      </trkpt>
      <trkpt lat="44.19428" lon="3.41127">
        <ele>885</ele>
        <time>2019-05-22T21:30:58Z</time>
      </trkpt>
      <trkpt lat="44.19408" lon="3.41143">
        <ele>884</ele>
        <time>2019-05-22T21:31:02Z</time>
      </trkpt>
      <trkpt lat="44.19392" lon="3.41163">
        <ele>882</ele>
        <time>2019-05-22T21:31:06Z</time>
      </trkpt>
      <trkpt lat="44.19392" lon="3.41163">
        <ele>882</ele>
        <time>2019-05-22T21:31:06Z</time>
      </trkpt>
      <trkpt lat="44.19371" lon="3.412">
        <ele>881</ele>
        <time>2019-05-22T21:31:12Z</time>
      </trkpt>
      <trkpt lat="44.19318" lon="3.41333">
        <ele>877</ele>
        <time>2019-05-22T21:31:31Z</time>
      </trkpt>
      <trkpt lat="44.19312" lon="3.41356">
        <ele>874</ele>
        <time>2019-05-22T21:31:34Z</time>
      </trkpt>
      <trkpt lat="44.19309" lon="3.41386">
        <ele>874</ele>
        <time>2019-05-22T21:31:38Z</time>
      </trkpt>
      <trkpt lat="44.1931" lon="3.41402">
        <ele>875</ele>
        <time>2019-05-22T21:31:40Z</time>
      </trkpt>
      <trkpt lat="44.19339" lon="3.41579">
        <ele>881</ele>
        <time>2019-05-22T21:32:03Z</time>
      </trkpt>
      <trkpt lat="44.19344" lon="3.4163">
        <ele>882</ele>
        <time>2019-05-22T21:32:10Z</time>
      </trkpt>
      <trkpt lat="44.19342" lon="3.41659">
        <ele>881</ele>
        <time>2019-05-22T21:32:14Z</time>
      </trkpt>
      <trkpt lat="44.19335" lon="3.41666">
        <ele>878</ele>
        <time>2019-05-22T21:32:15Z</time>
      </trkpt>
      <trkpt lat="44.19327" lon="3.41669">
        <ele>879</ele>
        <time>2019-05-22T21:32:17Z</time>
      </trkpt>
      <trkpt lat="44.19319" lon="3.41665">
        <ele>879</ele>
        <time>2019-05-22T21:32:18Z</time>
      </trkpt>
      <trkpt lat="44.193" lon="3.41636">
        <ele>879</ele>
        <time>2019-05-22T21:32:23Z</time>
      </trkpt>
      <trkpt lat="44.1928" lon="3.41612">
        <ele>877</ele>
        <time>2019-05-22T21:32:28Z</time>
      </trkpt>
      <trkpt lat="44.19246" lon="3.41581">
        <ele>870</ele>
        <time>2019-05-22T21:32:35Z</time>
      </trkpt>
      <trkpt lat="44.19225" lon="3.41568">
        <ele>858</ele>
        <time>2019-05-22T21:32:39Z</time>
      </trkpt>
      <trkpt lat="44.19209" lon="3.41561">
        <ele>850</ele>
        <time>2019-05-22T21:32:42Z</time>
      </trkpt>
      <trkpt lat="44.19196" lon="3.4156">
        <ele>845</ele>
        <time>2019-05-22T21:32:45Z</time>
      </trkpt>
      <trkpt lat="44.19187" lon="3.41567">
        <ele>844</ele>
        <time>2019-05-22T21:32:46Z</time>
      </trkpt>
      <trkpt lat="44.19179" lon="3.41583">
        <ele>847</ele>
        <time>2019-05-22T21:32:49Z</time>
      </trkpt>
      <trkpt lat="44.19164" lon="3.41661">
        <ele>854</ele>
        <time>2019-05-22T21:32:59Z</time>
      </trkpt>
      <trkpt lat="44.19165" lon="3.41675">
        <ele>856</ele>
        <time>2019-05-22T21:33:01Z</time>
      </trkpt>
      <trkpt lat="44.19177" lon="3.41709">
        <ele>861</ele>
        <time>2019-05-22T21:33:06Z</time>
      </trkpt>
      <trkpt lat="44.19178" lon="3.41728">
        <ele>861</ele>
        <time>2019-05-22T21:33:08Z</time>
      </trkpt>
      <trkpt lat="44.19174" lon="3.4175">
        <ele>860</ele>
        <time>2019-05-22T21:33:11Z</time>
      </trkpt>
      <trkpt lat="44.19168" lon="3.41764">
        <ele>860</ele>
        <time>2019-05-22T21:33:13Z</time>
      </trkpt>
      <trkpt lat="44.19139" lon="3.41807">
        <ele>852</ele>
        <time>2019-05-22T21:33:21Z</time>
      </trkpt>
      <trkpt lat="44.19134" lon="3.41821">
        <ele>851</ele>
        <time>2019-05-22T21:33:23Z</time>
      </trkpt>
      <trkpt lat="44.1913" lon="3.41847">
        <ele>854</ele>
        <time>2019-05-22T21:33:26Z</time>
      </trkpt>
      <trkpt lat="44.19127" lon="3.4187">
        <ele>858</ele>
        <time>2019-05-22T21:33:29Z</time>
      </trkpt>
      <trkpt lat="44.19122" lon="3.41883">
        <ele>858</ele>
        <time>2019-05-22T21:33:31Z</time>
      </trkpt>
      <trkpt lat="44.19115" lon="3.41892">
        <ele>856</ele>
        <time>2019-05-22T21:33:33Z</time>
      </trkpt>
      <trkpt lat="44.19101" lon="3.41905">
        <ele>852</ele>
        <time>2019-05-22T21:33:36Z</time>
      </trkpt>
      <trkpt lat="44.19098" lon="3.41912">
        <ele>852</ele>
        <time>2019-05-22T21:33:37Z</time>
      </trkpt>
      <trkpt lat="44.19096" lon="3.41921">
        <ele>853</ele>
        <time>2019-05-22T21:33:38Z</time>
      </trkpt>
      <trkpt lat="44.19093" lon="3.41953">
        <ele>863</ele>
        <time>2019-05-22T21:33:42Z</time>
      </trkpt>
      <trkpt lat="44.19089" lon="3.41964">
        <ele>865</ele>
        <time>2019-05-22T21:33:44Z</time>
      </trkpt>
      <trkpt lat="44.19083" lon="3.41974">
        <ele>866</ele>
        <time>2019-05-22T21:33:45Z</time>
      </trkpt>
      <trkpt lat="44.19072" lon="3.41977">
        <ele>865</ele>
        <time>2019-05-22T21:33:47Z</time>
      </trkpt>
      <trkpt lat="44.1904" lon="3.41976">
        <ele>858</ele>
        <time>2019-05-22T21:33:53Z</time>
      </trkpt>
      <trkpt lat="44.19007" lon="3.41971">
        <ele>848</ele>
        <time>2019-05-22T21:33:59Z</time>
      </trkpt>
      <trkpt lat="44.18965" lon="3.41962">
        <ele>841</ele>
        <time>2019-05-22T21:34:06Z</time>
      </trkpt>
      <trkpt lat="44.18921" lon="3.41967">
        <ele>842</ele>
        <time>2019-05-22T21:34:14Z</time>
      </trkpt>
      <trkpt lat="44.18911" lon="3.41963">
        <ele>840</ele>
        <time>2019-05-22T21:34:16Z</time>
      </trkpt>
      <trkpt lat="44.18852" lon="3.41928">
        <ele>822</ele>
        <time>2019-05-22T21:34:28Z</time>
      </trkpt>
      <trkpt lat="44.18843" lon="3.41925">
        <ele>821</ele>
        <time>2019-05-22T21:34:29Z</time>
      </trkpt>
      <trkpt lat="44.18831" lon="3.41927">
        <ele>820</ele>
        <time>2019-05-22T21:34:31Z</time>
      </trkpt>
      <trkpt lat="44.18824" lon="3.41931">
        <ele>819</ele>
        <time>2019-05-22T21:34:33Z</time>
      </trkpt>
      <trkpt lat="44.18812" lon="3.41946">
        <ele>817</ele>
        <time>2019-05-22T21:34:36Z</time>
      </trkpt>
      <trkpt lat="44.18799" lon="3.41968">
        <ele>817</ele>
        <time>2019-05-22T21:34:39Z</time>
      </trkpt>
      <trkpt lat="44.18772" lon="3.42032">
        <ele>819</ele>
        <time>2019-05-22T21:34:49Z</time>
      </trkpt>
      <trkpt lat="44.18751" lon="3.42087">
        <ele>818</ele>
        <time>2019-05-22T21:34:57Z</time>
      </trkpt>
      <trkpt lat="44.1875" lon="3.42108">
        <ele>818</ele>
        <time>2019-05-22T21:34:59Z</time>
      </trkpt>
      <trkpt lat="44.18755" lon="3.42159">
        <ele>821</ele>
        <time>2019-05-22T21:35:06Z</time>
      </trkpt>
      <trkpt lat="44.18754" lon="3.42175">
        <ele>823</ele>
        <time>2019-05-22T21:35:08Z</time>
      </trkpt>
      <trkpt lat="44.18747" lon="3.42183">
        <ele>821</ele>
        <time>2019-05-22T21:35:10Z</time>
      </trkpt>
      <trkpt lat="44.18734" lon="3.42193">
        <ele>817</ele>
        <time>2019-05-22T21:35:12Z</time>
      </trkpt>
      <trkpt lat="44.18692" lon="3.42215">
        <ele>806</ele>
        <time>2019-05-22T21:35:20Z</time>
      </trkpt>
      <trkpt lat="44.18678" lon="3.42228">
        <ele>803</ele>
        <time>2019-05-22T21:35:23Z</time>
      </trkpt>
      <trkpt lat="44.18664" lon="3.42248">
        <ele>802</ele>
        <time>2019-05-22T21:35:27Z</time>
      </trkpt>
      <trkpt lat="44.18652" lon="3.42275">
        <ele>801</ele>
        <time>2019-05-22T21:35:31Z</time>
      </trkpt>
      <trkpt lat="44.18634" lon="3.4233">
        <ele>805</ele>
        <time>2019-05-22T21:35:39Z</time>
      </trkpt>
      <trkpt lat="44.18625" lon="3.4235">
        <ele>806</ele>
        <time>2019-05-22T21:35:42Z</time>
      </trkpt>
      <trkpt lat="44.18608" lon="3.42373">
        <ele>805</ele>
        <time>2019-05-22T21:35:46Z</time>
      </trkpt>
      <trkpt lat="44.18592" lon="3.42388">
        <ele>802</ele>
        <time>2019-05-22T21:35:49Z</time>
      </trkpt>
      <trkpt lat="44.18554" lon="3.42416">
        <ele>794</ele>
        <time>2019-05-22T21:35:57Z</time>
      </trkpt>
      <trkpt lat="44.18537" lon="3.42434">
        <ele>793</ele>
        <time>2019-05-22T21:36:01Z</time>
      </trkpt>
      <trkpt lat="44.18511" lon="3.42477">
        <ele>796</ele>
        <time>2019-05-22T21:36:08Z</time>
      </trkpt>
      <trkpt lat="44.18495" lon="3.42491">
        <ele>794</ele>
        <time>2019-05-22T21:36:11Z</time>
      </trkpt>
      <trkpt lat="44.18471" lon="3.425">
        <ele>788</ele>
        <time>2019-05-22T21:36:16Z</time>
      </trkpt>
      <trkpt lat="44.18458" lon="3.42511">
        <ele>786</ele>
        <time>2019-05-22T21:36:18Z</time>
      </trkpt>
      <trkpt lat="44.18416" lon="3.42562">
        <ele>785</ele>
        <time>2019-05-22T21:36:28Z</time>
      </trkpt>
      <trkpt lat="44.18358" lon="3.42613">
        <ele>776</ele>
        <time>2019-05-22T21:36:40Z</time>
      </trkpt>
      <trkpt lat="44.18348" lon="3.42625">
        <ele>776</ele>
        <time>2019-05-22T21:36:43Z</time>
      </trkpt>
      <trkpt lat="44.18341" lon="3.42638">
        <ele>778</ele>
        <time>2019-05-22T21:36:45Z</time>
      </trkpt>
      <trkpt lat="44.18333" lon="3.42656">
        <ele>781</ele>
        <time>2019-05-22T21:36:48Z</time>
      </trkpt>
      <trkpt lat="44.18326" lon="3.42667">
        <ele>782</ele>
        <time>2019-05-22T21:36:49Z</time>
      </trkpt>
      <trkpt lat="44.18319" lon="3.42673">
        <ele>781</ele>
        <time>2019-05-22T21:36:51Z</time>
      </trkpt>
      <trkpt lat="44.1828" lon="3.42695">
        <ele>770</ele>
        <time>2019-05-22T21:36:58Z</time>
      </trkpt>
      <trkpt lat="44.18268" lon="3.42707">
        <ele>768</ele>
        <time>2019-05-22T21:37:01Z</time>
      </trkpt>
      <trkpt lat="44.18246" lon="3.42739">
        <ele>767</ele>
        <time>2019-05-22T21:37:07Z</time>
      </trkpt>
      <trkpt lat="44.18226" lon="3.42779">
        <ele>763</ele>
        <time>2019-05-22T21:37:13Z</time>
      </trkpt>
      <trkpt lat="44.18208" lon="3.42839">
        <ele>760</ele>
        <time>2019-05-22T21:37:21Z</time>
      </trkpt>
      <trkpt lat="44.18202" lon="3.42867">
        <ele>756</ele>
        <time>2019-05-22T21:37:25Z</time>
      </trkpt>
      <trkpt lat="44.18201" lon="3.42876">
        <ele>755</ele>
        <time>2019-05-22T21:37:26Z</time>
      </trkpt>
      <trkpt lat="44.18204" lon="3.42886">
        <ele>756</ele>
        <time>2019-05-22T21:37:27Z</time>
      </trkpt>
      <trkpt lat="44.18228" lon="3.42917">
        <ele>762</ele>
        <time>2019-05-22T21:37:33Z</time>
      </trkpt>
      <trkpt lat="44.18235" lon="3.42929">
        <ele>765</ele>
        <time>2019-05-22T21:37:35Z</time>
      </trkpt>
      <trkpt lat="44.18236" lon="3.42939">
        <ele>766</ele>
        <time>2019-05-22T21:37:37Z</time>
      </trkpt>
      <trkpt lat="44.18235" lon="3.4295">
        <ele>766</ele>
        <time>2019-05-22T21:37:38Z</time>
      </trkpt>
      <trkpt lat="44.18228" lon="3.42961">
        <ele>763</ele>
        <time>2019-05-22T21:37:40Z</time>
      </trkpt>
      <trkpt lat="44.18212" lon="3.42983">
        <ele>756</ele>
        <time>2019-05-22T21:37:44Z</time>
      </trkpt>
      <trkpt lat="44.18207" lon="3.43002">
        <ele>753</ele>
        <time>2019-05-22T21:37:46Z</time>
      </trkpt>
      <trkpt lat="44.18205" lon="3.43052">
        <ele>749</ele>
        <time>2019-05-22T21:37:53Z</time>
      </trkpt>
      <trkpt lat="44.18206" lon="3.43078">
        <ele>749</ele>
        <time>2019-05-22T21:37:56Z</time>
      </trkpt>
      <trkpt lat="44.18214" lon="3.43111">
        <ele>748</ele>
        <time>2019-05-22T21:38:01Z</time>
      </trkpt>
      <trkpt lat="44.18219" lon="3.43126">
        <ele>747</ele>
        <time>2019-05-22T21:38:03Z</time>
      </trkpt>
      <trkpt lat="44.1825" lon="3.4318">
        <ele>747</ele>
        <time>2019-05-22T21:38:11Z</time>
      </trkpt>
      <trkpt lat="44.18267" lon="3.43216">
        <ele>747</ele>
        <time>2019-05-22T21:38:17Z</time>
      </trkpt>
      <trkpt lat="44.18338" lon="3.4338">
        <ele>736</ele>
        <time>2019-05-22T21:38:41Z</time>
      </trkpt>
      <trkpt lat="44.18379" lon="3.43469">
        <ele>734</ele>
        <time>2019-05-22T21:38:55Z</time>
      </trkpt>
      <trkpt lat="44.18382" lon="3.43477">
        <ele>733</ele>
        <time>2019-05-22T21:38:56Z</time>
      </trkpt>
      <trkpt lat="44.18382" lon="3.43487">
        <ele>732</ele>
        <time>2019-05-22T21:38:57Z</time>
      </trkpt>
      <trkpt lat="44.18379" lon="3.43495">
        <ele>731</ele>
        <time>2019-05-22T21:38:58Z</time>
      </trkpt>
      <trkpt lat="44.18374" lon="3.43504">
        <ele>729</ele>
        <time>2019-05-22T21:39:00Z</time>
      </trkpt>
      <trkpt lat="44.18364" lon="3.43504">
        <ele>728</ele>
        <time>2019-05-22T21:39:02Z</time>
      </trkpt>
      <trkpt lat="44.18334" lon="3.43484">
        <ele>725</ele>
        <time>2019-05-22T21:39:08Z</time>
      </trkpt>
      <trkpt lat="44.18231" lon="3.43406">
        <ele>719</ele>
        <time>2019-05-22T21:39:29Z</time>
      </trkpt>
      <trkpt lat="44.18216" lon="3.4339">
        <ele>717</ele>
        <time>2019-05-22T21:39:32Z</time>
      </trkpt>
      <trkpt lat="44.18139" lon="3.43285">
        <ele>712</ele>
        <time>2019-05-22T21:39:51Z</time>
      </trkpt>
      <trkpt lat="44.18132" lon="3.43266">
        <ele>712</ele>
        <time>2019-05-22T21:39:54Z</time>
      </trkpt>
      <trkpt lat="44.18112" lon="3.43153">
        <ele>713</ele>
        <time>2019-05-22T21:40:09Z</time>
      </trkpt>
      <trkpt lat="44.18105" lon="3.43135">
        <ele>712</ele>
        <time>2019-05-22T21:40:11Z</time>
      </trkpt>
      <trkpt lat="44.18099" lon="3.43128">
        <ele>711</ele>
        <time>2019-05-22T21:40:13Z</time>
      </trkpt>
      <trkpt lat="44.18092" lon="3.43122">
        <ele>709</ele>
        <time>2019-05-22T21:40:14Z</time>
      </trkpt>
      <trkpt lat="44.17937" lon="3.43029">
        <ele>702</ele>
        <time>2019-05-22T21:40:44Z</time>
      </trkpt>
      <trkpt lat="44.17934" lon="3.43025">
        <ele>702</ele>
        <time>2019-05-22T21:40:45Z</time>
      </trkpt>
      <trkpt lat="44.17933" lon="3.43018">
        <ele>702</ele>
        <time>2019-05-22T21:40:46Z</time>
      </trkpt>
      <trkpt lat="44.17943" lon="3.42963">
        <ele>702</ele>
        <time>2019-05-22T21:40:53Z</time>
      </trkpt>
      <trkpt lat="44.17929" lon="3.42955">
        <ele>703</ele>
        <time>2019-05-22T21:40:56Z</time>
      </trkpt>
      <trkpt lat="44.17872" lon="3.4291">
        <ele>705</ele>
        <time>2019-05-22T21:41:07Z</time>
      </trkpt>
      <trkpt lat="44.17776" lon="3.42837">
        <ele>710</ele>
        <time>2019-05-22T21:41:27Z</time>
      </trkpt>
      <trkpt lat="44.17769" lon="3.42836">
        <ele>710</ele>
        <time>2019-05-22T21:41:28Z</time>
      </trkpt>
      <trkpt lat="44.17745" lon="3.42838">
        <ele>709</ele>
        <time>2019-05-22T21:41:32Z</time>
      </trkpt>
      <trkpt lat="44.17725" lon="3.42843">
        <ele>709</ele>
        <time>2019-05-22T21:41:36Z</time>
      </trkpt>
      <trkpt lat="44.17702" lon="3.42854">
        <ele>709</ele>
        <time>2019-05-22T21:41:40Z</time>
      </trkpt>
      <trkpt lat="44.17661" lon="3.42884">
        <ele>709</ele>
        <time>2019-05-22T21:41:48Z</time>
      </trkpt>
      <trkpt lat="44.1762" lon="3.42905">
        <ele>711</ele>
        <time>2019-05-22T21:41:56Z</time>
      </trkpt>
      <trkpt lat="44.17417" lon="3.42955">
        <ele>718</ele>
        <time>2019-05-22T21:42:33Z</time>
      </trkpt>
      <trkpt lat="44.17401" lon="3.42964">
        <ele>718</ele>
        <time>2019-05-22T21:42:36Z</time>
      </trkpt>
      <trkpt lat="44.174" lon="3.42959">
        <ele>719</ele>
        <time>2019-05-22T21:42:37Z</time>
      </trkpt>
      <trkpt lat="44.17394" lon="3.42952">
        <ele>720</ele>
        <time>2019-05-22T21:42:38Z</time>
      </trkpt>
      <trkpt lat="44.17389" lon="3.42951">
        <ele>721</ele>
        <time>2019-05-22T21:42:39Z</time>
      </trkpt>
      <trkpt lat="44.1739" lon="3.42938">
        <ele>723</ele>
        <time>2019-05-22T21:42:41Z</time>
      </trkpt>
      <trkpt lat="44.17396" lon="3.42934">
        <ele>723</ele>
        <time>2019-05-22T21:42:42Z</time>
      </trkpt>
      <trkpt lat="44.17419" lon="3.42934">
        <ele>721</ele>
        <time>2019-05-22T21:42:46Z</time>
      </trkpt>
      <trkpt lat="44.17461" lon="3.42916">
        <ele>724</ele>
        <time>2019-05-22T21:42:54Z</time>
      </trkpt>
      <trkpt lat="44.17537" lon="3.4289">
        <ele>724</ele>
        <time>2019-05-22T21:43:08Z</time>
      </trkpt>
      <trkpt lat="44.17556" lon="3.42878">
        <ele>723</ele>
        <time>2019-05-22T21:43:11Z</time>
      </trkpt>
      <trkpt lat="44.17568" lon="3.42866">
        <ele>723</ele>
        <time>2019-05-22T21:43:14Z</time>
      </trkpt>
      <trkpt lat="44.17573" lon="3.4285">
        <ele>725</ele>
        <time>2019-05-22T21:43:16Z</time>
      </trkpt>
      <trkpt lat="44.17571" lon="3.42809">
        <ele>732</ele>
        <time>2019-05-22T21:43:21Z</time>
      </trkpt>
      <trkpt lat="44.17581" lon="3.42768">
        <ele>735</ele>
        <time>2019-05-22T21:43:27Z</time>
      </trkpt>
      <trkpt lat="44.17594" lon="3.42753">
        <ele>736</ele>
        <time>2019-05-22T21:43:30Z</time>
      </trkpt>
      <trkpt lat="44.17641" lon="3.42734">
        <ele>740</ele>
        <time>2019-05-22T21:43:39Z</time>
      </trkpt>
      <trkpt lat="44.17675" lon="3.42724">
        <ele>742</ele>
        <time>2019-05-22T21:43:45Z</time>
      </trkpt>
      <trkpt lat="44.17743" lon="3.4272">
        <ele>740</ele>
        <time>2019-05-22T21:43:57Z</time>
      </trkpt>
      <trkpt lat="44.17753" lon="3.42717">
        <ele>741</ele>
        <time>2019-05-22T21:43:59Z</time>
      </trkpt>
      <trkpt lat="44.17774" lon="3.42697">
        <ele>745</ele>
        <time>2019-05-22T21:44:03Z</time>
      </trkpt>
      <trkpt lat="44.17807" lon="3.42631">
        <ele>758</ele>
        <time>2019-05-22T21:44:14Z</time>
      </trkpt>
      <trkpt lat="44.17817" lon="3.42626">
        <ele>758</ele>
        <time>2019-05-22T21:44:15Z</time>
      </trkpt>
      <trkpt lat="44.17848" lon="3.42636">
        <ele>755</ele>
        <time>2019-05-22T21:44:21Z</time>
      </trkpt>
      <trkpt lat="44.17859" lon="3.42644">
        <ele>755</ele>
        <time>2019-05-22T21:44:23Z</time>
      </trkpt>
      <trkpt lat="44.17867" lon="3.42661">
        <ele>753</ele>
        <time>2019-05-22T21:44:26Z</time>
      </trkpt>
      <trkpt lat="44.17875" lon="3.42691">
        <ele>749</ele>
        <time>2019-05-22T21:44:30Z</time>
      </trkpt>
      <trkpt lat="44.17888" lon="3.42702">
        <ele>750</ele>
        <time>2019-05-22T21:44:33Z</time>
      </trkpt>
      <trkpt lat="44.17909" lon="3.42694">
        <ele>754</ele>
        <time>2019-05-22T21:44:37Z</time>
      </trkpt>
      <trkpt lat="44.17921" lon="3.42687">
        <ele>754</ele>
        <time>2019-05-22T21:44:39Z</time>
      </trkpt>
      <trkpt lat="44.17927" lon="3.42681">
        <ele>753</ele>
        <time>2019-05-22T21:44:40Z</time>
      </trkpt>
      <trkpt lat="44.17935" lon="3.42663">
        <ele>754</ele>
        <time>2019-05-22T21:44:43Z</time>
      </trkpt>
      <trkpt lat="44.1794" lon="3.42643">
        <ele>756</ele>
        <time>2019-05-22T21:44:46Z</time>
      </trkpt>
      <trkpt lat="44.1794" lon="3.42628">
        <ele>758</ele>
        <time>2019-05-22T21:44:48Z</time>
      </trkpt>
      <trkpt lat="44.17935" lon="3.42614">
        <ele>761</ele>
        <time>2019-05-22T21:44:50Z</time>
      </trkpt>
      <trkpt lat="44.17926" lon="3.42607">
        <ele>764</ele>
        <time>2019-05-22T21:44:51Z</time>
      </trkpt>
      <trkpt lat="44.17919" lon="3.42606">
        <ele>766</ele>
        <time>2019-05-22T21:44:53Z</time>
      </trkpt>
      <trkpt lat="44.17899" lon="3.42609">
        <ele>764</ele>
        <time>2019-05-22T21:44:56Z</time>
      </trkpt>
      <trkpt lat="44.17887" lon="3.42607">
        <ele>764</ele>
        <time>2019-05-22T21:44:58Z</time>
      </trkpt>
      <trkpt lat="44.17856" lon="3.42592">
        <ele>765</ele>
        <time>2019-05-22T21:45:04Z</time>
      </trkpt>
      <trkpt lat="44.17831" lon="3.42567">
        <ele>771</ele>
        <time>2019-05-22T21:45:10Z</time>
      </trkpt>
      <trkpt lat="44.17822" lon="3.42561">
        <ele>774</ele>
        <time>2019-05-22T21:45:11Z</time>
      </trkpt>
      <trkpt lat="44.17815" lon="3.42559">
        <ele>775</ele>
        <time>2019-05-22T21:45:13Z</time>
      </trkpt>
      <trkpt lat="44.17805" lon="3.42563">
        <ele>776</ele>
        <time>2019-05-22T21:45:15Z</time>
      </trkpt>
      <trkpt lat="44.17788" lon="3.42582">
        <ele>773</ele>
        <time>2019-05-22T21:45:18Z</time>
      </trkpt>
      <trkpt lat="44.1771" lon="3.42611">
        <ele>776</ele>
        <time>2019-05-22T21:45:33Z</time>
      </trkpt>
      <trkpt lat="44.17668" lon="3.42615">
        <ele>779</ele>
        <time>2019-05-22T21:45:40Z</time>
      </trkpt>
      <trkpt lat="44.17662" lon="3.42611">
        <ele>781</ele>
        <time>2019-05-22T21:45:42Z</time>
      </trkpt>
      <trkpt lat="44.17662" lon="3.42605">
        <ele>783</ele>
        <time>2019-05-22T21:45:42Z</time>
      </trkpt>
      <trkpt lat="44.17665" lon="3.42602">
        <ele>784</ele>
        <time>2019-05-22T21:45:43Z</time>
      </trkpt>
      <trkpt lat="44.1768" lon="3.42601">
        <ele>783</ele>
        <time>2019-05-22T21:45:46Z</time>
      </trkpt>
      <trkpt lat="44.17698" lon="3.42595">
        <ele>783</ele>
        <time>2019-05-22T21:45:49Z</time>
      </trkpt>
      <trkpt lat="44.17745" lon="3.42546">
        <ele>792</ele>
        <time>2019-05-22T21:45:59Z</time>
      </trkpt>
      <trkpt lat="44.17819" lon="3.42443">
        <ele>807</ele>
        <time>2019-05-22T21:46:18Z</time>
      </trkpt>
      <trkpt lat="44.17832" lon="3.42428">
        <ele>808</ele>
        <time>2019-05-22T21:46:21Z</time>
      </trkpt>
      <trkpt lat="44.17839" lon="3.42427">
        <ele>808</ele>
        <time>2019-05-22T21:46:22Z</time>
      </trkpt>
      <trkpt lat="44.17878" lon="3.42463">
        <ele>799</ele>
        <time>2019-05-22T21:46:31Z</time>
      </trkpt>
      <trkpt lat="44.17891" lon="3.42468">
        <ele>798</ele>
        <time>2019-05-22T21:46:33Z</time>
      </trkpt>
      <trkpt lat="44.1791" lon="3.42466">
        <ele>799</ele>
        <time>2019-05-22T21:46:36Z</time>
      </trkpt>
      <trkpt lat="44.17923" lon="3.42457">
        <ele>800</ele>
        <time>2019-05-22T21:46:39Z</time>
      </trkpt>
      <trkpt lat="44.17934" lon="3.42447">
        <ele>799</ele>
        <time>2019-05-22T21:46:41Z</time>
      </trkpt>
      <trkpt lat="44.17943" lon="3.42429">
        <ele>801</ele>
        <time>2019-05-22T21:46:44Z</time>
      </trkpt>
      <trkpt lat="44.17978" lon="3.42301">
        <ele>827</ele>
        <time>2019-05-22T21:47:02Z</time>
      </trkpt>
      <trkpt lat="44.18006" lon="3.42239">
        <ele>837</ele>
        <time>2019-05-22T21:47:11Z</time>
      </trkpt>
      <trkpt lat="44.18023" lon="3.42241">
        <ele>835</ele>
        <time>2019-05-22T21:47:14Z</time>
      </trkpt>
      <trkpt lat="44.18053" lon="3.42276">
        <ele>822</ele>
        <time>2019-05-22T21:47:21Z</time>
      </trkpt>
      <trkpt lat="44.18067" lon="3.4228">
        <ele>819</ele>
        <time>2019-05-22T21:47:23Z</time>
      </trkpt>
      <trkpt lat="44.1808" lon="3.42271">
        <ele>821</ele>
        <time>2019-05-22T21:47:26Z</time>
      </trkpt>
      <trkpt lat="44.18112" lon="3.42233">
        <ele>827</ele>
        <time>2019-05-22T21:47:33Z</time>
      </trkpt>
      <trkpt lat="44.18182" lon="3.42198">
        <ele>823</ele>
        <time>2019-05-22T21:47:47Z</time>
      </trkpt>
      <trkpt lat="44.18195" lon="3.42174">
        <ele>827</ele>
        <time>2019-05-22T21:47:51Z</time>
      </trkpt>
      <trkpt lat="44.18243" lon="3.4199">
        <ele>849</ele>
        <time>2019-05-22T21:48:16Z</time>
      </trkpt>
      <trkpt lat="44.18292" lon="3.41925">
        <ele>847</ele>
        <time>2019-05-22T21:48:28Z</time>
      </trkpt>
      <trkpt lat="44.18304" lon="3.41867">
        <ele>851</ele>
        <time>2019-05-22T21:48:35Z</time>
      </trkpt>
      <trkpt lat="44.18307" lon="3.41762">
        <ele>861</ele>
        <time>2019-05-22T21:48:49Z</time>
      </trkpt>
      <trkpt lat="44.18339" lon="3.41654">
        <ele>865</ele>
        <time>2019-05-22T21:49:04Z</time>
      </trkpt>
      <trkpt lat="44.18362" lon="3.4161">
        <ele>866</ele>
        <time>2019-05-22T21:49:11Z</time>
      </trkpt>
      <trkpt lat="44.18386" lon="3.41531">
        <ele>867</ele>
        <time>2019-05-22T21:49:21Z</time>
      </trkpt>
      <trkpt lat="44.1838" lon="3.4135">
        <ele>879</ele>
        <time>2019-05-22T21:49:45Z</time>
      </trkpt>
      <trkpt lat="44.18362" lon="3.41288">
        <ele>883</ele>
        <time>2019-05-22T21:49:53Z</time>
      </trkpt>
      <trkpt lat="44.18286" lon="3.41207">
        <ele>891</ele>
        <time>2019-05-22T21:50:10Z</time>
      </trkpt>
      <trkpt lat="44.18265" lon="3.41196">
        <ele>893</ele>
        <time>2019-05-22T21:50:14Z</time>
      </trkpt>
      <trkpt lat="44.18241" lon="3.41195">
        <ele>897</ele>
        <time>2019-05-22T21:50:18Z</time>
      </trkpt>
      <trkpt lat="44.18187" lon="3.41217">
        <ele>908</ele>
        <time>2019-05-22T21:50:28Z</time>
      </trkpt>
      <trkpt lat="44.18168" lon="3.41211">
        <ele>910</ele>
        <time>2019-05-22T21:50:32Z</time>
      </trkpt>
      <trkpt lat="44.18158" lon="3.41186">
        <ele>910</ele>
        <time>2019-05-22T21:50:36Z</time>
      </trkpt>
      <trkpt lat="44.18142" lon="3.41154">
        <ele>913</ele>
        <time>2019-05-22T21:50:40Z</time>
      </trkpt>
      <trkpt lat="44.18142" lon="3.41106">
        <ele>913</ele>
        <time>2019-05-22T21:50:47Z</time>
      </trkpt>
      <trkpt lat="44.18119" lon="3.4106">
        <ele>921</ele>
        <time>2019-05-22T21:50:54Z</time>
      </trkpt>
      <trkpt lat="44.1812" lon="3.41036">
        <ele>922</ele>
        <time>2019-05-22T21:50:57Z</time>
      </trkpt>
      <trkpt lat="44.18135" lon="3.41011">
        <ele>921</ele>
        <time>2019-05-22T21:51:01Z</time>
      </trkpt>
      <trkpt lat="44.18168" lon="3.40991">
        <ele>919</ele>
        <time>2019-05-22T21:51:07Z</time>
      </trkpt>
      <trkpt lat="44.18185" lon="3.4099">
        <ele>916</ele>
        <time>2019-05-22T21:51:10Z</time>
      </trkpt>
      <trkpt lat="44.18193" lon="3.40965">
        <ele>916</ele>
        <time>2019-05-22T21:51:14Z</time>
      </trkpt>
      <trkpt lat="44.18181" lon="3.40899">
        <ele>922</ele>
        <time>2019-05-22T21:51:23Z</time>
      </trkpt>
      <trkpt lat="44.18158" lon="3.40872">
        <ele>925</ele>
        <time>2019-05-22T21:51:28Z</time>
      </trkpt>
      <trkpt lat="44.18114" lon="3.40862">
        <ele>927</ele>
        <time>2019-05-22T21:51:36Z</time>
      </trkpt>
      <trkpt lat="44.18068" lon="3.40838">
        <ele>929</ele>
        <time>2019-05-22T21:51:45Z</time>
      </trkpt>
      <trkpt lat="44.17982" lon="3.40828">
        <ele>931</ele>
        <time>2019-05-22T21:52:00Z</time>
      </trkpt>
      <trkpt lat="44.17939" lon="3.40787">
        <ele>930</ele>
        <time>2019-05-22T21:52:09Z</time>
      </trkpt>
      <trkpt lat="44.17869" lon="3.4065">
        <ele>927</ele>
        <time>2019-05-22T21:52:31Z</time>
      </trkpt>
      <trkpt lat="44.17835" lon="3.40577">
        <ele>930</ele>
        <time>2019-05-22T21:52:42Z</time>
      </trkpt>
      <trkpt lat="44.17795" lon="3.405">
        <ele>931</ele>
        <time>2019-05-22T21:52:54Z</time>
      </trkpt>
      <trkpt lat="44.17773" lon="3.40452">
        <ele>932</ele>
        <time>2019-05-22T21:53:01Z</time>
      </trkpt>
      <trkpt lat="44.1777" lon="3.40422">
        <ele>932</ele>
        <time>2019-05-22T21:53:05Z</time>
      </trkpt>
      <trkpt lat="44.17771" lon="3.40408">
        <ele>932</ele>
        <time>2019-05-22T21:53:07Z</time>
      </trkpt>
      <trkpt lat="44.17771" lon="3.40408">
        <ele>932</ele>
        <time>2019-05-22T21:53:07Z</time>
      </trkpt>
      <trkpt lat="44.17786" lon="3.40279">
        <ele>940</ele>
        <time>2019-05-22T21:53:24Z</time>
      </trkpt>
      <trkpt lat="44.17785" lon="3.40239">
        <ele>943</ele>
        <time>2019-05-22T21:53:29Z</time>
      </trkpt>
      <trkpt lat="44.17776" lon="3.40203">
        <ele>944</ele>
        <time>2019-05-22T21:53:34Z</time>
      </trkpt>
      <trkpt lat="44.17756" lon="3.40158">
        <ele>943</ele>
        <time>2019-05-22T21:53:40Z</time>
      </trkpt>
      <trkpt lat="44.17738" lon="3.40094">
        <ele>944</ele>
        <time>2019-05-22T21:53:49Z</time>
      </trkpt>
      <trkpt lat="44.17726" lon="3.40035">
        <ele>944</ele>
        <time>2019-05-22T21:53:57Z</time>
      </trkpt>
      <trkpt lat="44.17725" lon="3.40006">
        <ele>945</ele>
        <time>2019-05-22T21:54:01Z</time>
      </trkpt>
      <trkpt lat="44.1773" lon="3.39982">
        <ele>946</ele>
        <time>2019-05-22T21:54:04Z</time>
      </trkpt>
      <trkpt lat="44.17741" lon="3.39956">
        <ele>949</ele>
        <time>2019-05-22T21:54:08Z</time>
      </trkpt>
      <trkpt lat="44.1775" lon="3.3993">
        <ele>951</ele>
        <time>2019-05-22T21:54:11Z</time>
      </trkpt>
      <trkpt lat="44.17754" lon="3.39869">
        <ele>951</ele>
        <time>2019-05-22T21:54:19Z</time>
      </trkpt>
      <trkpt lat="44.1777" lon="3.39817">
        <ele>952</ele>
        <time>2019-05-22T21:54:26Z</time>
      </trkpt>
      <trkpt lat="44.17791" lon="3.3976">
        <ele>954</ele>
        <time>2019-05-22T21:54:35Z</time>
      </trkpt>
      <trkpt lat="44.17804" lon="3.39714">
        <ele>955</ele>
        <time>2019-05-22T21:54:41Z</time>
      </trkpt>
      <trkpt lat="44.17807" lon="3.39678">
        <ele>956</ele>
        <time>2019-05-22T21:54:45Z</time>
      </trkpt>
      <trkpt lat="44.17809" lon="3.39631">
        <ele>957</ele>
        <time>2019-05-22T21:54:51Z</time>
      </trkpt>
      <trkpt lat="44.17827" lon="3.39571">
        <ele>959</ele>
        <time>2019-05-22T21:55:00Z</time>
      </trkpt>
      <trkpt lat="44.17834" lon="3.39535">
        <ele>959</ele>
        <time>2019-05-22T21:55:05Z</time>
      </trkpt>
      <trkpt lat="44.17839" lon="3.39474">
        <ele>960</ele>
        <time>2019-05-22T21:55:12Z</time>
      </trkpt>
      <trkpt lat="44.17837" lon="3.39438">
        <ele>961</ele>
        <time>2019-05-22T21:55:17Z</time>
      </trkpt>
      <trkpt lat="44.1783" lon="3.39405">
        <ele>962</ele>
        <time>2019-05-22T21:55:21Z</time>
      </trkpt>
      <trkpt lat="44.17824" lon="3.39355">
        <ele>964</ele>
        <time>2019-05-22T21:55:28Z</time>
      </trkpt>
      <trkpt lat="44.17827" lon="3.39307">
        <ele>964</ele>
        <time>2019-05-22T21:55:34Z</time>
      </trkpt>
      <trkpt lat="44.17841" lon="3.39194">
        <ele>965</ele>
        <time>2019-05-22T21:55:49Z</time>
      </trkpt>
      <trkpt lat="44.17851" lon="3.39162">
        <ele>965</ele>
        <time>2019-05-22T21:55:53Z</time>
      </trkpt>
      <trkpt lat="44.1787" lon="3.39126">
        <ele>965</ele>
        <time>2019-05-22T21:55:59Z</time>
      </trkpt>
      <trkpt lat="44.17892" lon="3.39069">
        <ele>965</ele>
        <time>2019-05-22T21:56:07Z</time>
      </trkpt>
      <trkpt lat="44.17895" lon="3.3904">
        <ele>965</ele>
        <time>2019-05-22T21:56:11Z</time>
      </trkpt>
      <trkpt lat="44.17893" lon="3.38965">
        <ele>966</ele>
        <time>2019-05-22T21:56:20Z</time>
      </trkpt>
      <trkpt lat="44.179" lon="3.38926">
        <ele>966</ele>
        <time>2019-05-22T21:56:25Z</time>
      </trkpt>
      <trkpt lat="44.1792" lon="3.38876">
        <ele>964</ele>
        <time>2019-05-22T21:56:33Z</time>
      </trkpt>
      <trkpt lat="44.18032" lon="3.38698">
        <ele>965</ele>
        <time>2019-05-22T21:57:03Z</time>
      </trkpt>
      <trkpt lat="44.18062" lon="3.38664">
        <ele>964</ele>
        <time>2019-05-22T21:57:10Z</time>
      </trkpt>
      <trkpt lat="44.18097" lon="3.3865">
        <ele>966</ele>
        <time>2019-05-22T21:57:16Z</time>
      </trkpt>
      <trkpt lat="44.18131" lon="3.38651">
        <ele>967</ele>
        <time>2019-05-22T21:57:22Z</time>
      </trkpt>
      <trkpt lat="44.18153" lon="3.38643">
        <ele>967</ele>
        <time>2019-05-22T21:57:26Z</time>
      </trkpt>
      <trkpt lat="44.18199" lon="3.38604">
        <ele>966</ele>
        <time>2019-05-22T21:57:36Z</time>
      </trkpt>
      <trkpt lat="44.18214" lon="3.38588">
        <ele>965</ele>
        <time>2019-05-22T21:57:39Z</time>
      </trkpt>
      <trkpt lat="44.18224" lon="3.38566">
        <ele>965</ele>
        <time>2019-05-22T21:57:43Z</time>
      </trkpt>
      <trkpt lat="44.18233" lon="3.38521">
        <ele>965</ele>
        <time>2019-05-22T21:57:49Z</time>
      </trkpt>
      <trkpt lat="44.18245" lon="3.3842">
        <ele>964</ele>
        <time>2019-05-22T21:58:02Z</time>
      </trkpt>
      <trkpt lat="44.18255" lon="3.38376">
        <ele>965</ele>
        <time>2019-05-22T21:58:08Z</time>
      </trkpt>
      <trkpt lat="44.18275" lon="3.38334">
        <ele>963</ele>
        <time>2019-05-22T21:58:14Z</time>
      </trkpt>
      <trkpt lat="44.1828" lon="3.38309">
        <ele>963</ele>
        <time>2019-05-22T21:58:17Z</time>
      </trkpt>
      <trkpt lat="44.18279" lon="3.38282">
        <ele>963</ele>
        <time>2019-05-22T21:58:21Z</time>
      </trkpt>
      <trkpt lat="44.18275" lon="3.38248">
        <ele>964</ele>
        <time>2019-05-22T21:58:25Z</time>
      </trkpt>
      <trkpt lat="44.18279" lon="3.38214">
        <ele>963</ele>
        <time>2019-05-22T21:58:30Z</time>
      </trkpt>
      <trkpt lat="44.18287" lon="3.38176">
        <ele>961</ele>
        <time>2019-05-22T21:58:35Z</time>
      </trkpt>
      <trkpt lat="44.18289" lon="3.38145">
        <ele>959</ele>
        <time>2019-05-22T21:58:39Z</time>
      </trkpt>
      <trkpt lat="44.18287" lon="3.38117">
        <ele>958</ele>
        <time>2019-05-22T21:58:42Z</time>
      </trkpt>
      <trkpt lat="44.18287" lon="3.38091">
        <ele>957</ele>
        <time>2019-05-22T21:58:46Z</time>
      </trkpt>
      <trkpt lat="44.18295" lon="3.3804">
        <ele>955</ele>
        <time>2019-05-22T21:58:52Z</time>
      </trkpt>
      <trkpt lat="44.18303" lon="3.38013">
        <ele>954</ele>
        <time>2019-05-22T21:58:56Z</time>
      </trkpt>
      <trkpt lat="44.1832" lon="3.37985">
        <ele>950</ele>
        <time>2019-05-22T21:59:01Z</time>
      </trkpt>
      <trkpt lat="44.18325" lon="3.37969">
        <ele>949</ele>
        <time>2019-05-22T21:59:03Z</time>
      </trkpt>
      <trkpt lat="44.18326" lon="3.37953">
        <ele>949</ele>
        <time>2019-05-22T21:59:05Z</time>
      </trkpt>
      <trkpt lat="44.1832" lon="3.3789">
        <ele>949</ele>
        <time>2019-05-22T21:59:13Z</time>
      </trkpt>
      <trkpt lat="44.1832" lon="3.37864">
        <ele>948</ele>
        <time>2019-05-22T21:59:16Z</time>
      </trkpt>
      <trkpt lat="44.18329" lon="3.37819">
        <ele>945</ele>
        <time>2019-05-22T21:59:22Z</time>
      </trkpt>
      <trkpt lat="44.18331" lon="3.37802">
        <ele>945</ele>
        <time>2019-05-22T21:59:24Z</time>
      </trkpt>
      <trkpt lat="44.18327" lon="3.37784">
        <ele>945</ele>
        <time>2019-05-22T21:59:27Z</time>
      </trkpt>
      <trkpt lat="44.18317" lon="3.37758">
        <ele>945</ele>
        <time>2019-05-22T21:59:31Z</time>
      </trkpt>
      <trkpt lat="44.18314" lon="3.3774">
        <ele>945</ele>
        <time>2019-05-22T21:59:33Z</time>
      </trkpt>
      <trkpt lat="44.18316" lon="3.37716">
        <ele>943</ele>
        <time>2019-05-22T21:59:36Z</time>
      </trkpt>
      <trkpt lat="44.18308" lon="3.37672">
        <ele>942</ele>
        <time>2019-05-22T21:59:42Z</time>
      </trkpt>
      <trkpt lat="44.18304" lon="3.37637">
        <ele>942</ele>
        <time>2019-05-22T21:59:46Z</time>
      </trkpt>
      <trkpt lat="44.18299" lon="3.37615">
        <ele>942</ele>
        <time>2019-05-22T21:59:49Z</time>
      </trkpt>
      <trkpt lat="44.18291" lon="3.37595">
        <ele>942</ele>
        <time>2019-05-22T21:59:52Z</time>
      </trkpt>
      <trkpt lat="44.18275" lon="3.37581">
        <ele>943</ele>
        <time>2019-05-22T21:59:56Z</time>
      </trkpt>
      <trkpt lat="44.18227" lon="3.37551">
        <ele>944</ele>
        <time>2019-05-22T22:00:05Z</time>
      </trkpt>
      <trkpt lat="44.18209" lon="3.37528">
        <ele>943</ele>
        <time>2019-05-22T22:00:09Z</time>
      </trkpt>
      <trkpt lat="44.18199" lon="3.37502">
        <ele>942</ele>
        <time>2019-05-22T22:00:13Z</time>
      </trkpt>
      <trkpt lat="44.18192" lon="3.3747">
        <ele>942</ele>
        <time>2019-05-22T22:00:17Z</time>
      </trkpt>
      <trkpt lat="44.18189" lon="3.37434">
        <ele>941</ele>
        <time>2019-05-22T22:00:22Z</time>
      </trkpt>
      <trkpt lat="44.18189" lon="3.37273">
        <ele>937</ele>
        <time>2019-05-22T22:00:43Z</time>
      </trkpt>
      <trkpt lat="44.18185" lon="3.37248">
        <ele>937</ele>
        <time>2019-05-22T22:00:46Z</time>
      </trkpt>
      <trkpt lat="44.18177" lon="3.37226">
        <ele>936</ele>
        <time>2019-05-22T22:00:49Z</time>
      </trkpt>
      <trkpt lat="44.1816" lon="3.37197">
        <ele>934</ele>
        <time>2019-05-22T22:00:54Z</time>
      </trkpt>
      <trkpt lat="44.18147" lon="3.37165">
        <ele>933</ele>
        <time>2019-05-22T22:00:58Z</time>
      </trkpt>
      <trkpt lat="44.18141" lon="3.37133">
        <ele>933</ele>
        <time>2019-05-22T22:01:03Z</time>
      </trkpt>
      <trkpt lat="44.18135" lon="3.37079">
        <ele>933</ele>
        <time>2019-05-22T22:01:10Z</time>
      </trkpt>
      <trkpt lat="44.18114" lon="3.37004">
        <ele>931</ele>
        <time>2019-05-22T22:01:20Z</time>
      </trkpt>
      <trkpt lat="44.18077" lon="3.3682">
        <ele>930</ele>
        <time>2019-05-22T22:01:44Z</time>
      </trkpt>
      <trkpt lat="44.18058" lon="3.36687">
        <ele>930</ele>
        <time>2019-05-22T22:02:02Z</time>
      </trkpt>
      <trkpt lat="44.18055" lon="3.36638">
        <ele>929</ele>
        <time>2019-05-22T22:02:08Z</time>
      </trkpt>
      <trkpt lat="44.1806" lon="3.36534">
        <ele>928</ele>
        <time>2019-05-22T22:02:21Z</time>
      </trkpt>
      <trkpt lat="44.18056" lon="3.365">
        <ele>928</ele>
        <time>2019-05-22T22:02:26Z</time>
      </trkpt>
      <trkpt lat="44.18042" lon="3.36455">
        <ele>928</ele>
        <time>2019-05-22T22:02:32Z</time>
      </trkpt>
      <trkpt lat="44.18007" lon="3.3637">
        <ele>925</ele>
        <time>2019-05-22T22:02:44Z</time>
      </trkpt>
      <trkpt lat="44.18002" lon="3.36342">
        <ele>925</ele>
        <time>2019-05-22T22:02:48Z</time>
      </trkpt>
      <trkpt lat="44.17997" lon="3.36301">
        <ele>925</ele>
        <time>2019-05-22T22:02:53Z</time>
      </trkpt>
      <trkpt lat="44.17998" lon="3.3628">
        <ele>926</ele>
        <time>2019-05-22T22:02:56Z</time>
      </trkpt>
      <trkpt lat="44.18011" lon="3.36251">
        <ele>927</ele>
        <time>2019-05-22T22:03:00Z</time>
      </trkpt>
      <trkpt lat="44.18077" lon="3.36133">
        <ele>925</ele>
        <time>2019-05-22T22:03:19Z</time>
      </trkpt>
      <trkpt lat="44.18121" lon="3.3608">
        <ele>924</ele>
        <time>2019-05-22T22:03:30Z</time>
      </trkpt>
      <trkpt lat="44.18254" lon="3.35921">
        <ele>917</ele>
        <time>2019-05-22T22:04:01Z</time>
      </trkpt>
      <trkpt lat="44.1839" lon="3.35774">
        <ele>912</ele>
        <time>2019-05-22T22:04:32Z</time>
      </trkpt>
      <trkpt lat="44.18557" lon="3.35597">
        <ele>909</ele>
        <time>2019-05-22T22:05:09Z</time>
      </trkpt>
      <trkpt lat="44.186" lon="3.35548">
        <ele>909</ele>
        <time>2019-05-22T22:05:19Z</time>
      </trkpt>
      <trkpt lat="44.1861" lon="3.3553">
        <ele>910</ele>
        <time>2019-05-22T22:05:22Z</time>
      </trkpt>
      <trkpt lat="44.18623" lon="3.35496">
        <ele>910</ele>
        <time>2019-05-22T22:05:27Z</time>
      </trkpt>
      <trkpt lat="44.18657" lon="3.35372">
        <ele>908</ele>
        <time>2019-05-22T22:05:44Z</time>
      </trkpt>
      <trkpt lat="44.18663" lon="3.35356">
        <ele>908</ele>
        <time>2019-05-22T22:05:46Z</time>
      </trkpt>
      <trkpt lat="44.18683" lon="3.35326">
        <ele>908</ele>
        <time>2019-05-22T22:05:51Z</time>
      </trkpt>
      <trkpt lat="44.18701" lon="3.35304">
        <ele>908</ele>
        <time>2019-05-22T22:05:55Z</time>
      </trkpt>
      <trkpt lat="44.1872" lon="3.35291">
        <ele>908</ele>
        <time>2019-05-22T22:05:59Z</time>
      </trkpt>
      <trkpt lat="44.18758" lon="3.35271">
        <ele>909</ele>
        <time>2019-05-22T22:06:06Z</time>
      </trkpt>
      <trkpt lat="44.18788" lon="3.35245">
        <ele>910</ele>
        <time>2019-05-22T22:06:13Z</time>
      </trkpt>
      <trkpt lat="44.18821" lon="3.35208">
        <ele>911</ele>
        <time>2019-05-22T22:06:20Z</time>
      </trkpt>
      <trkpt lat="44.18826" lon="3.3519">
        <ele>911</ele>
        <time>2019-05-22T22:06:23Z</time>
      </trkpt>
      <trkpt lat="44.18843" lon="3.35097">
        <ele>907</ele>
        <time>2019-05-22T22:06:35Z</time>
      </trkpt>
      <trkpt lat="44.18865" lon="3.34833">
        <ele>904</ele>
        <time>2019-05-22T22:07:09Z</time>
      </trkpt>
      <trkpt lat="44.18874" lon="3.34739">
        <ele>904</ele>
        <time>2019-05-22T22:07:21Z</time>
      </trkpt>
      <trkpt lat="44.18873" lon="3.3472">
        <ele>904</ele>
        <time>2019-05-22T22:07:23Z</time>
      </trkpt>
      <trkpt lat="44.18817" lon="3.34402">
        <ele>898</ele>
        <time>2019-05-22T22:08:05Z</time>
      </trkpt>
      <trkpt lat="44.18808" lon="3.34359">
        <ele>896</ele>
        <time>2019-05-22T22:08:11Z</time>
      </trkpt>
      <trkpt lat="44.18744" lon="3.34153">
        <ele>890</ele>
        <time>2019-05-22T22:08:39Z</time>
      </trkpt>
      <trkpt lat="44.1874" lon="3.34135">
        <ele>889</ele>
        <time>2019-05-22T22:08:42Z</time>
      </trkpt>
      <trkpt lat="44.18737" lon="3.34051">
        <ele>888</ele>
        <time>2019-05-22T22:08:53Z</time>
      </trkpt>
      <trkpt lat="44.18738" lon="3.34012">
        <ele>887</ele>
        <time>2019-05-22T22:08:58Z</time>
      </trkpt>
      <trkpt lat="44.18735" lon="3.33981">
        <ele>887</ele>
        <time>2019-05-22T22:09:02Z</time>
      </trkpt>
      <trkpt lat="44.18726" lon="3.33916">
        <ele>887</ele>
        <time>2019-05-22T22:09:10Z</time>
      </trkpt>
      <trkpt lat="44.18725" lon="3.33895">
        <ele>887</ele>
        <time>2019-05-22T22:09:13Z</time>
      </trkpt>
      <trkpt lat="44.18729" lon="3.33873">
        <ele>886</ele>
        <time>2019-05-22T22:09:16Z</time>
      </trkpt>
      <trkpt lat="44.18749" lon="3.33818">
        <ele>885</ele>
        <time>2019-05-22T22:09:23Z</time>
      </trkpt>
      <trkpt lat="44.18787" lon="3.33697">
        <ele>887</ele>
        <time>2019-05-22T22:09:40Z</time>
      </trkpt>
      <trkpt lat="44.18792" lon="3.33674">
        <ele>887</ele>
        <time>2019-05-22T22:09:43Z</time>
      </trkpt>
      <trkpt lat="44.18792" lon="3.33636">
        <ele>887</ele>
        <time>2019-05-22T22:09:48Z</time>
      </trkpt>
      <trkpt lat="44.18789" lon="3.33575">
        <ele>886</ele>
        <time>2019-05-22T22:09:56Z</time>
      </trkpt>
      <trkpt lat="44.18778" lon="3.33521">
        <ele>886</ele>
        <time>2019-05-22T22:10:03Z</time>
      </trkpt>
      <trkpt lat="44.18781" lon="3.33496">
        <ele>886</ele>
        <time>2019-05-22T22:10:06Z</time>
      </trkpt>
      <trkpt lat="44.18787" lon="3.33472">
        <ele>885</ele>
        <time>2019-05-22T22:10:10Z</time>
      </trkpt>
      <trkpt lat="44.18796" lon="3.33456">
        <ele>885</ele>
        <time>2019-05-22T22:10:12Z</time>
      </trkpt>
      <trkpt lat="44.18817" lon="3.33433">
        <ele>885</ele>
        <time>2019-05-22T22:10:17Z</time>
      </trkpt>
      <trkpt lat="44.18823" lon="3.33421">
        <ele>884</ele>
        <time>2019-05-22T22:10:19Z</time>
      </trkpt>
      <trkpt lat="44.18823" lon="3.33401">
        <ele>884</ele>
        <time>2019-05-22T22:10:21Z</time>
      </trkpt>
      <trkpt lat="44.18821" lon="3.33328">
        <ele>883</ele>
        <time>2019-05-22T22:10:31Z</time>
      </trkpt>
      <trkpt lat="44.18823" lon="3.33296">
        <ele>882</ele>
        <time>2019-05-22T22:10:35Z</time>
      </trkpt>
      <trkpt lat="44.18829" lon="3.33261">
        <ele>880</ele>
        <time>2019-05-22T22:10:39Z</time>
      </trkpt>
      <trkpt lat="44.18829" lon="3.33214">
        <ele>878</ele>
        <time>2019-05-22T22:10:45Z</time>
      </trkpt>
      <trkpt lat="44.18826" lon="3.33187">
        <ele>878</ele>
        <time>2019-05-22T22:10:49Z</time>
      </trkpt>
      <trkpt lat="44.18803" lon="3.33099">
        <ele>875</ele>
        <time>2019-05-22T22:11:01Z</time>
      </trkpt>
      <trkpt lat="44.18795" lon="3.33062">
        <ele>874</ele>
        <time>2019-05-22T22:11:06Z</time>
      </trkpt>
      <trkpt lat="44.1879" lon="3.33051">
        <ele>874</ele>
        <time>2019-05-22T22:11:07Z</time>
      </trkpt>
      <trkpt lat="44.18768" lon="3.33021">
        <ele>872</ele>
        <time>2019-05-22T22:11:13Z</time>
      </trkpt>
      <trkpt lat="44.18763" lon="3.33005">
        <ele>871</ele>
        <time>2019-05-22T22:11:15Z</time>
      </trkpt>
      <trkpt lat="44.1876" lon="3.32986">
        <ele>871</ele>
        <time>2019-05-22T22:11:18Z</time>
      </trkpt>
      <trkpt lat="44.18756" lon="3.3291">
        <ele>869</ele>
        <time>2019-05-22T22:11:27Z</time>
      </trkpt>
      <trkpt lat="44.18751" lon="3.32898">
        <ele>868</ele>
        <time>2019-05-22T22:11:29Z</time>
      </trkpt>
      <trkpt lat="44.18719" lon="3.3286">
        <ele>872</ele>
        <time>2019-05-22T22:11:37Z</time>
      </trkpt>
      <trkpt lat="44.18709" lon="3.32839">
        <ele>872</ele>
        <time>2019-05-22T22:11:40Z</time>
      </trkpt>
      <trkpt lat="44.187" lon="3.3281">
        <ele>872</ele>
        <time>2019-05-22T22:11:44Z</time>
      </trkpt>
      <trkpt lat="44.18695" lon="3.32773">
        <ele>871</ele>
        <time>2019-05-22T22:11:49Z</time>
      </trkpt>
      <trkpt lat="44.18696" lon="3.32756">
        <ele>870</ele>
        <time>2019-05-22T22:11:51Z</time>
      </trkpt>
      <trkpt lat="44.187" lon="3.32718">
        <ele>869</ele>
        <time>2019-05-22T22:11:56Z</time>
      </trkpt>
      <trkpt lat="44.18699" lon="3.32699">
        <ele>869</ele>
        <time>2019-05-22T22:11:58Z</time>
      </trkpt>
      <trkpt lat="44.18665" lon="3.32546">
        <ele>868</ele>
        <time>2019-05-22T22:12:19Z</time>
      </trkpt>
      <trkpt lat="44.18659" lon="3.32508">
        <ele>870</ele>
        <time>2019-05-22T22:12:24Z</time>
      </trkpt>
      <trkpt lat="44.18649" lon="3.32471">
        <ele>872</ele>
        <time>2019-05-22T22:12:29Z</time>
      </trkpt>
      <trkpt lat="44.18648" lon="3.32452">
        <ele>873</ele>
        <time>2019-05-22T22:12:31Z</time>
      </trkpt>
      <trkpt lat="44.1865" lon="3.32431">
        <ele>873</ele>
        <time>2019-05-22T22:12:34Z</time>
      </trkpt>
      <trkpt lat="44.18667" lon="3.32357">
        <ele>872</ele>
        <time>2019-05-22T22:12:44Z</time>
      </trkpt>
      <trkpt lat="44.18692" lon="3.32235">
        <ele>873</ele>
        <time>2019-05-22T22:13:00Z</time>
      </trkpt>
      <trkpt lat="44.18699" lon="3.32207">
        <ele>873</ele>
        <time>2019-05-22T22:13:04Z</time>
      </trkpt>
      <trkpt lat="44.1871" lon="3.32176">
        <ele>874</ele>
        <time>2019-05-22T22:13:08Z</time>
      </trkpt>
      <trkpt lat="44.18714" lon="3.32156">
        <ele>874</ele>
        <time>2019-05-22T22:13:11Z</time>
      </trkpt>
      <trkpt lat="44.18718" lon="3.32115">
        <ele>874</ele>
        <time>2019-05-22T22:13:16Z</time>
      </trkpt>
      <trkpt lat="44.18722" lon="3.32027">
        <ele>873</ele>
        <time>2019-05-22T22:13:27Z</time>
      </trkpt>
      <trkpt lat="44.18718" lon="3.31953">
        <ele>876</ele>
        <time>2019-05-22T22:13:37Z</time>
      </trkpt>
      <trkpt lat="44.1872" lon="3.3193">
        <ele>877</ele>
        <time>2019-05-22T22:13:40Z</time>
      </trkpt>
      <trkpt lat="44.18726" lon="3.31904">
        <ele>878</ele>
        <time>2019-05-22T22:13:43Z</time>
      </trkpt>
      <trkpt lat="44.18738" lon="3.3188">
        <ele>878</ele>
        <time>2019-05-22T22:13:47Z</time>
      </trkpt>
      <trkpt lat="44.18756" lon="3.31851">
        <ele>879</ele>
        <time>2019-05-22T22:13:52Z</time>
      </trkpt>
      <trkpt lat="44.18763" lon="3.31831">
        <ele>880</ele>
        <time>2019-05-22T22:13:55Z</time>
      </trkpt>
      <trkpt lat="44.18766" lon="3.31813">
        <ele>881</ele>
        <time>2019-05-22T22:13:57Z</time>
      </trkpt>
      <trkpt lat="44.18766" lon="3.31753">
        <ele>885</ele>
        <time>2019-05-22T22:14:05Z</time>
      </trkpt>
      <trkpt lat="44.18769" lon="3.31732">
        <ele>885</ele>
        <time>2019-05-22T22:14:07Z</time>
      </trkpt>
      <trkpt lat="44.18769" lon="3.31732">
        <ele>885</ele>
        <time>2019-05-22T22:14:07Z</time>
      </trkpt>
      <trkpt lat="44.18778" lon="3.31692">
        <ele>886</ele>
        <time>2019-05-22T22:14:13Z</time>
      </trkpt>
      <trkpt lat="44.18779" lon="3.31675">
        <ele>887</ele>
        <time>2019-05-22T22:14:15Z</time>
      </trkpt>
      <trkpt lat="44.18766" lon="3.31621">
        <ele>886</ele>
        <time>2019-05-22T22:14:22Z</time>
      </trkpt>
      <trkpt lat="44.18765" lon="3.31602">
        <ele>885</ele>
        <time>2019-05-22T22:14:25Z</time>
      </trkpt>
      <trkpt lat="44.18769" lon="3.31582">
        <ele>885</ele>
        <time>2019-05-22T22:14:27Z</time>
      </trkpt>
      <trkpt lat="44.1878" lon="3.31547">
        <ele>885</ele>
        <time>2019-05-22T22:14:32Z</time>
      </trkpt>
      <trkpt lat="44.18782" lon="3.31531">
        <ele>885</ele>
        <time>2019-05-22T22:14:34Z</time>
      </trkpt>
      <trkpt lat="44.18781" lon="3.31519">
        <ele>885</ele>
        <time>2019-05-22T22:14:36Z</time>
      </trkpt>
      <trkpt lat="44.18766" lon="3.31482">
        <ele>885</ele>
        <time>2019-05-22T22:14:41Z</time>
      </trkpt>
      <trkpt lat="44.18765" lon="3.31464">
        <ele>885</ele>
        <time>2019-05-22T22:14:43Z</time>
      </trkpt>
      <trkpt lat="44.18766" lon="3.3145">
        <ele>885</ele>
        <time>2019-05-22T22:14:45Z</time>
      </trkpt>
      <trkpt lat="44.18773" lon="3.31415">
        <ele>883</ele>
        <time>2019-05-22T22:14:50Z</time>
      </trkpt>
      <trkpt lat="44.18782" lon="3.31387">
        <ele>882</ele>
        <time>2019-05-22T22:14:54Z</time>
      </trkpt>
      <trkpt lat="44.188" lon="3.31348">
        <ele>879</ele>
        <time>2019-05-22T22:15:00Z</time>
      </trkpt>
      <trkpt lat="44.18817" lon="3.31291">
        <ele>875</ele>
        <time>2019-05-22T22:15:08Z</time>
      </trkpt>
      <trkpt lat="44.1882" lon="3.31261">
        <ele>874</ele>
        <time>2019-05-22T22:15:11Z</time>
      </trkpt>
      <trkpt lat="44.1882" lon="3.31221">
        <ele>874</ele>
        <time>2019-05-22T22:15:17Z</time>
      </trkpt>
      <trkpt lat="44.18842" lon="3.31083">
        <ele>874</ele>
        <time>2019-05-22T22:15:35Z</time>
      </trkpt>
      <trkpt lat="44.18844" lon="3.3106">
        <ele>873</ele>
        <time>2019-05-22T22:15:38Z</time>
      </trkpt>
      <trkpt lat="44.18843" lon="3.31026">
        <ele>872</ele>
        <time>2019-05-22T22:15:42Z</time>
      </trkpt>
      <trkpt lat="44.18836" lon="3.31001">
        <ele>872</ele>
        <time>2019-05-22T22:15:45Z</time>
      </trkpt>
      <trkpt lat="44.18822" lon="3.30972">
        <ele>871</ele>
        <time>2019-05-22T22:15:50Z</time>
      </trkpt>
      <trkpt lat="44.18798" lon="3.30925">
        <ele>868</ele>
        <time>2019-05-22T22:15:57Z</time>
      </trkpt>
      <trkpt lat="44.18788" lon="3.30902">
        <ele>868</ele>
        <time>2019-05-22T22:16:01Z</time>
      </trkpt>
      <trkpt lat="44.18783" lon="3.30873">
        <ele>869</ele>
        <time>2019-05-22T22:16:04Z</time>
      </trkpt>
      <trkpt lat="44.18781" lon="3.30852">
        <ele>869</ele>
        <time>2019-05-22T22:16:07Z</time>
      </trkpt>
      <trkpt lat="44.18782" lon="3.30824">
        <ele>869</ele>
        <time>2019-05-22T22:16:11Z</time>
      </trkpt>
      <trkpt lat="44.18792" lon="3.30763">
        <ele>870</ele>
        <time>2019-05-22T22:16:19Z</time>
      </trkpt>
      <trkpt lat="44.18796" lon="3.30751">
        <ele>870</ele>
        <time>2019-05-22T22:16:20Z</time>
      </trkpt>
      <trkpt lat="44.18821" lon="3.30716">
        <ele>868</ele>
        <time>2019-05-22T22:16:27Z</time>
      </trkpt>
      <trkpt lat="44.18827" lon="3.30699">
        <ele>868</ele>
        <time>2019-05-22T22:16:29Z</time>
      </trkpt>
      <trkpt lat="44.18827" lon="3.30686">
        <ele>868</ele>
        <time>2019-05-22T22:16:31Z</time>
      </trkpt>
      <trkpt lat="44.18823" lon="3.30672">
        <ele>869</ele>
        <time>2019-05-22T22:16:33Z</time>
      </trkpt>
      <trkpt lat="44.18817" lon="3.30659">
        <ele>869</ele>
        <time>2019-05-22T22:16:35Z</time>
      </trkpt>
      <trkpt lat="44.18804" lon="3.3065">
        <ele>869</ele>
        <time>2019-05-22T22:16:37Z</time>
      </trkpt>
      <trkpt lat="44.18773" lon="3.3064">
        <ele>870</ele>
        <time>2019-05-22T22:16:43Z</time>
      </trkpt>
      <trkpt lat="44.18733" lon="3.30632">
        <ele>872</ele>
        <time>2019-05-22T22:16:50Z</time>
      </trkpt>
      <trkpt lat="44.18571" lon="3.3061">
        <ele>876</ele>
        <time>2019-05-22T22:17:19Z</time>
      </trkpt>
      <trkpt lat="44.18518" lon="3.30586">
        <ele>878</ele>
        <time>2019-05-22T22:17:29Z</time>
      </trkpt>
      <trkpt lat="44.18493" lon="3.30557">
        <ele>876</ele>
        <time>2019-05-22T22:17:35Z</time>
      </trkpt>
      <trkpt lat="44.18446" lon="3.30481">
        <ele>873</ele>
        <time>2019-05-22T22:17:47Z</time>
      </trkpt>
      <trkpt lat="44.18435" lon="3.30455">
        <ele>872</ele>
        <time>2019-05-22T22:17:51Z</time>
      </trkpt>
      <trkpt lat="44.18434" lon="3.30436">
        <ele>871</ele>
        <time>2019-05-22T22:17:54Z</time>
      </trkpt>
      <trkpt lat="44.18438" lon="3.30424">
        <ele>869</ele>
        <time>2019-05-22T22:17:55Z</time>
      </trkpt>
      <trkpt lat="44.18449" lon="3.30404">
        <ele>868</ele>
        <time>2019-05-22T22:17:59Z</time>
      </trkpt>
      <trkpt lat="44.18475" lon="3.30375">
        <ele>868</ele>
        <time>2019-05-22T22:18:05Z</time>
      </trkpt>
      <trkpt lat="44.1849" lon="3.30351">
        <ele>868</ele>
        <time>2019-05-22T22:18:09Z</time>
      </trkpt>
      <trkpt lat="44.18512" lon="3.30311">
        <ele>869</ele>
        <time>2019-05-22T22:18:15Z</time>
      </trkpt>
      <trkpt lat="44.18525" lon="3.30278">
        <ele>869</ele>
        <time>2019-05-22T22:18:20Z</time>
      </trkpt>
      <trkpt lat="44.18548" lon="3.30186">
        <ele>872</ele>
        <time>2019-05-22T22:18:32Z</time>
      </trkpt>
      <trkpt lat="44.1857" lon="3.3015">
        <ele>873</ele>
        <time>2019-05-22T22:18:38Z</time>
      </trkpt>
      <trkpt lat="44.18575" lon="3.30138">
        <ele>874</ele>
        <time>2019-05-22T22:18:40Z</time>
      </trkpt>
      <trkpt lat="44.18577" lon="3.30123">
        <ele>874</ele>
        <time>2019-05-22T22:18:42Z</time>
      </trkpt>
      <trkpt lat="44.18574" lon="3.3011">
        <ele>875</ele>
        <time>2019-05-22T22:18:44Z</time>
      </trkpt>
      <trkpt lat="44.18557" lon="3.30071">
        <ele>876</ele>
        <time>2019-05-22T22:18:50Z</time>
      </trkpt>
      <trkpt lat="44.18545" lon="3.30019">
        <ele>877</ele>
        <time>2019-05-22T22:18:57Z</time>
      </trkpt>
      <trkpt lat="44.18543" lon="3.29962">
        <ele>876</ele>
        <time>2019-05-22T22:19:04Z</time>
      </trkpt>
      <trkpt lat="44.1854" lon="3.29953">
        <ele>876</ele>
        <time>2019-05-22T22:19:05Z</time>
      </trkpt>
      <trkpt lat="44.18529" lon="3.29935">
        <ele>876</ele>
        <time>2019-05-22T22:19:08Z</time>
      </trkpt>
      <trkpt lat="44.18519" lon="3.29907">
        <ele>876</ele>
        <time>2019-05-22T22:19:12Z</time>
      </trkpt>
      <trkpt lat="44.18518" lon="3.29899">
        <ele>877</ele>
        <time>2019-05-22T22:19:13Z</time>
      </trkpt>
      <trkpt lat="44.18521" lon="3.29876">
        <ele>877</ele>
        <time>2019-05-22T22:19:16Z</time>
      </trkpt>
      <trkpt lat="44.18521" lon="3.29855">
        <ele>877</ele>
        <time>2019-05-22T22:19:19Z</time>
      </trkpt>
      <trkpt lat="44.18515" lon="3.29843">
        <ele>877</ele>
        <time>2019-05-22T22:19:21Z</time>
      </trkpt>
      <trkpt lat="44.18509" lon="3.29835">
        <ele>877</ele>
        <time>2019-05-22T22:19:22Z</time>
      </trkpt>
      <trkpt lat="44.18504" lon="3.29823">
        <ele>877</ele>
        <time>2019-05-22T22:19:24Z</time>
      </trkpt>
      <trkpt lat="44.18484" lon="3.29785">
        <ele>875</ele>
        <time>2019-05-22T22:19:30Z</time>
      </trkpt>
      <trkpt lat="44.18443" lon="3.29718">
        <ele>870</ele>
        <time>2019-05-22T22:19:41Z</time>
      </trkpt>
      <trkpt lat="44.18425" lon="3.29711">
        <ele>868</ele>
        <time>2019-05-22T22:19:45Z</time>
      </trkpt>
      <trkpt lat="44.18409" lon="3.29715">
        <ele>868</ele>
        <time>2019-05-22T22:19:47Z</time>
      </trkpt>
      <trkpt lat="44.18379" lon="3.29729">
        <ele>867</ele>
        <time>2019-05-22T22:19:53Z</time>
      </trkpt>
      <trkpt lat="44.18368" lon="3.29732">
        <ele>867</ele>
        <time>2019-05-22T22:19:55Z</time>
      </trkpt>
      <trkpt lat="44.18341" lon="3.2973">
        <ele>866</ele>
        <time>2019-05-22T22:20:00Z</time>
      </trkpt>
      <trkpt lat="44.18248" lon="3.29712">
        <ele>862</ele>
        <time>2019-05-22T22:20:17Z</time>
      </trkpt>
      <trkpt lat="44.18229" lon="3.29711">
        <ele>862</ele>
        <time>2019-05-22T22:20:20Z</time>
      </trkpt>
      <trkpt lat="44.18201" lon="3.29715">
        <ele>861</ele>
        <time>2019-05-22T22:20:25Z</time>
      </trkpt>
      <trkpt lat="44.18088" lon="3.29742">
        <ele>858</ele>
        <time>2019-05-22T22:20:45Z</time>
      </trkpt>
      <trkpt lat="44.18077" lon="3.29742">
        <ele>857</ele>
        <time>2019-05-22T22:20:47Z</time>
      </trkpt>
      <trkpt lat="44.18066" lon="3.2974">
        <ele>857</ele>
        <time>2019-05-22T22:20:49Z</time>
      </trkpt>
      <trkpt lat="44.17802" lon="3.29679">
        <ele>848</ele>
        <time>2019-05-22T22:21:37Z</time>
      </trkpt>
      <trkpt lat="44.17788" lon="3.29671">
        <ele>847</ele>
        <time>2019-05-22T22:21:40Z</time>
      </trkpt>
      <trkpt lat="44.1777" lon="3.29656">
        <ele>847</ele>
        <time>2019-05-22T22:21:43Z</time>
      </trkpt>
      <trkpt lat="44.17743" lon="3.29629">
        <ele>846</ele>
        <time>2019-05-22T22:21:49Z</time>
      </trkpt>
      <trkpt lat="44.17735" lon="3.29611">
        <ele>846</ele>
        <time>2019-05-22T22:21:52Z</time>
      </trkpt>
      <trkpt lat="44.17714" lon="3.29539">
        <ele>845</ele>
        <time>2019-05-22T22:22:02Z</time>
      </trkpt>
      <trkpt lat="44.17705" lon="3.2952">
        <ele>845</ele>
        <time>2019-05-22T22:22:05Z</time>
      </trkpt>
      <trkpt lat="44.17626" lon="3.2943">
        <ele>845</ele>
        <time>2019-05-22T22:22:23Z</time>
      </trkpt>
      <trkpt lat="44.17594" lon="3.294">
        <ele>844</ele>
        <time>2019-05-22T22:22:30Z</time>
      </trkpt>
      <trkpt lat="44.1754" lon="3.29356">
        <ele>841</ele>
        <time>2019-05-22T22:22:41Z</time>
      </trkpt>
      <trkpt lat="44.17507" lon="3.29333">
        <ele>839</ele>
        <time>2019-05-22T22:22:47Z</time>
      </trkpt>
      <trkpt lat="44.17491" lon="3.29325">
        <ele>838</ele>
        <time>2019-05-22T22:22:51Z</time>
      </trkpt>
      <trkpt lat="44.17477" lon="3.29323">
        <ele>839</ele>
        <time>2019-05-22T22:22:53Z</time>
      </trkpt>
      <trkpt lat="44.17371" lon="3.29319">
        <ele>841</ele>
        <time>2019-05-22T22:23:12Z</time>
      </trkpt>
      <trkpt lat="44.17267" lon="3.2929">
        <ele>847</ele>
        <time>2019-05-22T22:23:31Z</time>
      </trkpt>
      <trkpt lat="44.17249" lon="3.29288">
        <ele>848</ele>
        <time>2019-05-22T22:23:34Z</time>
      </trkpt>
      <trkpt lat="44.17158" lon="3.29286">
        <ele>850</ele>
        <time>2019-05-22T22:23:50Z</time>
      </trkpt>
      <trkpt lat="44.17134" lon="3.2928">
        <ele>851</ele>
        <time>2019-05-22T22:23:54Z</time>
      </trkpt>
      <trkpt lat="44.1711" lon="3.2927">
        <ele>852</ele>
        <time>2019-05-22T22:23:59Z</time>
      </trkpt>
      <trkpt lat="44.17058" lon="3.29242">
        <ele>856</ele>
        <time>2019-05-22T22:24:09Z</time>
      </trkpt>
      <trkpt lat="44.17033" lon="3.29233">
        <ele>858</ele>
        <time>2019-05-22T22:24:13Z</time>
      </trkpt>
      <trkpt lat="44.17005" lon="3.2923">
        <ele>859</ele>
        <time>2019-05-22T22:24:18Z</time>
      </trkpt>
      <trkpt lat="44.16977" lon="3.29233">
        <ele>859</ele>
        <time>2019-05-22T22:24:23Z</time>
      </trkpt>
      <trkpt lat="44.1693" lon="3.2925">
        <ele>858</ele>
        <time>2019-05-22T22:24:32Z</time>
      </trkpt>
      <trkpt lat="44.16889" lon="3.29254">
        <ele>858</ele>
        <time>2019-05-22T22:24:39Z</time>
      </trkpt>
      <trkpt lat="44.1676" lon="3.29233">
        <ele>858</ele>
        <time>2019-05-22T22:25:03Z</time>
      </trkpt>
      <trkpt lat="44.16697" lon="3.2925">
        <ele>860</ele>
        <time>2019-05-22T22:25:14Z</time>
      </trkpt>
      <trkpt lat="44.16641" lon="3.29262">
        <ele>861</ele>
        <time>2019-05-22T22:25:24Z</time>
      </trkpt>
      <trkpt lat="44.16599" lon="3.29267">
        <ele>863</ele>
        <time>2019-05-22T22:25:32Z</time>
      </trkpt>
      <trkpt lat="44.16558" lon="3.29264">
        <ele>863</ele>
        <time>2019-05-22T22:25:39Z</time>
      </trkpt>
      <trkpt lat="44.16505" lon="3.29248">
        <ele>864</ele>
        <time>2019-05-22T22:25:48Z</time>
      </trkpt>
      <trkpt lat="44.16487" lon="3.29259">
        <ele>863</ele>
        <time>2019-05-22T22:25:52Z</time>
      </trkpt>
      <trkpt lat="44.16442" lon="3.29249">
        <ele>863</ele>
        <time>2019-05-22T22:26:00Z</time>
      </trkpt>
      <trkpt lat="44.16429" lon="3.29239">
        <ele>862</ele>
        <time>2019-05-22T22:26:03Z</time>
      </trkpt>
      <trkpt lat="44.16411" lon="3.29232">
        <ele>861</ele>
        <time>2019-05-22T22:26:06Z</time>
      </trkpt>
      <trkpt lat="44.16376" lon="3.29232">
        <ele>858</ele>
        <time>2019-05-22T22:26:12Z</time>
      </trkpt>
      <trkpt lat="44.16329" lon="3.2915">
        <ele>856</ele>
        <time>2019-05-22T22:26:26Z</time>
      </trkpt>
      <trkpt lat="44.16329" lon="3.2915">
        <ele>856</ele>
        <time>2019-05-22T22:26:26Z</time>
      </trkpt>
      <trkpt lat="44.16196" lon="3.28911">
        <ele>845</ele>
        <time>2019-05-22T22:27:04Z</time>
      </trkpt>
      <trkpt lat="44.16152" lon="3.28853">
        <ele>842</ele>
        <time>2019-05-22T22:27:15Z</time>
      </trkpt>
      <trkpt lat="44.16118" lon="3.28813">
        <ele>841</ele>
        <time>2019-05-22T22:27:23Z</time>
      </trkpt>
      <trkpt lat="44.16172" lon="3.28644">
        <ele>840</ele>
        <time>2019-05-22T22:27:47Z</time>
      </trkpt>
      <trkpt lat="44.16273" lon="3.28314">
        <ele>844</ele>
        <time>2019-05-22T22:28:32Z</time>
      </trkpt>
      <trkpt lat="44.16333" lon="3.28169">
        <ele>843</ele>
        <time>2019-05-22T22:28:54Z</time>
      </trkpt>
      <trkpt lat="44.16364" lon="3.28088">
        <ele>841</ele>
        <time>2019-05-22T22:29:05Z</time>
      </trkpt>
      <trkpt lat="44.16389" lon="3.28032">
        <ele>841</ele>
        <time>2019-05-22T22:29:14Z</time>
      </trkpt>
      <trkpt lat="44.16394" lon="3.27995">
        <ele>841</ele>
        <time>2019-05-22T22:29:19Z</time>
      </trkpt>
      <trkpt lat="44.16389" lon="3.27882">
        <ele>842</ele>
        <time>2019-05-22T22:29:33Z</time>
      </trkpt>
      <trkpt lat="44.16395" lon="3.27834">
        <ele>841</ele>
        <time>2019-05-22T22:29:39Z</time>
      </trkpt>
      <trkpt lat="44.16421" lon="3.27503">
        <ele>842</ele>
        <time>2019-05-22T22:30:22Z</time>
      </trkpt>
      <trkpt lat="44.16434" lon="3.27375">
        <ele>843</ele>
        <time>2019-05-22T22:30:38Z</time>
      </trkpt>
      <trkpt lat="44.16446" lon="3.2724">
        <ele>844</ele>
        <time>2019-05-22T22:30:56Z</time>
      </trkpt>
      <trkpt lat="44.16454" lon="3.27098">
        <ele>847</ele>
        <time>2019-05-22T22:31:14Z</time>
      </trkpt>
      <trkpt lat="44.16479" lon="3.26814">
        <ele>852</ele>
        <time>2019-05-22T22:31:50Z</time>
      </trkpt>
      <trkpt lat="44.16484" lon="3.26782">
        <ele>852</ele>
        <time>2019-05-22T22:31:55Z</time>
      </trkpt>
      <trkpt lat="44.16529" lon="3.26627">
        <ele>852</ele>
        <time>2019-05-22T22:32:16Z</time>
      </trkpt>
      <trkpt lat="44.16621" lon="3.263">
        <ele>862</ele>
        <time>2019-05-22T22:33:01Z</time>
      </trkpt>
      <trkpt lat="44.16634" lon="3.26265">
        <ele>864</ele>
        <time>2019-05-22T22:33:06Z</time>
      </trkpt>
      <trkpt lat="44.16655" lon="3.26244">
        <ele>866</ele>
        <time>2019-05-22T22:33:10Z</time>
      </trkpt>
      <trkpt lat="44.16705" lon="3.26161">
        <ele>871</ele>
        <time>2019-05-22T22:33:24Z</time>
      </trkpt>
      <trkpt lat="44.16707" lon="3.26145">
        <ele>872</ele>
        <time>2019-05-22T22:33:26Z</time>
      </trkpt>
      <trkpt lat="44.16704" lon="3.26109">
        <ele>873</ele>
        <time>2019-05-22T22:33:31Z</time>
      </trkpt>
      <trkpt lat="44.16704" lon="3.26094">
        <ele>874</ele>
        <time>2019-05-22T22:33:33Z</time>
      </trkpt>
      <trkpt lat="44.16712" lon="3.26063">
        <ele>876</ele>
        <time>2019-05-22T22:33:37Z</time>
      </trkpt>
      <trkpt lat="44.16713" lon="3.2605">
        <ele>877</ele>
        <time>2019-05-22T22:33:39Z</time>
      </trkpt>
      <trkpt lat="44.16702" lon="3.2602">
        <ele>879</ele>
        <time>2019-05-22T22:33:43Z</time>
      </trkpt>
      <trkpt lat="44.16701" lon="3.26006">
        <ele>880</ele>
        <time>2019-05-22T22:33:45Z</time>
      </trkpt>
      <trkpt lat="44.16704" lon="3.25991">
        <ele>881</ele>
        <time>2019-05-22T22:33:47Z</time>
      </trkpt>
      <trkpt lat="44.1671" lon="3.25979">
        <ele>882</ele>
        <time>2019-05-22T22:33:49Z</time>
      </trkpt>
      <trkpt lat="44.16742" lon="3.25935">
        <ele>883</ele>
        <time>2019-05-22T22:33:57Z</time>
      </trkpt>
      <trkpt lat="44.16752" lon="3.25909">
        <ele>884</ele>
        <time>2019-05-22T22:34:00Z</time>
      </trkpt>
      <trkpt lat="44.16752" lon="3.25909">
        <ele>884</ele>
        <time>2019-05-22T22:34:00Z</time>
      </trkpt>
      <trkpt lat="44.16755" lon="3.25885">
        <ele>885</ele>
        <time>2019-05-22T22:34:04Z</time>
      </trkpt>
      <trkpt lat="44.16756" lon="3.25844">
        <ele>886</ele>
        <time>2019-05-22T22:34:09Z</time>
      </trkpt>
      <trkpt lat="44.16761" lon="3.25795">
        <ele>887</ele>
        <time>2019-05-22T22:34:15Z</time>
      </trkpt>
      <trkpt lat="44.16773" lon="3.25745">
        <ele>888</ele>
        <time>2019-05-22T22:34:22Z</time>
      </trkpt>
      <trkpt lat="44.16805" lon="3.25641">
        <ele>892</ele>
        <time>2019-05-22T22:34:36Z</time>
      </trkpt>
      <trkpt lat="44.16808" lon="3.25619">
        <ele>893</ele>
        <time>2019-05-22T22:34:39Z</time>
      </trkpt>
      <trkpt lat="44.16805" lon="3.25604">
        <ele>894</ele>
        <time>2019-05-22T22:34:41Z</time>
      </trkpt>
      <trkpt lat="44.16791" lon="3.2559">
        <ele>894</ele>
        <time>2019-05-22T22:34:44Z</time>
      </trkpt>
      <trkpt lat="44.16778" lon="3.25568">
        <ele>894</ele>
        <time>2019-05-22T22:34:48Z</time>
      </trkpt>
      <trkpt lat="44.16774" lon="3.25553">
        <ele>895</ele>
        <time>2019-05-22T22:34:50Z</time>
      </trkpt>
      <trkpt lat="44.16781" lon="3.25512">
        <ele>897</ele>
        <time>2019-05-22T22:34:55Z</time>
      </trkpt>
      <trkpt lat="44.1678" lon="3.25491">
        <ele>898</ele>
        <time>2019-05-22T22:34:58Z</time>
      </trkpt>
      <trkpt lat="44.16776" lon="3.25475">
        <ele>898</ele>
        <time>2019-05-22T22:35:00Z</time>
      </trkpt>
      <trkpt lat="44.16766" lon="3.25457">
        <ele>897</ele>
        <time>2019-05-22T22:35:03Z</time>
      </trkpt>
      <trkpt lat="44.16749" lon="3.2543">
        <ele>897</ele>
        <time>2019-05-22T22:35:08Z</time>
      </trkpt>
      <trkpt lat="44.16741" lon="3.25407">
        <ele>897</ele>
        <time>2019-05-22T22:35:11Z</time>
      </trkpt>
      <trkpt lat="44.16736" lon="3.25377">
        <ele>897</ele>
        <time>2019-05-22T22:35:15Z</time>
      </trkpt>
      <trkpt lat="44.16737" lon="3.25248">
        <ele>893</ele>
        <time>2019-05-22T22:35:31Z</time>
      </trkpt>
      <trkpt lat="44.16749" lon="3.25179">
        <ele>890</ele>
        <time>2019-05-22T22:35:40Z</time>
      </trkpt>
      <trkpt lat="44.16769" lon="3.25121">
        <ele>888</ele>
        <time>2019-05-22T22:35:49Z</time>
      </trkpt>
      <trkpt lat="44.16771" lon="3.25093">
        <ele>887</ele>
        <time>2019-05-22T22:35:52Z</time>
      </trkpt>
      <trkpt lat="44.16777" lon="3.25063">
        <ele>885</ele>
        <time>2019-05-22T22:35:56Z</time>
      </trkpt>
      <trkpt lat="44.16789" lon="3.25043">
        <ele>883</ele>
        <time>2019-05-22T22:35:59Z</time>
      </trkpt>
      <trkpt lat="44.16807" lon="3.25029">
        <ele>881</ele>
        <time>2019-05-22T22:36:03Z</time>
      </trkpt>
      <trkpt lat="44.16826" lon="3.25025">
        <ele>879</ele>
        <time>2019-05-22T22:36:06Z</time>
      </trkpt>
      <trkpt lat="44.16838" lon="3.25013">
        <ele>878</ele>
        <time>2019-05-22T22:36:09Z</time>
      </trkpt>
      <trkpt lat="44.16841" lon="3.24993">
        <ele>876</ele>
        <time>2019-05-22T22:36:12Z</time>
      </trkpt>
      <trkpt lat="44.16844" lon="3.24953">
        <ele>874</ele>
        <time>2019-05-22T22:36:17Z</time>
      </trkpt>
      <trkpt lat="44.16851" lon="3.24927">
        <ele>872</ele>
        <time>2019-05-22T22:36:20Z</time>
      </trkpt>
      <trkpt lat="44.16904" lon="3.24851">
        <ele>867</ele>
        <time>2019-05-22T22:36:34Z</time>
      </trkpt>
      <trkpt lat="44.16934" lon="3.24801">
        <ele>865</ele>
        <time>2019-05-22T22:36:42Z</time>
      </trkpt>
      <trkpt lat="44.16966" lon="3.24742">
        <ele>861</ele>
        <time>2019-05-22T22:36:52Z</time>
      </trkpt>
      <trkpt lat="44.16993" lon="3.24717">
        <ele>859</ele>
        <time>2019-05-22T22:36:57Z</time>
      </trkpt>
      <trkpt lat="44.1704" lon="3.24667">
        <ele>855</ele>
        <time>2019-05-22T22:37:08Z</time>
      </trkpt>
      <trkpt lat="44.17072" lon="3.24653">
        <ele>853</ele>
        <time>2019-05-22T22:37:14Z</time>
      </trkpt>
      <trkpt lat="44.17146" lon="3.24607">
        <ele>850</ele>
        <time>2019-05-22T22:37:28Z</time>
      </trkpt>
      <trkpt lat="44.17172" lon="3.24601">
        <ele>850</ele>
        <time>2019-05-22T22:37:33Z</time>
      </trkpt>
      <trkpt lat="44.17181" lon="3.24595">
        <ele>851</ele>
        <time>2019-05-22T22:37:35Z</time>
      </trkpt>
      <trkpt lat="44.17189" lon="3.24582">
        <ele>851</ele>
        <time>2019-05-22T22:37:37Z</time>
      </trkpt>
      <trkpt lat="44.17191" lon="3.24575">
        <ele>852</ele>
        <time>2019-05-22T22:37:38Z</time>
      </trkpt>
      <trkpt lat="44.1719" lon="3.24557">
        <ele>853</ele>
        <time>2019-05-22T22:37:40Z</time>
      </trkpt>
      <trkpt lat="44.17187" lon="3.24549">
        <ele>853</ele>
        <time>2019-05-22T22:37:41Z</time>
      </trkpt>
      <trkpt lat="44.17175" lon="3.2454">
        <ele>852</ele>
        <time>2019-05-22T22:37:44Z</time>
      </trkpt>
      <trkpt lat="44.17154" lon="3.24545">
        <ele>851</ele>
        <time>2019-05-22T22:37:48Z</time>
      </trkpt>
      <trkpt lat="44.17141" lon="3.24545">
        <ele>851</ele>
        <time>2019-05-22T22:37:50Z</time>
      </trkpt>
      <trkpt lat="44.1711" lon="3.24541">
        <ele>850</ele>
        <time>2019-05-22T22:37:55Z</time>
      </trkpt>
      <trkpt lat="44.17101" lon="3.24539">
        <ele>850</ele>
        <time>2019-05-22T22:37:57Z</time>
      </trkpt>
      <trkpt lat="44.17093" lon="3.24531">
        <ele>850</ele>
        <time>2019-05-22T22:37:59Z</time>
      </trkpt>
      <trkpt lat="44.17086" lon="3.24521">
        <ele>850</ele>
        <time>2019-05-22T22:38:01Z</time>
      </trkpt>
      <trkpt lat="44.17075" lon="3.2449">
        <ele>852</ele>
        <time>2019-05-22T22:38:05Z</time>
      </trkpt>
      <trkpt lat="44.17069" lon="3.24477">
        <ele>853</ele>
        <time>2019-05-22T22:38:07Z</time>
      </trkpt>
      <trkpt lat="44.17033" lon="3.24439">
        <ele>852</ele>
        <time>2019-05-22T22:38:15Z</time>
      </trkpt>
      <trkpt lat="44.17023" lon="3.24426">
        <ele>851</ele>
        <time>2019-05-22T22:38:18Z</time>
      </trkpt>
      <trkpt lat="44.17018" lon="3.2436">
        <ele>850</ele>
        <time>2019-05-22T22:38:26Z</time>
      </trkpt>
      <trkpt lat="44.1701" lon="3.24326">
        <ele>848</ele>
        <time>2019-05-22T22:38:31Z</time>
      </trkpt>
      <trkpt lat="44.17001" lon="3.24303">
        <ele>848</ele>
        <time>2019-05-22T22:38:34Z</time>
      </trkpt>
      <trkpt lat="44.16931" lon="3.24182">
        <ele>841</ele>
        <time>2019-05-22T22:38:54Z</time>
      </trkpt>
      <trkpt lat="44.16924" lon="3.2416">
        <ele>841</ele>
        <time>2019-05-22T22:38:57Z</time>
      </trkpt>
      <trkpt lat="44.16924" lon="3.2414">
        <ele>841</ele>
        <time>2019-05-22T22:38:59Z</time>
      </trkpt>
      <trkpt lat="44.16929" lon="3.24108">
        <ele>843</ele>
        <time>2019-05-22T22:39:04Z</time>
      </trkpt>
      <trkpt lat="44.16933" lon="3.24067">
        <ele>844</ele>
        <time>2019-05-22T22:39:09Z</time>
      </trkpt>
      <trkpt lat="44.16932" lon="3.24046">
        <ele>844</ele>
        <time>2019-05-22T22:39:11Z</time>
      </trkpt>
      <trkpt lat="44.1692" lon="3.24001">
        <ele>843</ele>
        <time>2019-05-22T22:39:18Z</time>
      </trkpt>
      <trkpt lat="44.16922" lon="3.23986">
        <ele>842</ele>
        <time>2019-05-22T22:39:20Z</time>
      </trkpt>
      <trkpt lat="44.16929" lon="3.23971">
        <ele>843</ele>
        <time>2019-05-22T22:39:22Z</time>
      </trkpt>
      <trkpt lat="44.17015" lon="3.23838">
        <ele>850</ele>
        <time>2019-05-22T22:39:45Z</time>
      </trkpt>
      <trkpt lat="44.17035" lon="3.23803">
        <ele>853</ele>
        <time>2019-05-22T22:39:50Z</time>
      </trkpt>
      <trkpt lat="44.17039" lon="3.23782">
        <ele>854</ele>
        <time>2019-05-22T22:39:53Z</time>
      </trkpt>
      <trkpt lat="44.17037" lon="3.23762">
        <ele>854</ele>
        <time>2019-05-22T22:39:56Z</time>
      </trkpt>
      <trkpt lat="44.17028" lon="3.2375">
        <ele>852</ele>
        <time>2019-05-22T22:39:58Z</time>
      </trkpt>
      <trkpt lat="44.17005" lon="3.23734">
        <ele>849</ele>
        <time>2019-05-22T22:40:03Z</time>
      </trkpt>
      <trkpt lat="44.16993" lon="3.23716">
        <ele>849</ele>
        <time>2019-05-22T22:40:06Z</time>
      </trkpt>
      <trkpt lat="44.1699" lon="3.23701">
        <ele>849</ele>
        <time>2019-05-22T22:40:08Z</time>
      </trkpt>
      <trkpt lat="44.1699" lon="3.2365">
        <ele>854</ele>
        <time>2019-05-22T22:40:14Z</time>
      </trkpt>
      <trkpt lat="44.16988" lon="3.23636">
        <ele>855</ele>
        <time>2019-05-22T22:40:16Z</time>
      </trkpt>
      <trkpt lat="44.16968" lon="3.23602">
        <ele>854</ele>
        <time>2019-05-22T22:40:22Z</time>
      </trkpt>
      <trkpt lat="44.16966" lon="3.23564">
        <ele>858</ele>
        <time>2019-05-22T22:40:26Z</time>
      </trkpt>
      <trkpt lat="44.16962" lon="3.23547">
        <ele>859</ele>
        <time>2019-05-22T22:40:29Z</time>
      </trkpt>
      <trkpt lat="44.16949" lon="3.23526">
        <ele>858</ele>
        <time>2019-05-22T22:40:32Z</time>
      </trkpt>
      <trkpt lat="44.16933" lon="3.23506">
        <ele>857</ele>
        <time>2019-05-22T22:40:36Z</time>
      </trkpt>
      <trkpt lat="44.1692" lon="3.23477">
        <ele>858</ele>
        <time>2019-05-22T22:40:40Z</time>
      </trkpt>
      <trkpt lat="44.169" lon="3.23451">
        <ele>857</ele>
        <time>2019-05-22T22:40:45Z</time>
      </trkpt>
      <trkpt lat="44.16881" lon="3.23423">
        <ele>857</ele>
        <time>2019-05-22T22:40:50Z</time>
      </trkpt>
      <trkpt lat="44.16848" lon="3.23396">
        <ele>855</ele>
        <time>2019-05-22T22:40:57Z</time>
      </trkpt>
      <trkpt lat="44.168" lon="3.23342">
        <ele>857</ele>
        <time>2019-05-22T22:41:08Z</time>
      </trkpt>
      <trkpt lat="44.16792" lon="3.23323">
        <ele>858</ele>
        <time>2019-05-22T22:41:11Z</time>
      </trkpt>
      <trkpt lat="44.16785" lon="3.23296">
        <ele>861</ele>
        <time>2019-05-22T22:41:15Z</time>
      </trkpt>
      <trkpt lat="44.16777" lon="3.23285">
        <ele>861</ele>
        <time>2019-05-22T22:41:17Z</time>
      </trkpt>
      <trkpt lat="44.16733" lon="3.23251">
        <ele>859</ele>
        <time>2019-05-22T22:41:25Z</time>
      </trkpt>
      <trkpt lat="44.16717" lon="3.23231">
        <ele>858</ele>
        <time>2019-05-22T22:41:29Z</time>
      </trkpt>
      <trkpt lat="44.16709" lon="3.2321">
        <ele>859</ele>
        <time>2019-05-22T22:41:32Z</time>
      </trkpt>
      <trkpt lat="44.16705" lon="3.23193">
        <ele>860</ele>
        <time>2019-05-22T22:41:35Z</time>
      </trkpt>
      <trkpt lat="44.16705" lon="3.23163">
        <ele>862</ele>
        <time>2019-05-22T22:41:38Z</time>
      </trkpt>
      <trkpt lat="44.16713" lon="3.23073">
        <ele>864</ele>
        <time>2019-05-22T22:41:50Z</time>
      </trkpt>
      <trkpt lat="44.16714" lon="3.23052">
        <ele>864</ele>
        <time>2019-05-22T22:41:53Z</time>
      </trkpt>
      <trkpt lat="44.16709" lon="3.23032">
        <ele>864</ele>
        <time>2019-05-22T22:41:55Z</time>
      </trkpt>
      <trkpt lat="44.16702" lon="3.23012">
        <ele>864</ele>
        <time>2019-05-22T22:41:58Z</time>
      </trkpt>
      <trkpt lat="44.16702" lon="3.22996">
        <ele>864</ele>
        <time>2019-05-22T22:42:00Z</time>
      </trkpt>
      <trkpt lat="44.16709" lon="3.22979">
        <ele>863</ele>
        <time>2019-05-22T22:42:03Z</time>
      </trkpt>
      <trkpt lat="44.16767" lon="3.22889">
        <ele>869</ele>
        <time>2019-05-22T22:42:18Z</time>
      </trkpt>
      <trkpt lat="44.16769" lon="3.22878">
        <ele>870</ele>
        <time>2019-05-22T22:42:20Z</time>
      </trkpt>
      <trkpt lat="44.16769" lon="3.22866">
        <ele>870</ele>
        <time>2019-05-22T22:42:21Z</time>
      </trkpt>
      <trkpt lat="44.16761" lon="3.22853">
        <ele>869</ele>
        <time>2019-05-22T22:42:23Z</time>
      </trkpt>
      <trkpt lat="44.16715" lon="3.22828">
        <ele>861</ele>
        <time>2019-05-22T22:42:32Z</time>
      </trkpt>
      <trkpt lat="44.16703" lon="3.22812">
        <ele>859</ele>
        <time>2019-05-22T22:42:35Z</time>
      </trkpt>
      <trkpt lat="44.16696" lon="3.22793">
        <ele>858</ele>
        <time>2019-05-22T22:42:38Z</time>
      </trkpt>
      <trkpt lat="44.16694" lon="3.22767">
        <ele>858</ele>
        <time>2019-05-22T22:42:41Z</time>
      </trkpt>
      <trkpt lat="44.1671" lon="3.22621">
        <ele>852</ele>
        <time>2019-05-22T22:43:00Z</time>
      </trkpt>
      <trkpt lat="44.16718" lon="3.22598">
        <ele>851</ele>
        <time>2019-05-22T22:43:03Z</time>
      </trkpt>
      <trkpt lat="44.1673" lon="3.22587">
        <ele>852</ele>
        <time>2019-05-22T22:43:06Z</time>
      </trkpt>
      <trkpt lat="44.16747" lon="3.22582">
        <ele>855</ele>
        <time>2019-05-22T22:43:09Z</time>
      </trkpt>
      <trkpt lat="44.16806" lon="3.22596">
        <ele>855</ele>
        <time>2019-05-22T22:43:20Z</time>
      </trkpt>
      <trkpt lat="44.16827" lon="3.22596">
        <ele>854</ele>
        <time>2019-05-22T22:43:23Z</time>
      </trkpt>
      <trkpt lat="44.16853" lon="3.22591">
        <ele>853</ele>
        <time>2019-05-22T22:43:28Z</time>
      </trkpt>
      <trkpt lat="44.1688" lon="3.22575">
        <ele>852</ele>
        <time>2019-05-22T22:43:33Z</time>
      </trkpt>
      <trkpt lat="44.16931" lon="3.22528">
        <ele>848</ele>
        <time>2019-05-22T22:43:44Z</time>
      </trkpt>
      <trkpt lat="44.16969" lon="3.22487">
        <ele>844</ele>
        <time>2019-05-22T22:43:53Z</time>
      </trkpt>
      <trkpt lat="44.16973" lon="3.22474">
        <ele>843</ele>
        <time>2019-05-22T22:43:54Z</time>
      </trkpt>
      <trkpt lat="44.16971" lon="3.22463">
        <ele>842</ele>
        <time>2019-05-22T22:43:56Z</time>
      </trkpt>
      <trkpt lat="44.16964" lon="3.2245">
        <ele>841</ele>
        <time>2019-05-22T22:43:58Z</time>
      </trkpt>
      <trkpt lat="44.16926" lon="3.2242">
        <ele>839</ele>
        <time>2019-05-22T22:44:06Z</time>
      </trkpt>
      <trkpt lat="44.16894" lon="3.22369">
        <ele>836</ele>
        <time>2019-05-22T22:44:14Z</time>
      </trkpt>
      <trkpt lat="44.16876" lon="3.22352">
        <ele>835</ele>
        <time>2019-05-22T22:44:18Z</time>
      </trkpt>
      <trkpt lat="44.16843" lon="3.22333">
        <ele>835</ele>
        <time>2019-05-22T22:44:25Z</time>
      </trkpt>
      <trkpt lat="44.1681" lon="3.2232">
        <ele>833</ele>
        <time>2019-05-22T22:44:31Z</time>
      </trkpt>
      <trkpt lat="44.16724" lon="3.22299">
        <ele>827</ele>
        <time>2019-05-22T22:44:46Z</time>
      </trkpt>
      <trkpt lat="44.16691" lon="3.22285">
        <ele>824</ele>
        <time>2019-05-22T22:44:52Z</time>
      </trkpt>
      <trkpt lat="44.16648" lon="3.22281">
        <ele>822</ele>
        <time>2019-05-22T22:45:00Z</time>
      </trkpt>
      <trkpt lat="44.16581" lon="3.22283">
        <ele>819</ele>
        <time>2019-05-22T22:45:12Z</time>
      </trkpt>
      <trkpt lat="44.1655" lon="3.22274">
        <ele>817</ele>
        <time>2019-05-22T22:45:18Z</time>
      </trkpt>
      <trkpt lat="44.16522" lon="3.22264">
        <ele>816</ele>
        <time>2019-05-22T22:45:23Z</time>
      </trkpt>
      <trkpt lat="44.16484" lon="3.22225">
        <ele>811</ele>
        <time>2019-05-22T22:45:31Z</time>
      </trkpt>
      <trkpt lat="44.16453" lon="3.22213">
        <ele>809</ele>
        <time>2019-05-22T22:45:37Z</time>
      </trkpt>
      <trkpt lat="44.16437" lon="3.22214">
        <ele>810</ele>
        <time>2019-05-22T22:45:40Z</time>
      </trkpt>
      <trkpt lat="44.16409" lon="3.2223">
        <ele>812</ele>
        <time>2019-05-22T22:45:45Z</time>
      </trkpt>
      <trkpt lat="44.16387" lon="3.22233">
        <ele>812</ele>
        <time>2019-05-22T22:45:49Z</time>
      </trkpt>
      <trkpt lat="44.16374" lon="3.22225">
        <ele>811</ele>
        <time>2019-05-22T22:45:52Z</time>
      </trkpt>
      <trkpt lat="44.16371" lon="3.22212">
        <ele>811</ele>
        <time>2019-05-22T22:45:53Z</time>
      </trkpt>
      <trkpt lat="44.16382" lon="3.22157">
        <ele>806</ele>
        <time>2019-05-22T22:46:01Z</time>
      </trkpt>
      <trkpt lat="44.16383" lon="3.22125">
        <ele>803</ele>
        <time>2019-05-22T22:46:05Z</time>
      </trkpt>
      <trkpt lat="44.16378" lon="3.22108">
        <ele>802</ele>
        <time>2019-05-22T22:46:07Z</time>
      </trkpt>
      <trkpt lat="44.1636" lon="3.22093">
        <ele>801</ele>
        <time>2019-05-22T22:46:11Z</time>
      </trkpt>
      <trkpt lat="44.16312" lon="3.22118">
        <ele>804</ele>
        <time>2019-05-22T22:46:20Z</time>
      </trkpt>
      <trkpt lat="44.16312" lon="3.22118">
        <ele>804</ele>
        <time>2019-05-22T22:46:20Z</time>
      </trkpt>
      <trkpt lat="44.1636" lon="3.22093">
        <ele>801</ele>
        <time>2019-05-22T22:46:29Z</time>
      </trkpt>
      <trkpt lat="44.16332" lon="3.22076">
        <ele>801</ele>
        <time>2019-05-22T22:46:34Z</time>
      </trkpt>
      <trkpt lat="44.16319" lon="3.22054">
        <ele>799</ele>
        <time>2019-05-22T22:46:38Z</time>
      </trkpt>
      <trkpt lat="44.16315" lon="3.2203">
        <ele>798</ele>
        <time>2019-05-22T22:46:41Z</time>
      </trkpt>
      <trkpt lat="44.16316" lon="3.22002">
        <ele>797</ele>
        <time>2019-05-22T22:46:45Z</time>
      </trkpt>
      <trkpt lat="44.16338" lon="3.2188">
        <ele>793</ele>
        <time>2019-05-22T22:47:01Z</time>
      </trkpt>
      <trkpt lat="44.16369" lon="3.21798">
        <ele>789</ele>
        <time>2019-05-22T22:47:13Z</time>
      </trkpt>
      <trkpt lat="44.16375" lon="3.21767">
        <ele>788</ele>
        <time>2019-05-22T22:47:17Z</time>
      </trkpt>
      <trkpt lat="44.16376" lon="3.21735">
        <ele>787</ele>
        <time>2019-05-22T22:47:21Z</time>
      </trkpt>
      <trkpt lat="44.16375" lon="3.21699">
        <ele>786</ele>
        <time>2019-05-22T22:47:26Z</time>
      </trkpt>
      <trkpt lat="44.16382" lon="3.21676">
        <ele>785</ele>
        <time>2019-05-22T22:47:29Z</time>
      </trkpt>
      <trkpt lat="44.16405" lon="3.21632">
        <ele>781</ele>
        <time>2019-05-22T22:47:36Z</time>
      </trkpt>
      <trkpt lat="44.16405" lon="3.21616">
        <ele>780</ele>
        <time>2019-05-22T22:47:38Z</time>
      </trkpt>
      <trkpt lat="44.164" lon="3.21595">
        <ele>779</ele>
        <time>2019-05-22T22:47:41Z</time>
      </trkpt>
      <trkpt lat="44.16392" lon="3.21585">
        <ele>778</ele>
        <time>2019-05-22T22:47:42Z</time>
      </trkpt>
      <trkpt lat="44.1638" lon="3.21578">
        <ele>778</ele>
        <time>2019-05-22T22:47:45Z</time>
      </trkpt>
      <trkpt lat="44.16315" lon="3.21555">
        <ele>778</ele>
        <time>2019-05-22T22:47:57Z</time>
      </trkpt>
      <trkpt lat="44.16294" lon="3.21541">
        <ele>777</ele>
        <time>2019-05-22T22:48:01Z</time>
      </trkpt>
      <trkpt lat="44.16281" lon="3.21516">
        <ele>775</ele>
        <time>2019-05-22T22:48:05Z</time>
      </trkpt>
      <trkpt lat="44.16261" lon="3.21471">
        <ele>771</ele>
        <time>2019-05-22T22:48:12Z</time>
      </trkpt>
      <trkpt lat="44.16237" lon="3.21446">
        <ele>768</ele>
        <time>2019-05-22T22:48:17Z</time>
      </trkpt>
      <trkpt lat="44.16231" lon="3.21428">
        <ele>766</ele>
        <time>2019-05-22T22:48:19Z</time>
      </trkpt>
      <trkpt lat="44.16236" lon="3.21412">
        <ele>765</ele>
        <time>2019-05-22T22:48:22Z</time>
      </trkpt>
      <trkpt lat="44.16245" lon="3.21402">
        <ele>764</ele>
        <time>2019-05-22T22:48:24Z</time>
      </trkpt>
      <trkpt lat="44.16368" lon="3.21345">
        <ele>762</ele>
        <time>2019-05-22T22:48:47Z</time>
      </trkpt>
      <trkpt lat="44.16429" lon="3.213">
        <ele>762</ele>
        <time>2019-05-22T22:48:59Z</time>
      </trkpt>
      <trkpt lat="44.16448" lon="3.21291">
        <ele>762</ele>
        <time>2019-05-22T22:49:03Z</time>
      </trkpt>
      <trkpt lat="44.1648" lon="3.21283">
        <ele>761</ele>
        <time>2019-05-22T22:49:08Z</time>
      </trkpt>
      <trkpt lat="44.16529" lon="3.21262">
        <ele>760</ele>
        <time>2019-05-22T22:49:17Z</time>
      </trkpt>
      <trkpt lat="44.16549" lon="3.21241">
        <ele>759</ele>
        <time>2019-05-22T22:49:22Z</time>
      </trkpt>
      <trkpt lat="44.16552" lon="3.21227">
        <ele>758</ele>
        <time>2019-05-22T22:49:24Z</time>
      </trkpt>
      <trkpt lat="44.16553" lon="3.21192">
        <ele>756</ele>
        <time>2019-05-22T22:49:28Z</time>
      </trkpt>
      <trkpt lat="44.16561" lon="3.21167">
        <ele>754</ele>
        <time>2019-05-22T22:49:32Z</time>
      </trkpt>
      <trkpt lat="44.16581" lon="3.21126">
        <ele>751</ele>
        <time>2019-05-22T22:49:38Z</time>
      </trkpt>
      <trkpt lat="44.16602" lon="3.21095">
        <ele>748</ele>
        <time>2019-05-22T22:49:44Z</time>
      </trkpt>
      <trkpt lat="44.1663" lon="3.21069">
        <ele>746</ele>
        <time>2019-05-22T22:49:50Z</time>
      </trkpt>
      <trkpt lat="44.16641" lon="3.21047">
        <ele>746</ele>
        <time>2019-05-22T22:49:53Z</time>
      </trkpt>
      <trkpt lat="44.16658" lon="3.20982">
        <ele>746</ele>
        <time>2019-05-22T22:50:02Z</time>
      </trkpt>
      <trkpt lat="44.16674" lon="3.20959">
        <ele>745</ele>
        <time>2019-05-22T22:50:06Z</time>
      </trkpt>
      <trkpt lat="44.16689" lon="3.2095">
        <ele>744</ele>
        <time>2019-05-22T22:50:09Z</time>
      </trkpt>
      <trkpt lat="44.16707" lon="3.20945">
        <ele>743</ele>
        <time>2019-05-22T22:50:12Z</time>
      </trkpt>
      <trkpt lat="44.16745" lon="3.20945">
        <ele>740</ele>
        <time>2019-05-22T22:50:19Z</time>
      </trkpt>
      <trkpt lat="44.1676" lon="3.20955">
        <ele>739</ele>
        <time>2019-05-22T22:50:22Z</time>
      </trkpt>
      <trkpt lat="44.16844" lon="3.21032">
        <ele>732</ele>
        <time>2019-05-22T22:50:40Z</time>
      </trkpt>
      <trkpt lat="44.16876" lon="3.21056">
        <ele>733</ele>
        <time>2019-05-22T22:50:46Z</time>
      </trkpt>
      <trkpt lat="44.16892" lon="3.21059">
        <ele>733</ele>
        <time>2019-05-22T22:50:49Z</time>
      </trkpt>
      <trkpt lat="44.16911" lon="3.21058">
        <ele>733</ele>
        <time>2019-05-22T22:50:52Z</time>
      </trkpt>
      <trkpt lat="44.17046" lon="3.21003">
        <ele>735</ele>
        <time>2019-05-22T22:51:17Z</time>
      </trkpt>
      <trkpt lat="44.17146" lon="3.20958">
        <ele>736</ele>
        <time>2019-05-22T22:51:36Z</time>
      </trkpt>
      <trkpt lat="44.17174" lon="3.2094">
        <ele>736</ele>
        <time>2019-05-22T22:51:42Z</time>
      </trkpt>
      <trkpt lat="44.17206" lon="3.20911">
        <ele>737</ele>
        <time>2019-05-22T22:51:48Z</time>
      </trkpt>
      <trkpt lat="44.1726" lon="3.20838">
        <ele>736</ele>
        <time>2019-05-22T22:52:02Z</time>
      </trkpt>
      <trkpt lat="44.17293" lon="3.20801">
        <ele>734</ele>
        <time>2019-05-22T22:52:09Z</time>
      </trkpt>
      <trkpt lat="44.17316" lon="3.20784">
        <ele>734</ele>
        <time>2019-05-22T22:52:14Z</time>
      </trkpt>
      <trkpt lat="44.17329" lon="3.20779">
        <ele>735</ele>
        <time>2019-05-22T22:52:16Z</time>
      </trkpt>
      <trkpt lat="44.17344" lon="3.20782">
        <ele>734</ele>
        <time>2019-05-22T22:52:19Z</time>
      </trkpt>
      <trkpt lat="44.17366" lon="3.20804">
        <ele>734</ele>
        <time>2019-05-22T22:52:24Z</time>
      </trkpt>
      <trkpt lat="44.17378" lon="3.2081">
        <ele>734</ele>
        <time>2019-05-22T22:52:26Z</time>
      </trkpt>
      <trkpt lat="44.1743" lon="3.2081">
        <ele>729</ele>
        <time>2019-05-22T22:52:35Z</time>
      </trkpt>
      <trkpt lat="44.17476" lon="3.20817">
        <ele>725</ele>
        <time>2019-05-22T22:52:44Z</time>
      </trkpt>
      <trkpt lat="44.17496" lon="3.20828">
        <ele>725</ele>
        <time>2019-05-22T22:52:47Z</time>
      </trkpt>
      <trkpt lat="44.1752" lon="3.20834">
        <ele>722</ele>
        <time>2019-05-22T22:52:52Z</time>
      </trkpt>
      <trkpt lat="44.17533" lon="3.2084">
        <ele>720</ele>
        <time>2019-05-22T22:52:54Z</time>
      </trkpt>
      <trkpt lat="44.17556" lon="3.20856">
        <ele>718</ele>
        <time>2019-05-22T22:52:59Z</time>
      </trkpt>
      <trkpt lat="44.17576" lon="3.20861">
        <ele>715</ele>
        <time>2019-05-22T22:53:02Z</time>
      </trkpt>
      <trkpt lat="44.17599" lon="3.20864">
        <ele>713</ele>
        <time>2019-05-22T22:53:06Z</time>
      </trkpt>
      <trkpt lat="44.17614" lon="3.20874">
        <ele>713</ele>
        <time>2019-05-22T22:53:09Z</time>
      </trkpt>
      <trkpt lat="44.17655" lon="3.20915">
        <ele>714</ele>
        <time>2019-05-22T22:53:18Z</time>
      </trkpt>
      <trkpt lat="44.17666" lon="3.20922">
        <ele>714</ele>
        <time>2019-05-22T22:53:21Z</time>
      </trkpt>
      <trkpt lat="44.17675" lon="3.20921">
        <ele>715</ele>
        <time>2019-05-22T22:53:22Z</time>
      </trkpt>
      <trkpt lat="44.17692" lon="3.20906">
        <ele>714</ele>
        <time>2019-05-22T22:53:26Z</time>
      </trkpt>
      <trkpt lat="44.1774" lon="3.20853">
        <ele>708</ele>
        <time>2019-05-22T22:53:37Z</time>
      </trkpt>
      <trkpt lat="44.17763" lon="3.20837">
        <ele>707</ele>
        <time>2019-05-22T22:53:41Z</time>
      </trkpt>
      <trkpt lat="44.17777" lon="3.2082">
        <ele>706</ele>
        <time>2019-05-22T22:53:45Z</time>
      </trkpt>
      <trkpt lat="44.178" lon="3.20779">
        <ele>701</ele>
        <time>2019-05-22T22:53:51Z</time>
      </trkpt>
      <trkpt lat="44.17813" lon="3.20768">
        <ele>700</ele>
        <time>2019-05-22T22:53:54Z</time>
      </trkpt>
      <trkpt lat="44.17851" lon="3.2075">
        <ele>700</ele>
        <time>2019-05-22T22:54:01Z</time>
      </trkpt>
      <trkpt lat="44.17859" lon="3.2074">
        <ele>700</ele>
        <time>2019-05-22T22:54:03Z</time>
      </trkpt>
      <trkpt lat="44.17859" lon="3.20726">
        <ele>699</ele>
        <time>2019-05-22T22:54:05Z</time>
      </trkpt>
      <trkpt lat="44.17855" lon="3.20716">
        <ele>697</ele>
        <time>2019-05-22T22:54:06Z</time>
      </trkpt>
      <trkpt lat="44.17845" lon="3.207">
        <ele>693</ele>
        <time>2019-05-22T22:54:09Z</time>
      </trkpt>
      <trkpt lat="44.17843" lon="3.2068">
        <ele>690</ele>
        <time>2019-05-22T22:54:11Z</time>
      </trkpt>
      <trkpt lat="44.17847" lon="3.2066">
        <ele>689</ele>
        <time>2019-05-22T22:54:14Z</time>
      </trkpt>
      <trkpt lat="44.17855" lon="3.20645">
        <ele>689</ele>
        <time>2019-05-22T22:54:16Z</time>
      </trkpt>
      <trkpt lat="44.17921" lon="3.20561">
        <ele>685</ele>
        <time>2019-05-22T22:54:32Z</time>
      </trkpt>
      <trkpt lat="44.17921" lon="3.20561">
        <ele>685</ele>
        <time>2019-05-22T22:54:32Z</time>
      </trkpt>
      <trkpt lat="44.17925" lon="3.20555">
        <ele>683</ele>
        <time>2019-05-22T22:54:33Z</time>
      </trkpt>
      <trkpt lat="44.17956" lon="3.2053">
        <ele>680</ele>
        <time>2019-05-22T22:54:40Z</time>
      </trkpt>
      <trkpt lat="44.17987" lon="3.20514">
        <ele>679</ele>
        <time>2019-05-22T22:54:46Z</time>
      </trkpt>
      <trkpt lat="44.18006" lon="3.20485">
        <ele>668</ele>
        <time>2019-05-22T22:54:51Z</time>
      </trkpt>
      <trkpt lat="44.18012" lon="3.20483">
        <ele>665</ele>
        <time>2019-05-22T22:54:52Z</time>
      </trkpt>
      <trkpt lat="44.1802" lon="3.2049">
        <ele>665</ele>
        <time>2019-05-22T22:54:53Z</time>
      </trkpt>
      <trkpt lat="44.18041" lon="3.20523">
        <ele>672</ele>
        <time>2019-05-22T22:54:59Z</time>
      </trkpt>
      <trkpt lat="44.18061" lon="3.20537">
        <ele>673</ele>
        <time>2019-05-22T22:55:03Z</time>
      </trkpt>
      <trkpt lat="44.18121" lon="3.20568">
        <ele>669</ele>
        <time>2019-05-22T22:55:14Z</time>
      </trkpt>
      <trkpt lat="44.18156" lon="3.20581">
        <ele>662</ele>
        <time>2019-05-22T22:55:21Z</time>
      </trkpt>
      <trkpt lat="44.18183" lon="3.20599">
        <ele>664</ele>
        <time>2019-05-22T22:55:26Z</time>
      </trkpt>
      <trkpt lat="44.18204" lon="3.20602">
        <ele>662</ele>
        <time>2019-05-22T22:55:30Z</time>
      </trkpt>
      <trkpt lat="44.18252" lon="3.20605">
        <ele>653</ele>
        <time>2019-05-22T22:55:39Z</time>
      </trkpt>
      <trkpt lat="44.18309" lon="3.20616">
        <ele>647</ele>
        <time>2019-05-22T22:55:49Z</time>
      </trkpt>
      <trkpt lat="44.18335" lon="3.20632">
        <ele>649</ele>
        <time>2019-05-22T22:55:54Z</time>
      </trkpt>
      <trkpt lat="44.18364" lon="3.20659">
        <ele>647</ele>
        <time>2019-05-22T22:56:00Z</time>
      </trkpt>
      <trkpt lat="44.18422" lon="3.20723">
        <ele>632</ele>
        <time>2019-05-22T22:56:13Z</time>
      </trkpt>
      <trkpt lat="44.18436" lon="3.20742">
        <ele>626</ele>
        <time>2019-05-22T22:56:17Z</time>
      </trkpt>
      <trkpt lat="44.18438" lon="3.20762">
        <ele>626</ele>
        <time>2019-05-22T22:56:19Z</time>
      </trkpt>
      <trkpt lat="44.18434" lon="3.2078">
        <ele>627</ele>
        <time>2019-05-22T22:56:22Z</time>
      </trkpt>
      <trkpt lat="44.18425" lon="3.20799">
        <ele>633</ele>
        <time>2019-05-22T22:56:25Z</time>
      </trkpt>
      <trkpt lat="44.18426" lon="3.20809">
        <ele>632</ele>
        <time>2019-05-22T22:56:26Z</time>
      </trkpt>
      <trkpt lat="44.18431" lon="3.20809">
        <ele>628</ele>
        <time>2019-05-22T22:56:27Z</time>
      </trkpt>
      <trkpt lat="44.18439" lon="3.20801">
        <ele>622</ele>
        <time>2019-05-22T22:56:28Z</time>
      </trkpt>
      <trkpt lat="44.1845" lon="3.2077">
        <ele>617</ele>
        <time>2019-05-22T22:56:33Z</time>
      </trkpt>
      <trkpt lat="44.18451" lon="3.20753">
        <ele>617</ele>
        <time>2019-05-22T22:56:35Z</time>
      </trkpt>
      <trkpt lat="44.1845" lon="3.20741">
        <ele>616</ele>
        <time>2019-05-22T22:56:37Z</time>
      </trkpt>
      <trkpt lat="44.18434" lon="3.20701">
        <ele>619</ele>
        <time>2019-05-22T22:56:42Z</time>
      </trkpt>
      <trkpt lat="44.18421" lon="3.20685">
        <ele>624</ele>
        <time>2019-05-22T22:56:46Z</time>
      </trkpt>
      <trkpt lat="44.18364" lon="3.20586">
        <ele>616</ele>
        <time>2019-05-22T22:57:02Z</time>
      </trkpt>
      <trkpt lat="44.18348" lon="3.20567">
        <ele>613</ele>
        <time>2019-05-22T22:57:05Z</time>
      </trkpt>
      <trkpt lat="44.18328" lon="3.20554">
        <ele>613</ele>
        <time>2019-05-22T22:57:09Z</time>
      </trkpt>
      <trkpt lat="44.18238" lon="3.20511">
        <ele>607</ele>
        <time>2019-05-22T22:57:26Z</time>
      </trkpt>
      <trkpt lat="44.18195" lon="3.205">
        <ele>609</ele>
        <time>2019-05-22T22:57:34Z</time>
      </trkpt>
      <trkpt lat="44.18165" lon="3.20484">
        <ele>606</ele>
        <time>2019-05-22T22:57:40Z</time>
      </trkpt>
      <trkpt lat="44.18134" lon="3.2046">
        <ele>610</ele>
        <time>2019-05-22T22:57:46Z</time>
      </trkpt>
      <trkpt lat="44.18118" lon="3.20433">
        <ele>606</ele>
        <time>2019-05-22T22:57:51Z</time>
      </trkpt>
      <trkpt lat="44.18103" lon="3.20395">
        <ele>602</ele>
        <time>2019-05-22T22:57:56Z</time>
      </trkpt>
      <trkpt lat="44.18083" lon="3.20376">
        <ele>607</ele>
        <time>2019-05-22T22:58:00Z</time>
      </trkpt>
      <trkpt lat="44.18082" lon="3.20364">
        <ele>605</ele>
        <time>2019-05-22T22:58:02Z</time>
      </trkpt>
      <trkpt lat="44.18086" lon="3.2036">
        <ele>602</ele>
        <time>2019-05-22T22:58:03Z</time>
      </trkpt>
      <trkpt lat="44.18093" lon="3.20361">
        <ele>599</ele>
        <time>2019-05-22T22:58:04Z</time>
      </trkpt>
      <trkpt lat="44.18099" lon="3.20368">
        <ele>598</ele>
        <time>2019-05-22T22:58:06Z</time>
      </trkpt>
      <trkpt lat="44.18117" lon="3.20405">
        <ele>597</ele>
        <time>2019-05-22T22:58:11Z</time>
      </trkpt>
      <trkpt lat="44.18137" lon="3.20435">
        <ele>597</ele>
        <time>2019-05-22T22:58:16Z</time>
      </trkpt>
      <trkpt lat="44.18153" lon="3.20449">
        <ele>596</ele>
        <time>2019-05-22T22:58:20Z</time>
      </trkpt>
      <trkpt lat="44.1818" lon="3.20458">
        <ele>591</ele>
        <time>2019-05-22T22:58:25Z</time>
      </trkpt>
      <trkpt lat="44.18214" lon="3.20461">
        <ele>587</ele>
        <time>2019-05-22T22:58:31Z</time>
      </trkpt>
      <trkpt lat="44.18248" lon="3.20455">
        <ele>577</ele>
        <time>2019-05-22T22:58:37Z</time>
      </trkpt>
      <trkpt lat="44.18269" lon="3.20459">
        <ele>576</ele>
        <time>2019-05-22T22:58:41Z</time>
      </trkpt>
      <trkpt lat="44.18303" lon="3.20471">
        <ele>577</ele>
        <time>2019-05-22T22:58:47Z</time>
      </trkpt>
      <trkpt lat="44.18323" lon="3.20474">
        <ele>575</ele>
        <time>2019-05-22T22:58:50Z</time>
      </trkpt>
      <trkpt lat="44.18361" lon="3.20474">
        <ele>565</ele>
        <time>2019-05-22T22:58:57Z</time>
      </trkpt>
      <trkpt lat="44.1838" lon="3.20483">
        <ele>564</ele>
        <time>2019-05-22T22:59:01Z</time>
      </trkpt>
      <trkpt lat="44.18403" lon="3.20498">
        <ele>563</ele>
        <time>2019-05-22T22:59:05Z</time>
      </trkpt>
      <trkpt lat="44.18431" lon="3.20527">
        <ele>565</ele>
        <time>2019-05-22T22:59:12Z</time>
      </trkpt>
      <trkpt lat="44.18486" lon="3.20612">
        <ele>565</ele>
        <time>2019-05-22T22:59:26Z</time>
      </trkpt>
      <trkpt lat="44.18502" lon="3.2063">
        <ele>561</ele>
        <time>2019-05-22T22:59:30Z</time>
      </trkpt>
      <trkpt lat="44.1854" lon="3.20652">
        <ele>547</ele>
        <time>2019-05-22T22:59:37Z</time>
      </trkpt>
      <trkpt lat="44.18546" lon="3.20663">
        <ele>547</ele>
        <time>2019-05-22T22:59:39Z</time>
      </trkpt>
      <trkpt lat="44.18548" lon="3.20682">
        <ele>547</ele>
        <time>2019-05-22T22:59:41Z</time>
      </trkpt>
      <trkpt lat="44.18546" lon="3.20726">
        <ele>550</ele>
        <time>2019-05-22T22:59:47Z</time>
      </trkpt>
      <trkpt lat="44.18548" lon="3.20817">
        <ele>544</ele>
        <time>2019-05-22T22:59:59Z</time>
      </trkpt>
      <trkpt lat="44.18515" lon="3.20958">
        <ele>538</ele>
        <time>2019-05-22T23:00:18Z</time>
      </trkpt>
      <trkpt lat="44.18499" lon="3.20997">
        <ele>535</ele>
        <time>2019-05-22T23:00:23Z</time>
      </trkpt>
      <trkpt lat="44.1848" lon="3.21033">
        <ele>532</ele>
        <time>2019-05-22T23:00:29Z</time>
      </trkpt>
      <trkpt lat="44.18468" lon="3.21046">
        <ele>533</ele>
        <time>2019-05-22T23:00:32Z</time>
      </trkpt>
      <trkpt lat="44.18456" lon="3.21053">
        <ele>536</ele>
        <time>2019-05-22T23:00:34Z</time>
      </trkpt>
      <trkpt lat="44.18387" lon="3.21079">
        <ele>554</ele>
        <time>2019-05-22T23:00:47Z</time>
      </trkpt>
      <trkpt lat="44.18378" lon="3.21088">
        <ele>552</ele>
        <time>2019-05-22T23:00:49Z</time>
      </trkpt>
      <trkpt lat="44.1837" lon="3.21102">
        <ele>548</ele>
        <time>2019-05-22T23:00:51Z</time>
      </trkpt>
      <trkpt lat="44.18343" lon="3.21128">
        <ele>548</ele>
        <time>2019-05-22T23:00:57Z</time>
      </trkpt>
      <trkpt lat="44.18341" lon="3.21138">
        <ele>543</ele>
        <time>2019-05-22T23:00:58Z</time>
      </trkpt>
      <trkpt lat="44.18344" lon="3.21145">
        <ele>538</ele>
        <time>2019-05-22T23:00:59Z</time>
      </trkpt>
      <trkpt lat="44.18348" lon="3.21146">
        <ele>535</ele>
        <time>2019-05-22T23:01:00Z</time>
      </trkpt>
      <trkpt lat="44.18354" lon="3.21141">
        <ele>535</ele>
        <time>2019-05-22T23:01:01Z</time>
      </trkpt>
      <trkpt lat="44.18363" lon="3.2112">
        <ele>542</ele>
        <time>2019-05-22T23:01:04Z</time>
      </trkpt>
      <trkpt lat="44.18382" lon="3.21098">
        <ele>545</ele>
        <time>2019-05-22T23:01:09Z</time>
      </trkpt>
      <trkpt lat="44.1839" lon="3.21091">
        <ele>545</ele>
        <time>2019-05-22T23:01:10Z</time>
      </trkpt>
      <trkpt lat="44.18451" lon="3.21078">
        <ele>526</ele>
        <time>2019-05-22T23:01:21Z</time>
      </trkpt>
      <trkpt lat="44.18479" lon="3.21077">
        <ele>513</ele>
        <time>2019-05-22T23:01:26Z</time>
      </trkpt>
      <trkpt lat="44.185" lon="3.2107">
        <ele>506</ele>
        <time>2019-05-22T23:01:30Z</time>
      </trkpt>
      <trkpt lat="44.18514" lon="3.21062">
        <ele>505</ele>
        <time>2019-05-22T23:01:33Z</time>
      </trkpt>
      <trkpt lat="44.18531" lon="3.21038">
        <ele>507</ele>
        <time>2019-05-22T23:01:37Z</time>
      </trkpt>
      <trkpt lat="44.1856" lon="3.2101">
        <ele>504</ele>
        <time>2019-05-22T23:01:43Z</time>
      </trkpt>
      <trkpt lat="44.18569" lon="3.20997">
        <ele>503</ele>
        <time>2019-05-22T23:01:46Z</time>
      </trkpt>
      <trkpt lat="44.18583" lon="3.20968">
        <ele>501</ele>
        <time>2019-05-22T23:01:50Z</time>
      </trkpt>
      <trkpt lat="44.1859" lon="3.2095">
        <ele>500</ele>
        <time>2019-05-22T23:01:53Z</time>
      </trkpt>
      <trkpt lat="44.18597" lon="3.2091">
        <ele>502</ele>
        <time>2019-05-22T23:01:58Z</time>
      </trkpt>
      <trkpt lat="44.18604" lon="3.20891">
        <ele>501</ele>
        <time>2019-05-22T23:02:01Z</time>
      </trkpt>
      <trkpt lat="44.18625" lon="3.20852">
        <ele>494</ele>
        <time>2019-05-22T23:02:07Z</time>
      </trkpt>
      <trkpt lat="44.18632" lon="3.20827">
        <ele>493</ele>
        <time>2019-05-22T23:02:10Z</time>
      </trkpt>
      <trkpt lat="44.18638" lon="3.20762">
        <ele>493</ele>
        <time>2019-05-22T23:02:19Z</time>
      </trkpt>
      <trkpt lat="44.18641" lon="3.20736">
        <ele>493</ele>
        <time>2019-05-22T23:02:22Z</time>
      </trkpt>
      <trkpt lat="44.18645" lon="3.20721">
        <ele>492</ele>
        <time>2019-05-22T23:02:24Z</time>
      </trkpt>
      <trkpt lat="44.18684" lon="3.20637">
        <ele>474</ele>
        <time>2019-05-22T23:02:37Z</time>
      </trkpt>
      <trkpt lat="44.18687" lon="3.20616">
        <ele>471</ele>
        <time>2019-05-22T23:02:40Z</time>
      </trkpt>
      <trkpt lat="44.18684" lon="3.20596">
        <ele>470</ele>
        <time>2019-05-22T23:02:42Z</time>
      </trkpt>
      <trkpt lat="44.18673" lon="3.20579">
        <ele>471</ele>
        <time>2019-05-22T23:02:45Z</time>
      </trkpt>
      <trkpt lat="44.1866" lon="3.20566">
        <ele>473</ele>
        <time>2019-05-22T23:02:48Z</time>
      </trkpt>
      <trkpt lat="44.18628" lon="3.20544">
        <ele>480</ele>
        <time>2019-05-22T23:02:54Z</time>
      </trkpt>
      <trkpt lat="44.18616" lon="3.20528">
        <ele>480</ele>
        <time>2019-05-22T23:02:57Z</time>
      </trkpt>
      <trkpt lat="44.1859" lon="3.20457">
        <ele>474</ele>
        <time>2019-05-22T23:03:07Z</time>
      </trkpt>
      <trkpt lat="44.18587" lon="3.20412">
        <ele>467</ele>
        <time>2019-05-22T23:03:13Z</time>
      </trkpt>
      <trkpt lat="44.1858" lon="3.20394">
        <ele>467</ele>
        <time>2019-05-22T23:03:16Z</time>
      </trkpt>
      <trkpt lat="44.18571" lon="3.20383">
        <ele>469</ele>
        <time>2019-05-22T23:03:18Z</time>
      </trkpt>
      <trkpt lat="44.18565" lon="3.20373">
        <ele>470</ele>
        <time>2019-05-22T23:03:20Z</time>
      </trkpt>
      <trkpt lat="44.18565" lon="3.20359">
        <ele>469</ele>
        <time>2019-05-22T23:03:21Z</time>
      </trkpt>
      <trkpt lat="44.18571" lon="3.20349">
        <ele>467</ele>
        <time>2019-05-22T23:03:23Z</time>
      </trkpt>
      <trkpt lat="44.18577" lon="3.20346">
        <ele>465</ele>
        <time>2019-05-22T23:03:24Z</time>
      </trkpt>
      <trkpt lat="44.18588" lon="3.20351">
        <ele>465</ele>
        <time>2019-05-22T23:03:26Z</time>
      </trkpt>
      <trkpt lat="44.18633" lon="3.20408">
        <ele>464</ele>
        <time>2019-05-22T23:03:37Z</time>
      </trkpt>
      <trkpt lat="44.18659" lon="3.20459">
        <ele>460</ele>
        <time>2019-05-22T23:03:45Z</time>
      </trkpt>
      <trkpt lat="44.18673" lon="3.20478">
        <ele>457</ele>
        <time>2019-05-22T23:03:49Z</time>
      </trkpt>
      <trkpt lat="44.18691" lon="3.20492">
        <ele>454</ele>
        <time>2019-05-22T23:03:52Z</time>
      </trkpt>
      <trkpt lat="44.18716" lon="3.20505">
        <ele>452</ele>
        <time>2019-05-22T23:03:57Z</time>
      </trkpt>
      <trkpt lat="44.18767" lon="3.20519">
        <ele>450</ele>
        <time>2019-05-22T23:04:06Z</time>
      </trkpt>
      <trkpt lat="44.18786" lon="3.20529">
        <ele>452</ele>
        <time>2019-05-22T23:04:10Z</time>
      </trkpt>
      <trkpt lat="44.18805" lon="3.20547">
        <ele>450</ele>
        <time>2019-05-22T23:04:14Z</time>
      </trkpt>
      <trkpt lat="44.18823" lon="3.20573">
        <ele>445</ele>
        <time>2019-05-22T23:04:19Z</time>
      </trkpt>
      <trkpt lat="44.18839" lon="3.20602">
        <ele>440</ele>
        <time>2019-05-22T23:04:23Z</time>
      </trkpt>
      <trkpt lat="44.18847" lon="3.20623">
        <ele>438</ele>
        <time>2019-05-22T23:04:26Z</time>
      </trkpt>
      <trkpt lat="44.18853" lon="3.20664">
        <ele>434</ele>
        <time>2019-05-22T23:04:32Z</time>
      </trkpt>
      <trkpt lat="44.18853" lon="3.20681">
        <ele>433</ele>
        <time>2019-05-22T23:04:34Z</time>
      </trkpt>
      <trkpt lat="44.18852" lon="3.20699">
        <ele>432</ele>
        <time>2019-05-22T23:04:36Z</time>
      </trkpt>
      <trkpt lat="44.18846" lon="3.20715">
        <ele>432</ele>
        <time>2019-05-22T23:04:38Z</time>
      </trkpt>
      <trkpt lat="44.18836" lon="3.20731">
        <ele>432</ele>
        <time>2019-05-22T23:04:41Z</time>
      </trkpt>
      <trkpt lat="44.18807" lon="3.20758">
        <ele>433</ele>
        <time>2019-05-22T23:04:47Z</time>
      </trkpt>
      <trkpt lat="44.18796" lon="3.20778">
        <ele>434</ele>
        <time>2019-05-22T23:04:51Z</time>
      </trkpt>
      <trkpt lat="44.18796" lon="3.2079">
        <ele>433</ele>
        <time>2019-05-22T23:04:52Z</time>
      </trkpt>
      <trkpt lat="44.18821" lon="3.20901">
        <ele>425</ele>
        <time>2019-05-22T23:05:07Z</time>
      </trkpt>
      <trkpt lat="44.18824" lon="3.20921">
        <ele>423</ele>
        <time>2019-05-22T23:05:09Z</time>
      </trkpt>
      <trkpt lat="44.18826" lon="3.20942">
        <ele>422</ele>
        <time>2019-05-22T23:05:12Z</time>
      </trkpt>
      <trkpt lat="44.18836" lon="3.20964">
        <ele>419</ele>
        <time>2019-05-22T23:05:16Z</time>
      </trkpt>
      <trkpt lat="44.18856" lon="3.20978">
        <ele>418</ele>
        <time>2019-05-22T23:05:19Z</time>
      </trkpt>
      <trkpt lat="44.1887" lon="3.20994">
        <ele>416</ele>
        <time>2019-05-22T23:05:23Z</time>
      </trkpt>
      <trkpt lat="44.18891" lon="3.21023">
        <ele>414</ele>
        <time>2019-05-22T23:05:28Z</time>
      </trkpt>
      <trkpt lat="44.18939" lon="3.21057">
        <ele>408</ele>
        <time>2019-05-22T23:05:38Z</time>
      </trkpt>
      <trkpt lat="44.18952" lon="3.2106">
        <ele>406</ele>
        <time>2019-05-22T23:05:40Z</time>
      </trkpt>
      <trkpt lat="44.18962" lon="3.21054">
        <ele>404</ele>
        <time>2019-05-22T23:05:42Z</time>
      </trkpt>
      <trkpt lat="44.18972" lon="3.21041">
        <ele>403</ele>
        <time>2019-05-22T23:05:44Z</time>
      </trkpt>
      <trkpt lat="44.18979" lon="3.21018">
        <ele>403</ele>
        <time>2019-05-22T23:05:47Z</time>
      </trkpt>
      <trkpt lat="44.18995" lon="3.20952">
        <ele>400</ele>
        <time>2019-05-22T23:05:56Z</time>
      </trkpt>
      <trkpt lat="44.19002" lon="3.20948">
        <ele>399</ele>
        <time>2019-05-22T23:05:58Z</time>
      </trkpt>
      <trkpt lat="44.19047" lon="3.20954">
        <ele>406</ele>
        <time>2019-05-22T23:06:06Z</time>
      </trkpt>
      <trkpt lat="44.19052" lon="3.20903">
        <ele>404</ele>
        <time>2019-05-22T23:06:12Z</time>
      </trkpt>
      <trkpt lat="44.19055" lon="3.20858">
        <ele>403</ele>
        <time>2019-05-22T23:06:18Z</time>
      </trkpt>
      <trkpt lat="44.19061" lon="3.20808">
        <ele>402</ele>
        <time>2019-05-22T23:06:25Z</time>
      </trkpt>
      <trkpt lat="44.19063" lon="3.20781">
        <ele>401</ele>
        <time>2019-05-22T23:06:28Z</time>
      </trkpt>
      <trkpt lat="44.19066" lon="3.20764">
        <ele>400</ele>
        <time>2019-05-22T23:06:30Z</time>
      </trkpt>
      <trkpt lat="44.19068" lon="3.2076">
        <ele>400</ele>
        <time>2019-05-22T23:06:31Z</time>
      </trkpt>
      <trkpt lat="44.19161" lon="3.20708">
        <ele>407</ele>
        <time>2019-05-22T23:06:49Z</time>
      </trkpt>
      <trkpt lat="44.19185" lon="3.20703">
        <ele>406</ele>
        <time>2019-05-22T23:06:53Z</time>
      </trkpt>
      <trkpt lat="44.19211" lon="3.20707">
        <ele>406</ele>
        <time>2019-05-22T23:06:58Z</time>
      </trkpt>
      <trkpt lat="44.19236" lon="3.20721">
        <ele>407</ele>
        <time>2019-05-22T23:07:02Z</time>
      </trkpt>
      <trkpt lat="44.19282" lon="3.20772">
        <ele>408</ele>
        <time>2019-05-22T23:07:13Z</time>
      </trkpt>
      <trkpt lat="44.19295" lon="3.20793">
        <ele>409</ele>
        <time>2019-05-22T23:07:16Z</time>
      </trkpt>
      <trkpt lat="44.1932" lon="3.20843">
        <ele>411</ele>
        <time>2019-05-22T23:07:24Z</time>
      </trkpt>
      <trkpt lat="44.19327" lon="3.20848">
        <ele>410</ele>
        <time>2019-05-22T23:07:26Z</time>
      </trkpt>
      <trkpt lat="44.19337" lon="3.20845">
        <ele>407</ele>
        <time>2019-05-22T23:07:27Z</time>
      </trkpt>
      <trkpt lat="44.19424" lon="3.20801">
        <ele>394</ele>
        <time>2019-05-22T23:07:44Z</time>
      </trkpt>
      <trkpt lat="44.19436" lon="3.208">
        <ele>396</ele>
        <time>2019-05-22T23:07:46Z</time>
      </trkpt>
      <trkpt lat="44.19462" lon="3.2081">
        <ele>400</ele>
        <time>2019-05-22T23:07:51Z</time>
      </trkpt>
      <trkpt lat="44.19449" lon="3.20704">
        <ele>399</ele>
        <time>2019-05-22T23:08:05Z</time>
      </trkpt>
      <trkpt lat="44.19451" lon="3.20673">
        <ele>398</ele>
        <time>2019-05-22T23:08:09Z</time>
      </trkpt>
      <trkpt lat="44.19456" lon="3.20636">
        <ele>398</ele>
        <time>2019-05-22T23:08:13Z</time>
      </trkpt>
      <trkpt lat="44.19457" lon="3.20594">
        <ele>397</ele>
        <time>2019-05-22T23:08:19Z</time>
      </trkpt>
      <trkpt lat="44.19446" lon="3.2049">
        <ele>395</ele>
        <time>2019-05-22T23:08:32Z</time>
      </trkpt>
      <trkpt lat="44.19451" lon="3.20468">
        <ele>396</ele>
        <time>2019-05-22T23:08:35Z</time>
      </trkpt>
      <trkpt lat="44.19469" lon="3.20426">
        <ele>398</ele>
        <time>2019-05-22T23:08:41Z</time>
      </trkpt>
      <trkpt lat="44.19485" lon="3.20368">
        <ele>399</ele>
        <time>2019-05-22T23:08:49Z</time>
      </trkpt>
      <trkpt lat="44.19508" lon="3.20229">
        <ele>399</ele>
        <time>2019-05-22T23:09:07Z</time>
      </trkpt>
      <trkpt lat="44.19531" lon="3.20146">
        <ele>400</ele>
        <time>2019-05-22T23:09:19Z</time>
      </trkpt>
      <trkpt lat="44.19547" lon="3.20065">
        <ele>398</ele>
        <time>2019-05-22T23:09:29Z</time>
      </trkpt>
      <trkpt lat="44.19559" lon="3.20029">
        <ele>396</ele>
        <time>2019-05-22T23:09:35Z</time>
      </trkpt>
      <trkpt lat="44.1969" lon="3.19808">
        <ele>399</ele>
        <time>2019-05-22T23:10:11Z</time>
      </trkpt>
      <trkpt lat="44.19707" lon="3.19773">
        <ele>398</ele>
        <time>2019-05-22T23:10:17Z</time>
      </trkpt>
      <trkpt lat="44.1972" lon="3.19732">
        <ele>397</ele>
        <time>2019-05-22T23:10:22Z</time>
      </trkpt>
      <trkpt lat="44.19759" lon="3.19577">
        <ele>399</ele>
        <time>2019-05-22T23:10:43Z</time>
      </trkpt>
      <trkpt lat="44.19769" lon="3.19545">
        <ele>400</ele>
        <time>2019-05-22T23:10:48Z</time>
      </trkpt>
      <trkpt lat="44.19859" lon="3.19315">
        <ele>399</ele>
        <time>2019-05-22T23:11:21Z</time>
      </trkpt>
      <trkpt lat="44.1987" lon="3.19261">
        <ele>397</ele>
        <time>2019-05-22T23:11:28Z</time>
      </trkpt>
      <trkpt lat="44.19875" lon="3.19228">
        <ele>397</ele>
        <time>2019-05-22T23:11:33Z</time>
      </trkpt>
      <trkpt lat="44.19879" lon="3.19155">
        <ele>396</ele>
        <time>2019-05-22T23:11:42Z</time>
      </trkpt>
      <trkpt lat="44.19877" lon="3.19115">
        <ele>397</ele>
        <time>2019-05-22T23:11:47Z</time>
      </trkpt>
      <trkpt lat="44.19866" lon="3.19079">
        <ele>397</ele>
        <time>2019-05-22T23:11:52Z</time>
      </trkpt>
      <trkpt lat="44.19792" lon="3.18933">
        <ele>394</ele>
        <time>2019-05-22T23:12:15Z</time>
      </trkpt>
      <trkpt lat="44.19774" lon="3.18907">
        <ele>395</ele>
        <time>2019-05-22T23:12:19Z</time>
      </trkpt>
      <trkpt lat="44.19763" lon="3.18897">
        <ele>395</ele>
        <time>2019-05-22T23:12:22Z</time>
      </trkpt>
      <trkpt lat="44.1974" lon="3.18882">
        <ele>396</ele>
        <time>2019-05-22T23:12:26Z</time>
      </trkpt>
      <trkpt lat="44.19686" lon="3.18857">
        <ele>395</ele>
        <time>2019-05-22T23:12:36Z</time>
      </trkpt>
      <trkpt lat="44.1967" lon="3.18843">
        <ele>395</ele>
        <time>2019-05-22T23:12:40Z</time>
      </trkpt>
      <trkpt lat="44.19656" lon="3.18822">
        <ele>396</ele>
        <time>2019-05-22T23:12:43Z</time>
      </trkpt>
      <trkpt lat="44.19644" lon="3.18792">
        <ele>397</ele>
        <time>2019-05-22T23:12:48Z</time>
      </trkpt>
      <trkpt lat="44.19639" lon="3.18769">
        <ele>398</ele>
        <time>2019-05-22T23:12:51Z</time>
      </trkpt>
      <trkpt lat="44.19637" lon="3.18735">
        <ele>399</ele>
        <time>2019-05-22T23:12:55Z</time>
      </trkpt>
      <trkpt lat="44.19638" lon="3.18706">
        <ele>398</ele>
        <time>2019-05-22T23:12:59Z</time>
      </trkpt>
      <trkpt lat="44.19642" lon="3.18686">
        <ele>399</ele>
        <time>2019-05-22T23:13:02Z</time>
      </trkpt>
      <trkpt lat="44.1965" lon="3.18657">
        <ele>399</ele>
        <time>2019-05-22T23:13:06Z</time>
      </trkpt>
      <trkpt lat="44.19669" lon="3.18618">
        <ele>398</ele>
        <time>2019-05-22T23:13:12Z</time>
      </trkpt>
      <trkpt lat="44.19679" lon="3.18603">
        <ele>397</ele>
        <time>2019-05-22T23:13:14Z</time>
      </trkpt>
      <trkpt lat="44.19697" lon="3.18584">
        <ele>397</ele>
        <time>2019-05-22T23:13:18Z</time>
      </trkpt>
      <trkpt lat="44.19873" lon="3.18464">
        <ele>403</ele>
        <time>2019-05-22T23:13:53Z</time>
      </trkpt>
      <trkpt lat="44.19908" lon="3.18424">
        <ele>403</ele>
        <time>2019-05-22T23:14:01Z</time>
      </trkpt>
      <trkpt lat="44.1993" lon="3.18387">
        <ele>403</ele>
        <time>2019-05-22T23:14:07Z</time>
      </trkpt>
      <trkpt lat="44.19947" lon="3.18348">
        <ele>402</ele>
        <time>2019-05-22T23:14:13Z</time>
      </trkpt>
      <trkpt lat="44.19963" lon="3.18309">
        <ele>403</ele>
        <time>2019-05-22T23:14:19Z</time>
      </trkpt>
      <trkpt lat="44.19972" lon="3.18274">
        <ele>403</ele>
        <time>2019-05-22T23:14:24Z</time>
      </trkpt>
      <trkpt lat="44.19977" lon="3.18241">
        <ele>403</ele>
        <time>2019-05-22T23:14:28Z</time>
      </trkpt>
      <trkpt lat="44.19978" lon="3.1821">
        <ele>402</ele>
        <time>2019-05-22T23:14:32Z</time>
      </trkpt>
      <trkpt lat="44.19973" lon="3.18146">
        <ele>399</ele>
        <time>2019-05-22T23:14:40Z</time>
      </trkpt>
      <trkpt lat="44.19973" lon="3.18109">
        <ele>398</ele>
        <time>2019-05-22T23:14:45Z</time>
      </trkpt>
      <trkpt lat="44.19975" lon="3.18077">
        <ele>398</ele>
        <time>2019-05-22T23:14:49Z</time>
      </trkpt>
      <trkpt lat="44.19982" lon="3.18037">
        <ele>397</ele>
        <time>2019-05-22T23:14:54Z</time>
      </trkpt>
      <trkpt lat="44.19995" lon="3.17993">
        <ele>397</ele>
        <time>2019-05-22T23:15:00Z</time>
      </trkpt>
      <trkpt lat="44.20029" lon="3.17897">
        <ele>397</ele>
        <time>2019-05-22T23:15:14Z</time>
      </trkpt>
      <trkpt lat="44.20068" lon="3.17807">
        <ele>397</ele>
        <time>2019-05-22T23:15:27Z</time>
      </trkpt>
      <trkpt lat="44.20081" lon="3.17766">
        <ele>395</ele>
        <time>2019-05-22T23:15:33Z</time>
      </trkpt>
      <trkpt lat="44.20098" lon="3.1766">
        <ele>395</ele>
        <time>2019-05-22T23:15:47Z</time>
      </trkpt>
      <trkpt lat="44.20104" lon="3.17611">
        <ele>395</ele>
        <time>2019-05-22T23:15:53Z</time>
      </trkpt>
      <trkpt lat="44.20105" lon="3.17559">
        <ele>393</ele>
        <time>2019-05-22T23:16:00Z</time>
      </trkpt>
      <trkpt lat="44.20108" lon="3.17527">
        <ele>392</ele>
        <time>2019-05-22T23:16:04Z</time>
      </trkpt>
      <trkpt lat="44.20123" lon="3.17462">
        <ele>392</ele>
        <time>2019-05-22T23:16:13Z</time>
      </trkpt>
      <trkpt lat="44.20135" lon="3.17426">
        <ele>392</ele>
        <time>2019-05-22T23:16:18Z</time>
      </trkpt>
      <trkpt lat="44.2015" lon="3.17392">
        <ele>391</ele>
        <time>2019-05-22T23:16:23Z</time>
      </trkpt>
      <trkpt lat="44.20167" lon="3.17365">
        <ele>390</ele>
        <time>2019-05-22T23:16:27Z</time>
      </trkpt>
      <trkpt lat="44.20173" lon="3.1735">
        <ele>390</ele>
        <time>2019-05-22T23:16:29Z</time>
      </trkpt>
      <trkpt lat="44.20178" lon="3.17327">
        <ele>388</ele>
        <time>2019-05-22T23:16:33Z</time>
      </trkpt>
      <trkpt lat="44.2018" lon="3.17308">
        <ele>388</ele>
        <time>2019-05-22T23:16:35Z</time>
      </trkpt>
      <trkpt lat="44.20181" lon="3.17246">
        <ele>389</ele>
        <time>2019-05-22T23:16:43Z</time>
      </trkpt>
      <trkpt lat="44.20179" lon="3.17203">
        <ele>392</ele>
        <time>2019-05-22T23:16:48Z</time>
      </trkpt>
      <trkpt lat="44.20161" lon="3.17098">
        <ele>392</ele>
        <time>2019-05-22T23:17:02Z</time>
      </trkpt>
      <trkpt lat="44.20156" lon="3.17032">
        <ele>395</ele>
        <time>2019-05-22T23:17:11Z</time>
      </trkpt>
      <trkpt lat="44.2014" lon="3.16934">
        <ele>398</ele>
        <time>2019-05-22T23:17:23Z</time>
      </trkpt>
      <trkpt lat="44.20124" lon="3.16791">
        <ele>395</ele>
        <time>2019-05-22T23:17:42Z</time>
      </trkpt>
      <trkpt lat="44.20121" lon="3.16727">
        <ele>396</ele>
        <time>2019-05-22T23:17:50Z</time>
      </trkpt>
      <trkpt lat="44.20124" lon="3.16627">
        <ele>400</ele>
        <time>2019-05-22T23:18:03Z</time>
      </trkpt>
      <trkpt lat="44.20124" lon="3.16576">
        <ele>401</ele>
        <time>2019-05-22T23:18:09Z</time>
      </trkpt>
      <trkpt lat="44.20109" lon="3.1645">
        <ele>397</ele>
        <time>2019-05-22T23:18:26Z</time>
      </trkpt>
      <trkpt lat="44.20105" lon="3.16359">
        <ele>397</ele>
        <time>2019-05-22T23:18:37Z</time>
      </trkpt>
      <trkpt lat="44.20102" lon="3.16228">
        <ele>404</ele>
        <time>2019-05-22T23:18:54Z</time>
      </trkpt>
      <trkpt lat="44.20096" lon="3.16144">
        <ele>399</ele>
        <time>2019-05-22T23:19:05Z</time>
      </trkpt>
      <trkpt lat="44.20096" lon="3.16117">
        <ele>396</ele>
        <time>2019-05-22T23:19:08Z</time>
      </trkpt>
      <trkpt lat="44.201" lon="3.16086">
        <ele>393</ele>
        <time>2019-05-22T23:19:12Z</time>
      </trkpt>
      <trkpt lat="44.20111" lon="3.16042">
        <ele>391</ele>
        <time>2019-05-22T23:19:18Z</time>
      </trkpt>
      <trkpt lat="44.20127" lon="3.16014">
        <ele>389</ele>
        <time>2019-05-22T23:19:23Z</time>
      </trkpt>
      <trkpt lat="44.20145" lon="3.16001">
        <ele>389</ele>
        <time>2019-05-22T23:19:26Z</time>
      </trkpt>
      <trkpt lat="44.20349" lon="3.15912">
        <ele>390</ele>
        <time>2019-05-22T23:20:04Z</time>
      </trkpt>
      <trkpt lat="44.20355" lon="3.15904">
        <ele>390</ele>
        <time>2019-05-22T23:20:06Z</time>
      </trkpt>
      <trkpt lat="44.20361" lon="3.15894">
        <ele>390</ele>
        <time>2019-05-22T23:20:08Z</time>
      </trkpt>
      <trkpt lat="44.20363" lon="3.15885">
        <ele>390</ele>
        <time>2019-05-22T23:20:09Z</time>
      </trkpt>
      <trkpt lat="44.20363" lon="3.15874">
        <ele>389</ele>
        <time>2019-05-22T23:20:10Z</time>
      </trkpt>
      <trkpt lat="44.20344" lon="3.15769">
        <ele>388</ele>
        <time>2019-05-22T23:20:24Z</time>
      </trkpt>
      <trkpt lat="44.20336" lon="3.15744">
        <ele>389</ele>
        <time>2019-05-22T23:20:27Z</time>
      </trkpt>
      <trkpt lat="44.20328" lon="3.15732">
        <ele>390</ele>
        <time>2019-05-22T23:20:30Z</time>
      </trkpt>
      <trkpt lat="44.20316" lon="3.1572">
        <ele>391</ele>
        <time>2019-05-22T23:20:32Z</time>
      </trkpt>
      <trkpt lat="44.20302" lon="3.15711">
        <ele>391</ele>
        <time>2019-05-22T23:20:35Z</time>
      </trkpt>
      <trkpt lat="44.2029" lon="3.15707">
        <ele>392</ele>
        <time>2019-05-22T23:20:37Z</time>
      </trkpt>
      <trkpt lat="44.20271" lon="3.15705">
        <ele>392</ele>
        <time>2019-05-22T23:20:41Z</time>
      </trkpt>
      <trkpt lat="44.20173" lon="3.15703">
        <ele>393</ele>
        <time>2019-05-22T23:20:58Z</time>
      </trkpt>
      <trkpt lat="44.20154" lon="3.15698">
        <ele>392</ele>
        <time>2019-05-22T23:21:01Z</time>
      </trkpt>
      <trkpt lat="44.2014" lon="3.15689">
        <ele>392</ele>
        <time>2019-05-22T23:21:04Z</time>
      </trkpt>
      <trkpt lat="44.2013" lon="3.15681">
        <ele>392</ele>
        <time>2019-05-22T23:21:06Z</time>
      </trkpt>
      <trkpt lat="44.20119" lon="3.15667">
        <ele>392</ele>
        <time>2019-05-22T23:21:09Z</time>
      </trkpt>
      <trkpt lat="44.20109" lon="3.15648">
        <ele>393</ele>
        <time>2019-05-22T23:21:12Z</time>
      </trkpt>
      <trkpt lat="44.20098" lon="3.15619">
        <ele>394</ele>
        <time>2019-05-22T23:21:16Z</time>
      </trkpt>
      <trkpt lat="44.20075" lon="3.15542">
        <ele>398</ele>
        <time>2019-05-22T23:21:27Z</time>
      </trkpt>
      <trkpt lat="44.20066" lon="3.15516">
        <ele>399</ele>
        <time>2019-05-22T23:21:30Z</time>
      </trkpt>
      <trkpt lat="44.20052" lon="3.15486">
        <ele>400</ele>
        <time>2019-05-22T23:21:35Z</time>
      </trkpt>
      <trkpt lat="44.20029" lon="3.15448">
        <ele>400</ele>
        <time>2019-05-22T23:21:41Z</time>
      </trkpt>
      <trkpt lat="44.20003" lon="3.15415">
        <ele>400</ele>
        <time>2019-05-22T23:21:48Z</time>
      </trkpt>
      <trkpt lat="44.19965" lon="3.15385">
        <ele>399</ele>
        <time>2019-05-22T23:21:55Z</time>
      </trkpt>
      <trkpt lat="44.19933" lon="3.15372">
        <ele>397</ele>
        <time>2019-05-22T23:22:01Z</time>
      </trkpt>
      <trkpt lat="44.19903" lon="3.15366">
        <ele>395</ele>
        <time>2019-05-22T23:22:07Z</time>
      </trkpt>
      <trkpt lat="44.19877" lon="3.15364">
        <ele>395</ele>
        <time>2019-05-22T23:22:11Z</time>
      </trkpt>
      <trkpt lat="44.19847" lon="3.15367">
        <ele>393</ele>
        <time>2019-05-22T23:22:17Z</time>
      </trkpt>
      <trkpt lat="44.19771" lon="3.15378">
        <ele>395</ele>
        <time>2019-05-22T23:22:30Z</time>
      </trkpt>
      <trkpt lat="44.19722" lon="3.15379">
        <ele>397</ele>
        <time>2019-05-22T23:22:39Z</time>
      </trkpt>
      <trkpt lat="44.19627" lon="3.15366">
        <ele>401</ele>
        <time>2019-05-22T23:22:56Z</time>
      </trkpt>
      <trkpt lat="44.19588" lon="3.15371">
        <ele>400</ele>
        <time>2019-05-22T23:23:03Z</time>
      </trkpt>
      <trkpt lat="44.19528" lon="3.1539">
        <ele>405</ele>
        <time>2019-05-22T23:23:14Z</time>
      </trkpt>
      <trkpt lat="44.19507" lon="3.15401">
        <ele>405</ele>
        <time>2019-05-22T23:23:18Z</time>
      </trkpt>
      <trkpt lat="44.19484" lon="3.15416">
        <ele>407</ele>
        <time>2019-05-22T23:23:22Z</time>
      </trkpt>
      <trkpt lat="44.19467" lon="3.15431">
        <ele>409</ele>
        <time>2019-05-22T23:23:26Z</time>
      </trkpt>
      <trkpt lat="44.19326" lon="3.15588">
        <ele>403</ele>
        <time>2019-05-22T23:23:58Z</time>
      </trkpt>
      <trkpt lat="44.19314" lon="3.15598">
        <ele>403</ele>
        <time>2019-05-22T23:24:00Z</time>
      </trkpt>
      <trkpt lat="44.19289" lon="3.15607">
        <ele>405</ele>
        <time>2019-05-22T23:24:05Z</time>
      </trkpt>
      <trkpt lat="44.19239" lon="3.15628">
        <ele>406</ele>
        <time>2019-05-22T23:24:14Z</time>
      </trkpt>
      <trkpt lat="44.19203" lon="3.15638">
        <ele>404</ele>
        <time>2019-05-22T23:24:21Z</time>
      </trkpt>
      <trkpt lat="44.19148" lon="3.15648">
        <ele>400</ele>
        <time>2019-05-22T23:24:31Z</time>
      </trkpt>
      <trkpt lat="44.19108" lon="3.15652">
        <ele>397</ele>
        <time>2019-05-22T23:24:38Z</time>
      </trkpt>
      <trkpt lat="44.1908" lon="3.15648">
        <ele>397</ele>
        <time>2019-05-22T23:24:43Z</time>
      </trkpt>
      <trkpt lat="44.19057" lon="3.15639">
        <ele>397</ele>
        <time>2019-05-22T23:24:47Z</time>
      </trkpt>
      <trkpt lat="44.19004" lon="3.156">
        <ele>395</ele>
        <time>2019-05-22T23:24:58Z</time>
      </trkpt>
    </trkseg>
  </trk>
</gpx>